Wetterdaten: Freitag, 25.10.2019
Datum Zeit Temp. A. Feuchte A. Luftdruck Regen Wind Richtung Richtung Sonnenschein ET UV Solar Taupunkt Windchill Windböen
25.10.2019 00:00 10,6 °C 93 % 1015,0 hPa 0,0 mm 0,0 km/h (0 Bft) S 189 ° 0 min 0,000 mm 0,0 UV-I 0 W/m² 9,5 °C 10,6 °C 0,0 km/h (0 Bft)
25.10.2019 00:01 10,6 °C 93 % 1015,0 hPa 0,0 mm 0,0 km/h (0 Bft) S 189 ° 0 min 0,000 mm 0,0 UV-I 0 W/m² 9,5 °C 10,6 °C 0,0 km/h (0 Bft)
25.10.2019 00:02 10,6 °C 93 % 1015,0 hPa 0,0 mm 0,0 km/h (0 Bft) S 189 ° 0 min 0,000 mm 0,0 UV-I 0 W/m² 9,5 °C 10,6 °C 0,0 km/h (0 Bft)
25.10.2019 00:03 10,6 °C 93 % 1015,1 hPa 0,0 mm 0,0 km/h (0 Bft) S 189 ° 0 min 0,000 mm 0,0 UV-I 0 W/m² 9,5 °C 10,6 °C 0,0 km/h (0 Bft)
25.10.2019 00:04 10,6 °C 92 % 1015,1 hPa 0,0 mm 0,0 km/h (0 Bft) S 189 ° 0 min 0,000 mm 0,0 UV-I 0 W/m² 9,4 °C 10,6 °C 0,0 km/h (0 Bft)
25.10.2019 00:05 10,5 °C 92 % 1015,1 hPa 0,0 mm 0,0 km/h (0 Bft) S 189 ° 0 min 0,000 mm 0,0 UV-I 0 W/m² 9,3 °C 10,5 °C 0,0 km/h (0 Bft)
25.10.2019 00:06 10,5 °C 92 % 1015,1 hPa 0,0 mm 0,0 km/h (0 Bft) S 189 ° 0 min 0,000 mm 0,0 UV-I 0 W/m² 9,3 °C 10,5 °C 0,0 km/h (0 Bft)
25.10.2019 00:07 10,5 °C 92 % 1015,0 hPa 0,0 mm 0,0 km/h (0 Bft) S 189 ° 0 min 0,000 mm 0,0 UV-I 0 W/m² 9,3 °C 10,5 °C 0,0 km/h (0 Bft)
25.10.2019 00:08 10,4 °C 92 % 1015,1 hPa 0,0 mm 0,0 km/h (0 Bft) S 189 ° 0 min 0,000 mm 0,0 UV-I 0 W/m² 9,2 °C 10,4 °C 0,0 km/h (0 Bft)
25.10.2019 00:09 10,4 °C 92 % 1015,1 hPa 0,0 mm 0,0 km/h (0 Bft) S 189 ° 0 min 0,000 mm 0,0 UV-I 0 W/m² 9,2 °C 10,4 °C 0,0 km/h (0 Bft)
25.10.2019 00:10 10,4 °C 92 % 1015,1 hPa 0,0 mm 0,0 km/h (0 Bft) S 189 ° 0 min 0,000 mm 0,0 UV-I 0 W/m² 9,2 °C 10,4 °C 0,0 km/h (0 Bft)
25.10.2019 00:11 10,4 °C 92 % 1015,1 hPa 0,0 mm 0,0 km/h (0 Bft) S 189 ° 0 min 0,000 mm 0,0 UV-I 0 W/m² 9,2 °C 10,4 °C 0,0 km/h (0 Bft)
25.10.2019 00:12 10,4 °C 92 % 1015,2 hPa 0,0 mm 0,0 km/h (0 Bft) S 189 ° 0 min 0,000 mm 0,0 UV-I 0 W/m² 9,2 °C 10,4 °C 0,0 km/h (0 Bft)
25.10.2019 00:13 10,4 °C 92 % 1015,2 hPa 0,0 mm 0,0 km/h (0 Bft) S 189 ° 0 min 0,000 mm 0,0 UV-I 0 W/m² 9,2 °C 10,4 °C 0,0 km/h (0 Bft)
25.10.2019 00:14 10,3 °C 92 % 1015,2 hPa 0,0 mm 1,9 km/h (1 Bft) S 189 ° 0 min 0,000 mm 0,0 UV-I 0 W/m² 9,1 °C 10,3 °C 3,2 km/h (1 Bft)
25.10.2019 00:15 10,3 °C 92 % 1015,2 hPa 0,0 mm 0,5 km/h (0 Bft) S 189 ° 0 min 0,000 mm 0,0 UV-I 0 W/m² 9,1 °C 10,3 °C 1,6 km/h (1 Bft)
25.10.2019 00:16 10,3 °C 92 % 1015,2 hPa 0,0 mm 0,7 km/h (0 Bft) S 189 ° 0 min 0,000 mm 0,0 UV-I 0 W/m² 9,1 °C 10,3 °C 1,6 km/h (1 Bft)
25.10.2019 00:17 10,3 °C 92 % 1015,2 hPa 0,0 mm 0,1 km/h (0 Bft) S 189 ° 0 min 0,000 mm 0,0 UV-I 0 W/m² 9,1 °C 10,3 °C 1,6 km/h (1 Bft)
25.10.2019 00:18 10,3 °C 92 % 1015,3 hPa 0,0 mm 0,0 km/h (0 Bft) S 189 ° 0 min 0,000 mm 0,0 UV-I 0 W/m² 9,1 °C 10,3 °C 0,0 km/h (0 Bft)
25.10.2019 00:19 10,3 °C 92 % 1015,2 hPa 0,0 mm 0,0 km/h (0 Bft) S 189 ° 0 min 0,000 mm 0,0 UV-I 0 W/m² 9,1 °C 10,3 °C 0,0 km/h (0 Bft)
25.10.2019 00:20 10,3 °C 92 % 1015,2 hPa 0,0 mm 0,0 km/h (0 Bft) S 189 ° 0 min 0,000 mm 0,0 UV-I 0 W/m² 9,1 °C 10,3 °C 0,0 km/h (0 Bft)
25.10.2019 00:21 10,3 °C 92 % 1015,3 hPa 0,0 mm 0,0 km/h (0 Bft) S 189 ° 0 min 0,000 mm 0,0 UV-I 0 W/m² 9,1 °C 10,3 °C 0,0 km/h (0 Bft)
25.10.2019 00:22 10,3 °C 92 % 1015,3 hPa 0,0 mm 0,0 km/h (0 Bft) S 189 ° 0 min 0,000 mm 0,0 UV-I 0 W/m² 9,1 °C 10,3 °C 0,0 km/h (0 Bft)
25.10.2019 00:23 10,3 °C 92 % 1015,3 hPa 0,0 mm 0,0 km/h (0 Bft) S 189 ° 0 min 0,000 mm 0,0 UV-I 0 W/m² 9,1 °C 10,3 °C 0,0 km/h (0 Bft)
25.10.2019 00:24 10,3 °C 92 % 1015,3 hPa 0,0 mm 0,0 km/h (0 Bft) S 189 ° 0 min 0,000 mm 0,0 UV-I 0 W/m² 9,1 °C 10,3 °C 0,0 km/h (0 Bft)
25.10.2019 00:25 10,3 °C 92 % 1015,3 hPa 0,0 mm 0,1 km/h (0 Bft) S 189 ° 0 min 0,000 mm 0,0 UV-I 0 W/m² 9,1 °C 10,3 °C 1,6 km/h (1 Bft)
25.10.2019 00:26 10,3 °C 92 % 1015,3 hPa 0,0 mm 0,8 km/h (0 Bft) S 189 ° 0 min 0,000 mm 0,0 UV-I 0 W/m² 9,1 °C 10,3 °C 3,2 km/h (1 Bft)
25.10.2019 00:27 10,3 °C 92 % 1015,3 hPa 0,0 mm 0,2 km/h (0 Bft) S 189 ° 0 min 0,000 mm 0,0 UV-I 0 W/m² 9,1 °C 10,3 °C 1,6 km/h (1 Bft)
25.10.2019 00:28 10,3 °C 92 % 1015,2 hPa 0,0 mm 3,0 km/h (1 Bft) S 189 ° 0 min 0,000 mm 0,0 UV-I 0 W/m² 9,1 °C 10,3 °C 4,8 km/h (1 Bft)
25.10.2019 00:29 10,3 °C 92 % 1015,2 hPa 0,0 mm 3,3 km/h (1 Bft) S 189 ° 0 min 0,000 mm 0,0 UV-I 0 W/m² 9,1 °C 10,3 °C 4,8 km/h (1 Bft)
25.10.2019 00:30 10,3 °C 92 % 1015,3 hPa 0,0 mm 1,8 km/h (1 Bft) S 189 ° 0 min 0,000 mm 0,0 UV-I 0 W/m² 9,1 °C 10,3 °C 4,8 km/h (1 Bft)
25.10.2019 00:31 10,3 °C 92 % 1015,3 hPa 0,0 mm 3,2 km/h (1 Bft) S 191 ° 0 min 0,000 mm 0,0 UV-I 0 W/m² 9,1 °C 10,3 °C 4,8 km/h (1 Bft)
25.10.2019 00:32 10,3 °C 92 % 1015,3 hPa 0,0 mm 1,7 km/h (1 Bft) S 191 ° 0 min 0,000 mm 0,0 UV-I 0 W/m² 9,1 °C 10,3 °C 3,2 km/h (1 Bft)
25.10.2019 00:33 10,4 °C 93 % 1015,4 hPa 0,0 mm 3,4 km/h (1 Bft) S 191 ° 0 min 0,000 mm 0,0 UV-I 0 W/m² 9,3 °C 10,4 °C 6,4 km/h (2 Bft)
25.10.2019 00:34 10,4 °C 93 % 1015,4 hPa 0,0 mm 1,3 km/h (1 Bft) S 191 ° 0 min 0,000 mm 0,0 UV-I 0 W/m² 9,3 °C 10,4 °C 3,2 km/h (1 Bft)
25.10.2019 00:35 10,4 °C 93 % 1015,4 hPa 0,0 mm 0,0 km/h (0 Bft) S 191 ° 0 min 0,000 mm 0,0 UV-I 0 W/m² 9,3 °C 10,4 °C 0,0 km/h (0 Bft)
25.10.2019 00:36 10,5 °C 93 % 1015,4 hPa 0,0 mm 2,2 km/h (1 Bft) S 191 ° 0 min 0,000 mm 0,0 UV-I 0 W/m² 9,4 °C 10,5 °C 6,4 km/h (2 Bft)
25.10.2019 00:37 10,6 °C 93 % 1015,4 hPa 0,0 mm 2,5 km/h (1 Bft) S-SW 206 ° 0 min 0,000 mm 0,0 UV-I 0 W/m² 9,5 °C 10,6 °C 8,0 km/h (2 Bft)
25.10.2019 00:38 10,6 °C 93 % 1015,5 hPa 0,0 mm 1,3 km/h (1 Bft) S-SW 206 ° 0 min 0,000 mm 0,0 UV-I 0 W/m² 9,5 °C 10,6 °C 3,2 km/h (1 Bft)
25.10.2019 00:39 10,6 °C 93 % 1015,5 hPa 0,0 mm 0,1 km/h (0 Bft) S-SW 206 ° 0 min 0,000 mm 0,0 UV-I 0 W/m² 9,5 °C 10,6 °C 1,6 km/h (1 Bft)
25.10.2019 00:40 10,6 °C 93 % 1015,4 hPa 0,0 mm 0,6 km/h (0 Bft) S-SW 206 ° 0 min 0,000 mm 0,0 UV-I 0 W/m² 9,5 °C 10,6 °C 4,8 km/h (1 Bft)
25.10.2019 00:41 10,7 °C 93 % 1015,5 hPa 0,0 mm 1,1 km/h (1 Bft) S-SW 206 ° 0 min 0,000 mm 0,0 UV-I 0 W/m² 9,6 °C 10,7 °C 3,2 km/h (1 Bft)
25.10.2019 00:42 10,7 °C 93 % 1015,5 hPa 0,0 mm 3,5 km/h (1 Bft) S 190 ° 0 min 0,000 mm 0,0 UV-I 0 W/m² 9,6 °C 10,7 °C 4,8 km/h (1 Bft)
25.10.2019 00:43 10,7 °C 93 % 1015,5 hPa 0,0 mm 0,1 km/h (0 Bft) S 190 ° 0 min 0,000 mm 0,0 UV-I 0 W/m² 9,6 °C 10,7 °C 1,6 km/h (1 Bft)
25.10.2019 00:44 10,7 °C 93 % 1015,5 hPa 0,0 mm 0,0 km/h (0 Bft) S 190 ° 0 min 0,000 mm 0,0 UV-I 0 W/m² 9,6 °C 10,7 °C 0,0 km/h (0 Bft)
25.10.2019 00:45 10,7 °C 93 % 1015,5 hPa 0,0 mm 0,9 km/h (0 Bft) S 190 ° 0 min 0,000 mm 0,0 UV-I 0 W/m² 9,6 °C 10,7 °C 3,2 km/h (1 Bft)
25.10.2019 00:46 10,7 °C 93 % 1015,6 hPa 0,0 mm 1,5 km/h (1 Bft) S 191 ° 0 min 0,000 mm 0,0 UV-I 0 W/m² 9,6 °C 10,7 °C 3,2 km/h (1 Bft)
25.10.2019 00:47 10,7 °C 93 % 1015,4 hPa 0,0 mm 1,3 km/h (1 Bft) S 191 ° 0 min 0,000 mm 0,0 UV-I 0 W/m² 9,6 °C 10,7 °C 3,2 km/h (1 Bft)
25.10.2019 00:48 10,7 °C 93 % 1015,5 hPa 0,0 mm 2,1 km/h (1 Bft) S 191 ° 0 min 0,000 mm 0,0 UV-I 0 W/m² 9,6 °C 10,7 °C 4,8 km/h (1 Bft)
25.10.2019 00:49 10,7 °C 92 % 1015,5 hPa 0,0 mm 1,5 km/h (1 Bft) S 191 ° 0 min 0,000 mm 0,0 UV-I 0 W/m² 9,5 °C 10,7 °C 3,2 km/h (1 Bft)
25.10.2019 00:50 10,8 °C 92 % 1015,5 hPa 0,0 mm 2,6 km/h (1 Bft) S 191 ° 0 min 0,000 mm 0,0 UV-I 0 W/m² 9,6 °C 10,8 °C 6,4 km/h (2 Bft)
25.10.2019 00:51 10,8 °C 92 % 1015,5 hPa 0,0 mm 1,8 km/h (1 Bft) S 191 ° 0 min 0,000 mm 0,0 UV-I 0 W/m² 9,6 °C 10,8 °C 4,8 km/h (1 Bft)
25.10.2019 00:52 10,8 °C 92 % 1015,5 hPa 0,0 mm 0,7 km/h (0 Bft) S 191 ° 0 min 0,000 mm 0,0 UV-I 0 W/m² 9,6 °C 10,8 °C 3,2 km/h (1 Bft)
25.10.2019 00:53 10,8 °C 92 % 1015,4 hPa 0,0 mm 0,8 km/h (0 Bft) S 191 ° 0 min 0,000 mm 0,0 UV-I 0 W/m² 9,6 °C 10,8 °C 3,2 km/h (1 Bft)
25.10.2019 00:54 10,8 °C 92 % 1015,4 hPa 0,0 mm 2,7 km/h (1 Bft) S-SW 192 ° 0 min 0,000 mm 0,0 UV-I 0 W/m² 9,6 °C 10,8 °C 6,4 km/h (2 Bft)
25.10.2019 00:55 10,8 °C 92 % 1015,5 hPa 0,0 mm 1,0 km/h (0 Bft) S-SW 192 ° 0 min 0,000 mm 0,0 UV-I 0 W/m² 9,6 °C 10,8 °C 4,8 km/h (1 Bft)
25.10.2019 00:56 10,8 °C 92 % 1015,5 hPa 0,0 mm 3,2 km/h (1 Bft) S-SW 192 ° 0 min 0,000 mm 0,0 UV-I 0 W/m² 9,6 °C 10,8 °C 6,4 km/h (2 Bft)
25.10.2019 00:57 10,8 °C 92 % 1015,5 hPa 0,0 mm 3,8 km/h (1 Bft) S-SW 198 ° 0 min 0,000 mm 0,0 UV-I 0 W/m² 9,6 °C 10,8 °C 8,0 km/h (2 Bft)
25.10.2019 00:58 10,8 °C 92 % 1015,6 hPa 0,0 mm 1,2 km/h (1 Bft) S-SW 198 ° 0 min 0,000 mm 0,0 UV-I 0 W/m² 9,6 °C 10,8 °C 3,2 km/h (1 Bft)
25.10.2019 00:59 10,8 °C 92 % 1015,6 hPa 0,0 mm 2,4 km/h (1 Bft) S-SW 198 ° 0 min 0,000 mm 0,0 UV-I 0 W/m² 9,6 °C 10,8 °C 3,2 km/h (1 Bft)
25.10.2019 01:00 10,9 °C 92 % 1015,5 hPa 0,0 mm 2,2 km/h (1 Bft) S-SW 198 ° 0 min 0,000 mm 0,0 UV-I 0 W/m² 9,7 °C 10,9 °C 4,8 km/h (1 Bft)
25.10.2019 01:01 10,9 °C 92 % 1015,6 hPa 0,0 mm 2,0 km/h (1 Bft) S-SW 198 ° 0 min 0,000 mm 0,0 UV-I 0 W/m² 9,7 °C 10,9 °C 3,2 km/h (1 Bft)
25.10.2019 01:02 10,9 °C 92 % 1015,6 hPa 0,0 mm 1,4 km/h (1 Bft) S-SW 198 ° 0 min 0,000 mm 0,0 UV-I 0 W/m² 9,7 °C 10,9 °C 3,2 km/h (1 Bft)
25.10.2019 01:03 10,9 °C 92 % 1015,6 hPa 0,0 mm 1,8 km/h (1 Bft) S-SW 198 ° 0 min 0,000 mm 0,0 UV-I 0 W/m² 9,7 °C 10,9 °C 4,8 km/h (1 Bft)
25.10.2019 01:04 10,9 °C 92 % 1015,7 hPa 0,0 mm 0,7 km/h (0 Bft) S-SW 198 ° 0 min 0,000 mm 0,0 UV-I 0 W/m² 9,7 °C 10,9 °C 4,8 km/h (1 Bft)
25.10.2019 01:05 10,9 °C 92 % 1015,7 hPa 0,0 mm 1,9 km/h (1 Bft) S-SW 198 ° 0 min 0,000 mm 0,0 UV-I 0 W/m² 9,7 °C 10,9 °C 3,2 km/h (1 Bft)
25.10.2019 01:06 10,9 °C 92 % 1015,7 hPa 0,0 mm 3,3 km/h (1 Bft) S-SW 198 ° 0 min 0,000 mm 0,0 UV-I 0 W/m² 9,7 °C 10,9 °C 4,8 km/h (1 Bft)
25.10.2019 01:07 10,9 °C 92 % 1015,7 hPa 0,0 mm 3,4 km/h (1 Bft) S-SW 198 ° 0 min 0,000 mm 0,0 UV-I 0 W/m² 9,7 °C 10,9 °C 6,4 km/h (2 Bft)
25.10.2019 01:08 10,9 °C 92 % 1015,7 hPa 0,0 mm 3,7 km/h (1 Bft) S-SW 198 ° 0 min 0,000 mm 0,0 UV-I 0 W/m² 9,7 °C 10,9 °C 6,4 km/h (2 Bft)
25.10.2019 01:09 10,9 °C 92 % 1015,7 hPa 0,0 mm 2,7 km/h (1 Bft) S-SW 198 ° 0 min 0,000 mm 0,0 UV-I 0 W/m² 9,7 °C 10,9 °C 3,2 km/h (1 Bft)
25.10.2019 01:10 10,9 °C 92 % 1015,7 hPa 0,0 mm 1,7 km/h (1 Bft) S-SW 198 ° 0 min 0,000 mm 0,0 UV-I 0 W/m² 9,7 °C 10,9 °C 3,2 km/h (1 Bft)
25.10.2019 01:11 10,9 °C 92 % 1015,7 hPa 0,0 mm 2,5 km/h (1 Bft) S-SW 198 ° 0 min 0,000 mm 0,0 UV-I 0 W/m² 9,7 °C 10,9 °C 4,8 km/h (1 Bft)
25.10.2019 01:12 10,9 °C 92 % 1015,7 hPa 0,0 mm 3,1 km/h (1 Bft) S-SW 198 ° 0 min 0,000 mm 0,0 UV-I 0 W/m² 9,7 °C 10,9 °C 4,8 km/h (1 Bft)
25.10.2019 01:13 10,9 °C 91 % 1015,7 hPa 0,0 mm 5,2 km/h (1 Bft) S-SW 198 ° 0 min 0,000 mm 0,0 UV-I 0 W/m² 9,5 °C 10,9 °C 8,0 km/h (2 Bft)
25.10.2019 01:14 10,9 °C 91 % 1015,7 hPa 0,0 mm 3,3 km/h (1 Bft) S-SW 198 ° 0 min 0,000 mm 0,0 UV-I 0 W/m² 9,5 °C 10,9 °C 6,4 km/h (2 Bft)
25.10.2019 01:15 10,9 °C 91 % 1015,7 hPa 0,0 mm 4,6 km/h (1 Bft) S-SW 198 ° 0 min 0,000 mm 0,0 UV-I 0 W/m² 9,5 °C 10,9 °C 6,4 km/h (2 Bft)
25.10.2019 01:16 11,0 °C 91 % 1015,8 hPa 0,0 mm 1,1 km/h (1 Bft) S-SW 198 ° 0 min 0,000 mm 0,0 UV-I 0 W/m² 9,6 °C 11,0 °C 3,2 km/h (1 Bft)
25.10.2019 01:17 10,9 °C 91 % 1015,8 hPa 0,0 mm 2,7 km/h (1 Bft) S-SW 198 ° 0 min 0,000 mm 0,0 UV-I 0 W/m² 9,5 °C 10,9 °C 4,8 km/h (1 Bft)
25.10.2019 01:18 10,9 °C 91 % 1015,8 hPa 0,0 mm 0,1 km/h (0 Bft) S-SW 198 ° 0 min 0,000 mm 0,0 UV-I 0 W/m² 9,5 °C 10,9 °C 1,6 km/h (1 Bft)
25.10.2019 01:19 10,9 °C 91 % 1015,8 hPa 0,0 mm 1,3 km/h (1 Bft) S-SW 198 ° 0 min 0,000 mm 0,0 UV-I 0 W/m² 9,5 °C 10,9 °C 4,8 km/h (1 Bft)
25.10.2019 01:20 10,9 °C 91 % 1015,7 hPa 0,0 mm 6,6 km/h (2 Bft) S-SW 192 ° 0 min 0,000 mm 0,0 UV-I 0 W/m² 9,5 °C 10,9 °C 8,0 km/h (2 Bft)
25.10.2019 01:21 10,9 °C 91 % 1015,8 hPa 0,0 mm 4,0 km/h (1 Bft) S 191 ° 0 min 0,000 mm 0,0 UV-I 0 W/m² 9,5 °C 10,9 °C 4,8 km/h (1 Bft)
25.10.2019 01:22 10,9 °C 91 % 1015,8 hPa 0,0 mm 3,2 km/h (1 Bft) S 190 ° 0 min 0,000 mm 0,0 UV-I 0 W/m² 9,5 °C 10,9 °C 4,8 km/h (1 Bft)
25.10.2019 01:23 10,9 °C 91 % 1015,8 hPa 0,0 mm 1,3 km/h (1 Bft) S 189 ° 0 min 0,000 mm 0,0 UV-I 0 W/m² 9,5 °C 10,9 °C 3,2 km/h (1 Bft)
25.10.2019 01:24 10,9 °C 91 % 1015,8 hPa 0,0 mm 3,6 km/h (1 Bft) S-SW 193 ° 0 min 0,000 mm 0,0 UV-I 0 W/m² 9,5 °C 10,9 °C 6,4 km/h (2 Bft)
25.10.2019 01:25 10,9 °C 91 % 1015,8 hPa 0,0 mm 2,7 km/h (1 Bft) S-SW 206 ° 0 min 0,000 mm 0,0 UV-I 0 W/m² 9,5 °C 10,9 °C 4,8 km/h (1 Bft)
25.10.2019 01:26 10,9 °C 91 % 1015,8 hPa 0,0 mm 1,1 km/h (1 Bft) S-SW 206 ° 0 min 0,000 mm 0,0 UV-I 0 W/m² 9,5 °C 10,9 °C 3,2 km/h (1 Bft)
25.10.2019 01:27 10,9 °C 91 % 1015,8 hPa 0,0 mm 1,5 km/h (1 Bft) SW 214 ° 0 min 0,000 mm 0,0 UV-I 0 W/m² 9,5 °C 10,9 °C 6,4 km/h (2 Bft)
25.10.2019 01:28 10,9 °C 91 % 1015,9 hPa 0,0 mm 2,3 km/h (1 Bft) SW 214 ° 0 min 0,000 mm 0,0 UV-I 0 W/m² 9,5 °C 10,9 °C 6,4 km/h (2 Bft)
25.10.2019 01:29 10,9 °C 91 % 1015,8 hPa 0,0 mm 4,3 km/h (1 Bft) S-SW 213 ° 0 min 0,000 mm 0,0 UV-I 0 W/m² 9,5 °C 10,9 °C 6,4 km/h (2 Bft)
25.10.2019 01:30 10,9 °C 91 % 1015,8 hPa 0,0 mm 2,9 km/h (1 Bft) S-SW 213 ° 0 min 0,000 mm 0,0 UV-I 0 W/m² 9,5 °C 10,9 °C 4,8 km/h (1 Bft)
25.10.2019 01:31 10,9 °C 91 % 1015,9 hPa 0,0 mm 1,7 km/h (1 Bft) S-SW 213 ° 0 min 0,000 mm 0,0 UV-I 0 W/m² 9,5 °C 10,9 °C 3,2 km/h (1 Bft)
25.10.2019 01:32 10,9 °C 91 % 1015,9 hPa 0,0 mm 0,5 km/h (0 Bft) S-SW 213 ° 0 min 0,000 mm 0,0 UV-I 0 W/m² 9,5 °C 10,9 °C 3,2 km/h (1 Bft)
25.10.2019 01:33 10,9 °C 91 % 1015,9 hPa 0,0 mm 0,0 km/h (0 Bft) S-SW 213 ° 0 min 0,000 mm 0,0 UV-I 0 W/m² 9,5 °C 10,9 °C 0,0 km/h (0 Bft)
25.10.2019 01:34 10,9 °C 91 % 1015,9 hPa 0,0 mm 0,0 km/h (0 Bft) S-SW 213 ° 0 min 0,000 mm 0,0 UV-I 0 W/m² 9,5 °C 10,9 °C 0,0 km/h (0 Bft)
25.10.2019 01:35 10,8 °C 91 % 1015,9 hPa 0,0 mm 0,0 km/h (0 Bft) S-SW 213 ° 0 min 0,000 mm 0,0 UV-I 0 W/m² 9,4 °C 10,8 °C 0,0 km/h (0 Bft)
25.10.2019 01:36 10,9 °C 90 % 1015,9 hPa 0,0 mm 0,5 km/h (0 Bft) S-SW 213 ° 0 min 0,000 mm 0,0 UV-I 0 W/m² 9,3 °C 10,9 °C 1,6 km/h (1 Bft)
25.10.2019 01:37 10,8 °C 91 % 1015,9 hPa 0,0 mm 0,0 km/h (0 Bft) S-SW 213 ° 0 min 0,000 mm 0,0 UV-I 0 W/m² 9,4 °C 10,8 °C 0,0 km/h (0 Bft)
25.10.2019 01:38 10,8 °C 91 % 1015,8 hPa 0,0 mm 0,0 km/h (0 Bft) S-SW 213 ° 0 min 0,000 mm 0,0 UV-I 0 W/m² 9,4 °C 10,8 °C 0,0 km/h (0 Bft)
25.10.2019 01:39 10,9 °C 91 % 1015,9 hPa 0,0 mm 1,9 km/h (1 Bft) S-SW 213 ° 0 min 0,000 mm 0,0 UV-I 0 W/m² 9,5 °C 10,9 °C 3,2 km/h (1 Bft)
25.10.2019 01:40 10,9 °C 91 % 1015,9 hPa 0,0 mm 1,3 km/h (1 Bft) S-SW 213 ° 0 min 0,000 mm 0,0 UV-I 0 W/m² 9,5 °C 10,9 °C 3,2 km/h (1 Bft)
25.10.2019 01:41 10,9 °C 91 % 1015,9 hPa 0,0 mm 2,9 km/h (1 Bft) S-SW 213 ° 0 min 0,000 mm 0,0 UV-I 0 W/m² 9,5 °C 10,9 °C 4,8 km/h (1 Bft)
25.10.2019 01:42 10,9 °C 91 % 1015,8 hPa 0,0 mm 2,4 km/h (1 Bft) S-SW 213 ° 0 min 0,000 mm 0,0 UV-I 0 W/m² 9,5 °C 10,9 °C 4,8 km/h (1 Bft)
25.10.2019 01:43 10,9 °C 91 % 1015,8 hPa 0,0 mm 2,6 km/h (1 Bft) S-SW 213 ° 0 min 0,000 mm 0,0 UV-I 0 W/m² 9,5 °C 10,9 °C 4,8 km/h (1 Bft)
25.10.2019 01:44 10,9 °C 91 % 1015,8 hPa 0,0 mm 2,3 km/h (1 Bft) S-SW 213 ° 0 min 0,000 mm 0,0 UV-I 0 W/m² 9,5 °C 10,9 °C 6,4 km/h (2 Bft)
25.10.2019 01:45 10,9 °C 91 % 1015,8 hPa 0,0 mm 2,5 km/h (1 Bft) S-SW 213 ° 0 min 0,000 mm 0,0 UV-I 0 W/m² 9,5 °C 10,9 °C 4,8 km/h (1 Bft)
25.10.2019 01:46 10,9 °C 91 % 1015,9 hPa 0,0 mm 0,5 km/h (0 Bft) S-SW 213 ° 0 min 0,000 mm 0,0 UV-I 0 W/m² 9,5 °C 10,9 °C 3,2 km/h (1 Bft)
25.10.2019 01:47 10,9 °C 91 % 1015,8 hPa 0,0 mm 0,8 km/h (0 Bft) S-SW 213 ° 0 min 0,000 mm 0,0 UV-I 0 W/m² 9,5 °C 10,9 °C 1,6 km/h (1 Bft)
25.10.2019 01:48 10,9 °C 91 % 1015,8 hPa 0,0 mm 0,3 km/h (0 Bft) S-SW 213 ° 0 min 0,000 mm 0,0 UV-I 0 W/m² 9,5 °C 10,9 °C 1,6 km/h (1 Bft)
25.10.2019 01:49 10,9 °C 91 % 1015,8 hPa 0,0 mm 0,0 km/h (0 Bft) S-SW 213 ° 0 min 0,000 mm 0,0 UV-I 0 W/m² 9,5 °C 10,9 °C 0,0 km/h (0 Bft)
25.10.2019 01:50 10,9 °C 91 % 1015,8 hPa 0,0 mm 1,5 km/h (1 Bft) S-SW 213 ° 0 min 0,000 mm 0,0 UV-I 0 W/m² 9,5 °C 10,9 °C 4,8 km/h (1 Bft)
25.10.2019 01:51 10,9 °C 90 % 1015,9 hPa 0,0 mm 1,2 km/h (1 Bft) S-SW 213 ° 0 min 0,000 mm 0,0 UV-I 0 W/m² 9,3 °C 10,9 °C 3,2 km/h (1 Bft)
25.10.2019 01:52 10,9 °C 90 % 1015,9 hPa 0,0 mm 0,2 km/h (0 Bft) S-SW 213 ° 0 min 0,000 mm 0,0 UV-I 0 W/m² 9,3 °C 10,9 °C 1,6 km/h (1 Bft)
25.10.2019 01:53 10,9 °C 90 % 1015,9 hPa 0,0 mm 0,0 km/h (0 Bft) S-SW 213 ° 0 min 0,000 mm 0,0 UV-I 0 W/m² 9,3 °C 10,9 °C 0,0 km/h (0 Bft)
25.10.2019 01:54 10,8 °C 90 % 1015,9 hPa 0,0 mm 0,0 km/h (0 Bft) S-SW 213 ° 0 min 0,000 mm 0,0 UV-I 0 W/m² 9,2 °C 10,8 °C 0,0 km/h (0 Bft)
25.10.2019 01:55 10,8 °C 90 % 1015,9 hPa 0,0 mm 0,0 km/h (0 Bft) S-SW 213 ° 0 min 0,000 mm 0,0 UV-I 0 W/m² 9,2 °C 10,8 °C 0,0 km/h (0 Bft)
25.10.2019 01:56 10,9 °C 90 % 1015,9 hPa 0,0 mm 0,0 km/h (0 Bft) S-SW 213 ° 0 min 0,000 mm 0,0 UV-I 0 W/m² 9,3 °C 10,9 °C 0,0 km/h (0 Bft)
25.10.2019 01:57 10,8 °C 90 % 1015,9 hPa 0,0 mm 0,0 km/h (0 Bft) S-SW 213 ° 0 min 0,000 mm 0,0 UV-I 0 W/m² 9,2 °C 10,8 °C 0,0 km/h (0 Bft)
25.10.2019 01:58 10,8 °C 90 % 1015,9 hPa 0,0 mm 0,0 km/h (0 Bft) S-SW 213 ° 0 min 0,000 mm 0,0 UV-I 0 W/m² 9,2 °C 10,8 °C 0,0 km/h (0 Bft)
25.10.2019 01:59 10,8 °C 90 % 1015,9 hPa 0,0 mm 0,0 km/h (0 Bft) S-SW 213 ° 0 min 0,000 mm 0,0 UV-I 0 W/m² 9,2 °C 10,8 °C 0,0 km/h (0 Bft)
25.10.2019 02:00 10,8 °C 90 % 1016,0 hPa 0,0 mm 0,0 km/h (0 Bft) S-SW 213 ° 0 min 0,000 mm 0,0 UV-I 0 W/m² 9,2 °C 10,8 °C 0,0 km/h (0 Bft)
25.10.2019 02:01 10,8 °C 90 % 1015,9 hPa 0,0 mm 0,0 km/h (0 Bft) S-SW 213 ° 0 min 0,000 mm 0,0 UV-I 0 W/m² 9,2 °C 10,8 °C 0,0 km/h (0 Bft)
25.10.2019 02:02 10,7 °C 90 % 1016,0 hPa 0,0 mm 0,0 km/h (0 Bft) S-SW 213 ° 0 min 0,000 mm 0,0 UV-I 0 W/m² 9,1 °C 10,7 °C 0,0 km/h (0 Bft)
25.10.2019 02:03 10,7 °C 90 % 1016,0 hPa 0,0 mm 0,0 km/h (0 Bft) S-SW 213 ° 0 min 0,000 mm 0,0 UV-I 0 W/m² 9,1 °C 10,7 °C 0,0 km/h (0 Bft)
25.10.2019 02:04 10,7 °C 90 % 1016,0 hPa 0,0 mm 0,0 km/h (0 Bft) S-SW 213 ° 0 min 0,000 mm 0,0 UV-I 0 W/m² 9,1 °C 10,7 °C 0,0 km/h (0 Bft)
25.10.2019 02:05 10,7 °C 89 % 1016,0 hPa 0,0 mm 0,0 km/h (0 Bft) S-SW 213 ° 0 min 0,000 mm 0,0 UV-I 0 W/m² 9,0 °C 10,7 °C 0,0 km/h (0 Bft)
25.10.2019 02:06 10,7 °C 89 % 1016,0 hPa 0,0 mm 0,0 km/h (0 Bft) S-SW 213 ° 0 min 0,000 mm 0,0 UV-I 0 W/m² 9,0 °C 10,7 °C 0,0 km/h (0 Bft)
25.10.2019 02:07 10,6 °C 89 % 1016,0 hPa 0,0 mm 0,0 km/h (0 Bft) S-SW 213 ° 0 min 0,000 mm 0,0 UV-I 0 W/m² 8,9 °C 10,6 °C 0,0 km/h (0 Bft)
25.10.2019 02:08 10,6 °C 89 % 1016,0 hPa 0,0 mm 0,0 km/h (0 Bft) S-SW 213 ° 0 min 0,000 mm 0,0 UV-I 0 W/m² 8,9 °C 10,6 °C 0,0 km/h (0 Bft)
25.10.2019 02:09 10,6 °C 89 % 1016,0 hPa 0,0 mm 0,0 km/h (0 Bft) S-SW 213 ° 0 min 0,000 mm 0,0 UV-I 0 W/m² 8,9 °C 10,6 °C 0,0 km/h (0 Bft)
25.10.2019 02:10 10,6 °C 89 % 1016,1 hPa 0,0 mm 0,0 km/h (0 Bft) S-SW 213 ° 0 min 0,000 mm 0,0 UV-I 0 W/m² 8,9 °C 10,6 °C 0,0 km/h (0 Bft)
25.10.2019 02:11 10,6 °C 89 % 1016,0 hPa 0,0 mm 0,0 km/h (0 Bft) S-SW 213 ° 0 min 0,000 mm 0,0 UV-I 0 W/m² 8,9 °C 10,6 °C 0,0 km/h (0 Bft)
25.10.2019 02:12 10,5 °C 89 % 1016,2 hPa 0,0 mm 0,0 km/h (0 Bft) S-SW 213 ° 0 min 0,000 mm 0,0 UV-I 0 W/m² 8,8 °C 10,5 °C 0,0 km/h (0 Bft)
25.10.2019 02:13 10,5 °C 89 % 1016,2 hPa 0,0 mm 0,0 km/h (0 Bft) S-SW 213 ° 0 min 0,000 mm 0,0 UV-I 0 W/m² 8,8 °C 10,5 °C 0,0 km/h (0 Bft)
25.10.2019 02:14 10,4 °C 89 % 1016,2 hPa 0,0 mm 0,0 km/h (0 Bft) S-SW 213 ° 0 min 0,000 mm 0,0 UV-I 0 W/m² 8,7 °C 10,4 °C 0,0 km/h (0 Bft)
25.10.2019 02:15 10,4 °C 89 % 1016,2 hPa 0,0 mm 0,0 km/h (0 Bft) S-SW 213 ° 0 min 0,000 mm 0,0 UV-I 0 W/m² 8,7 °C 10,4 °C 0,0 km/h (0 Bft)
25.10.2019 02:16 10,4 °C 89 % 1016,2 hPa 0,0 mm 0,0 km/h (0 Bft) S-SW 213 ° 0 min 0,000 mm 0,0 UV-I 0 W/m² 8,7 °C 10,4 °C 0,0 km/h (0 Bft)
25.10.2019 02:17 10,4 °C 89 % 1016,3 hPa 0,0 mm 0,0 km/h (0 Bft) S-SW 213 ° 0 min 0,000 mm 0,0 UV-I 0 W/m² 8,7 °C 10,4 °C 0,0 km/h (0 Bft)
25.10.2019 02:18 10,4 °C 89 % 1016,3 hPa 0,0 mm 0,0 km/h (0 Bft) S-SW 213 ° 0 min 0,000 mm 0,0 UV-I 0 W/m² 8,7 °C 10,4 °C 0,0 km/h (0 Bft)
25.10.2019 02:19 10,3 °C 89 % 1016,2 hPa 0,0 mm 0,0 km/h (0 Bft) S-SW 213 ° 0 min 0,000 mm 0,0 UV-I 0 W/m² 8,6 °C 10,3 °C 0,0 km/h (0 Bft)
25.10.2019 02:20 10,3 °C 89 % 1016,3 hPa 0,0 mm 0,0 km/h (0 Bft) S-SW 213 ° 0 min 0,000 mm 0,0 UV-I 0 W/m² 8,6 °C 10,3 °C 0,0 km/h (0 Bft)
25.10.2019 02:21 10,3 °C 89 % 1016,3 hPa 0,0 mm 0,0 km/h (0 Bft) S-SW 213 ° 0 min 0,000 mm 0,0 UV-I 0 W/m² 8,6 °C 10,3 °C 0,0 km/h (0 Bft)
25.10.2019 02:22 10,3 °C 89 % 1016,2 hPa 0,0 mm 0,0 km/h (0 Bft) S-SW 213 ° 0 min 0,000 mm 0,0 UV-I 0 W/m² 8,6 °C 10,3 °C 0,0 km/h (0 Bft)
25.10.2019 02:23 10,2 °C 89 % 1016,3 hPa 0,0 mm 0,0 km/h (0 Bft) S-SW 213 ° 0 min 0,000 mm 0,0 UV-I 0 W/m² 8,5 °C 10,2 °C 0,0 km/h (0 Bft)
25.10.2019 02:24 10,3 °C 89 % 1016,3 hPa 0,0 mm 0,0 km/h (0 Bft) S-SW 213 ° 0 min 0,000 mm 0,0 UV-I 0 W/m² 8,6 °C 10,3 °C 0,0 km/h (0 Bft)
25.10.2019 02:25 10,2 °C 89 % 1016,3 hPa 0,0 mm 0,0 km/h (0 Bft) S-SW 213 ° 0 min 0,000 mm 0,0 UV-I 0 W/m² 8,5 °C 10,2 °C 0,0 km/h (0 Bft)
25.10.2019 02:26 10,2 °C 89 % 1016,3 hPa 0,0 mm 0,0 km/h (0 Bft) S-SW 213 ° 0 min 0,000 mm 0,0 UV-I 0 W/m² 8,5 °C 10,2 °C 0,0 km/h (0 Bft)
25.10.2019 02:27 10,2 °C 89 % 1016,4 hPa 0,0 mm 0,0 km/h (0 Bft) S-SW 213 ° 0 min 0,000 mm 0,0 UV-I 0 W/m² 8,5 °C 10,2 °C 0,0 km/h (0 Bft)
25.10.2019 02:28 10,2 °C 89 % 1016,4 hPa 0,0 mm 0,0 km/h (0 Bft) S-SW 213 ° 0 min 0,000 mm 0,0 UV-I 0 W/m² 8,5 °C 10,2 °C 0,0 km/h (0 Bft)
25.10.2019 02:29 10,1 °C 89 % 1016,4 hPa 0,0 mm 0,0 km/h (0 Bft) S-SW 213 ° 0 min 0,000 mm 0,0 UV-I 0 W/m² 8,4 °C 10,1 °C 0,0 km/h (0 Bft)
25.10.2019 02:30 10,1 °C 89 % 1016,4 hPa 0,0 mm 0,0 km/h (0 Bft) S-SW 213 ° 0 min 0,000 mm 0,0 UV-I 0 W/m² 8,4 °C 10,1 °C 0,0 km/h (0 Bft)
25.10.2019 02:31 10,1 °C 90 % 1016,5 hPa 0,0 mm 0,0 km/h (0 Bft) S-SW 213 ° 0 min 0,000 mm 0,0 UV-I 0 W/m² 8,5 °C 10,1 °C 0,0 km/h (0 Bft)
25.10.2019 02:32 10,1 °C 90 % 1016,5 hPa 0,0 mm 0,0 km/h (0 Bft) S-SW 213 ° 0 min 0,000 mm 0,0 UV-I 0 W/m² 8,5 °C 10,1 °C 0,0 km/h (0 Bft)
25.10.2019 02:33 10,1 °C 90 % 1016,5 hPa 0,0 mm 1,2 km/h (1 Bft) S-SW 213 ° 0 min 0,000 mm 0,0 UV-I 0 W/m² 8,5 °C 10,1 °C 3,2 km/h (1 Bft)
25.10.2019 02:34 10,1 °C 90 % 1016,6 hPa 0,0 mm 1,5 km/h (1 Bft) S-SW 213 ° 0 min 0,000 mm 0,0 UV-I 0 W/m² 8,5 °C 10,1 °C 3,2 km/h (1 Bft)
25.10.2019 02:35 10,1 °C 90 % 1016,6 hPa 0,0 mm 0,0 km/h (0 Bft) S-SW 213 ° 0 min 0,000 mm 0,0 UV-I 0 W/m² 8,5 °C 10,1 °C 0,0 km/h (0 Bft)
25.10.2019 02:36 10,1 °C 90 % 1016,6 hPa 0,0 mm 0,1 km/h (0 Bft) S-SW 213 ° 0 min 0,000 mm 0,0 UV-I 0 W/m² 8,5 °C 10,1 °C 1,6 km/h (1 Bft)
25.10.2019 02:37 10,0 °C 90 % 1016,6 hPa 0,0 mm 2,9 km/h (1 Bft) S-SW 213 ° 0 min 0,000 mm 0,0 UV-I 0 W/m² 8,4 °C 10,0 °C 4,8 km/h (1 Bft)
25.10.2019 02:38 10,0 °C 90 % 1016,6 hPa 0,0 mm 1,9 km/h (1 Bft) S-SW 213 ° 0 min 0,000 mm 0,0 UV-I 0 W/m² 8,4 °C 10,0 °C 3,2 km/h (1 Bft)
25.10.2019 02:39 10,0 °C 90 % 1016,6 hPa 0,0 mm 0,0 km/h (0 Bft) S-SW 213 ° 0 min 0,000 mm 0,0 UV-I 0 W/m² 8,4 °C 10,0 °C 0,0 km/h (0 Bft)
25.10.2019 02:40 9,9 °C 90 % 1016,7 hPa 0,0 mm 0,4 km/h (0 Bft) S-SW 213 ° 0 min 0,000 mm 0,0 UV-I 0 W/m² 8,3 °C 9,9 °C 3,2 km/h (1 Bft)
25.10.2019 02:41 9,9 °C 90 % 1016,6 hPa 0,0 mm 1,9 km/h (1 Bft) S-SW 213 ° 0 min 0,000 mm 0,0 UV-I 0 W/m² 8,3 °C 9,9 °C 3,2 km/h (1 Bft)
25.10.2019 02:42 10,0 °C 91 % 1016,7 hPa 0,0 mm 0,1 km/h (0 Bft) S-SW 213 ° 0 min 0,000 mm 0,0 UV-I 0 W/m² 8,6 °C 10,0 °C 1,6 km/h (1 Bft)
25.10.2019 02:43 10,0 °C 91 % 1016,7 hPa 0,0 mm 0,0 km/h (0 Bft) S-SW 213 ° 0 min 0,000 mm 0,0 UV-I 0 W/m² 8,6 °C 10,0 °C 0,0 km/h (0 Bft)
25.10.2019 02:44 10,0 °C 91 % 1016,7 hPa 0,0 mm 0,0 km/h (0 Bft) S-SW 213 ° 0 min 0,000 mm 0,0 UV-I 0 W/m² 8,6 °C 10,0 °C 0,0 km/h (0 Bft)
25.10.2019 02:45 10,0 °C 91 % 1016,7 hPa 0,0 mm 1,3 km/h (1 Bft) S-SW 213 ° 0 min 0,000 mm 0,0 UV-I 0 W/m² 8,6 °C 10,0 °C 4,8 km/h (1 Bft)
25.10.2019 02:46 10,0 °C 91 % 1016,6 hPa 0,0 mm 0,1 km/h (0 Bft) S-SW 213 ° 0 min 0,000 mm 0,0 UV-I 0 W/m² 8,6 °C 10,0 °C 1,6 km/h (1 Bft)
25.10.2019 02:47 10,0 °C 91 % 1016,7 hPa 0,0 mm 0,5 km/h (0 Bft) S-SW 213 ° 0 min 0,000 mm 0,0 UV-I 0 W/m² 8,6 °C 10,0 °C 3,2 km/h (1 Bft)
25.10.2019 02:48 10,1 °C 91 % 1016,6 hPa 0,0 mm 2,7 km/h (1 Bft) S-SW 213 ° 0 min 0,000 mm 0,0 UV-I 0 W/m² 8,7 °C 10,1 °C 8,0 km/h (2 Bft)
25.10.2019 02:49 10,1 °C 91 % 1016,6 hPa 0,0 mm 0,3 km/h (0 Bft) S-SW 213 ° 0 min 0,000 mm 0,0 UV-I 0 W/m² 8,7 °C 10,1 °C 1,6 km/h (1 Bft)
25.10.2019 02:50 10,1 °C 92 % 1016,6 hPa 0,0 mm 2,5 km/h (1 Bft) S-SW 213 ° 0 min 0,000 mm 0,0 UV-I 0 W/m² 8,9 °C 10,1 °C 4,8 km/h (1 Bft)
25.10.2019 02:51 10,2 °C 92 % 1016,7 hPa 0,0 mm 2,6 km/h (1 Bft) S-SW 213 ° 0 min 0,000 mm 0,0 UV-I 0 W/m² 9,0 °C 10,2 °C 4,8 km/h (1 Bft)
25.10.2019 02:52 10,2 °C 92 % 1016,7 hPa 0,0 mm 1,0 km/h (0 Bft) S-SW 213 ° 0 min 0,000 mm 0,0 UV-I 0 W/m² 9,0 °C 10,2 °C 3,2 km/h (1 Bft)
25.10.2019 02:53 10,3 °C 92 % 1016,7 hPa 0,0 mm 1,7 km/h (1 Bft) S-SW 213 ° 0 min 0,000 mm 0,0 UV-I 0 W/m² 9,1 °C 10,3 °C 4,8 km/h (1 Bft)
25.10.2019 02:54 10,3 °C 92 % 1016,7 hPa 0,0 mm 1,3 km/h (1 Bft) S-SW 213 ° 0 min 0,000 mm 0,0 UV-I 0 W/m² 9,1 °C 10,3 °C 4,8 km/h (1 Bft)
25.10.2019 02:55 10,4 °C 92 % 1016,7 hPa 0,0 mm 0,2 km/h (0 Bft) S-SW 213 ° 0 min 0,000 mm 0,0 UV-I 0 W/m² 9,2 °C 10,4 °C 1,6 km/h (1 Bft)
25.10.2019 02:56 10,4 °C 92 % 1016,7 hPa 0,0 mm 1,7 km/h (1 Bft) S-SW 213 ° 0 min 0,000 mm 0,0 UV-I 0 W/m² 9,2 °C 10,4 °C 3,2 km/h (1 Bft)
25.10.2019 02:57 10,4 °C 92 % 1016,7 hPa 0,0 mm 0,4 km/h (0 Bft) S-SW 213 ° 0 min 0,000 mm 0,0 UV-I 0 W/m² 9,2 °C 10,4 °C 1,6 km/h (1 Bft)
25.10.2019 02:58 10,4 °C 92 % 1016,7 hPa 0,0 mm 0,9 km/h (0 Bft) S-SW 213 ° 0 min 0,000 mm 0,0 UV-I 0 W/m² 9,2 °C 10,4 °C 4,8 km/h (1 Bft)
25.10.2019 02:59 10,5 °C 92 % 1016,7 hPa 0,0 mm 3,0 km/h (1 Bft) S-SW 213 ° 0 min 0,000 mm 0,0 UV-I 0 W/m² 9,3 °C 10,5 °C 4,8 km/h (1 Bft)
25.10.2019 03:00 10,6 °C 92 % 1016,7 hPa 0,0 mm 2,3 km/h (1 Bft) S-SW 213 ° 0 min 0,000 mm 0,0 UV-I 0 W/m² 9,4 °C 10,6 °C 4,8 km/h (1 Bft)
25.10.2019 03:01 10,6 °C 92 % 1016,7 hPa 0,0 mm 0,0 km/h (0 Bft) S-SW 213 ° 0 min 0,000 mm 0,0 UV-I 0 W/m² 9,4 °C 10,6 °C 0,0 km/h (0 Bft)
25.10.2019 03:02 10,6 °C 92 % 1016,7 hPa 0,0 mm 0,0 km/h (0 Bft) S-SW 213 ° 0 min 0,000 mm 0,0 UV-I 0 W/m² 9,4 °C 10,6 °C 0,0 km/h (0 Bft)
25.10.2019 03:03 10,6 °C 92 % 1016,7 hPa 0,0 mm 0,0 km/h (0 Bft) S-SW 213 ° 0 min 0,000 mm 0,0 UV-I 0 W/m² 9,4 °C 10,6 °C 0,0 km/h (0 Bft)
25.10.2019 03:04 10,6 °C 92 % 1016,8 hPa 0,0 mm 0,0 km/h (0 Bft) S-SW 213 ° 0 min 0,000 mm 0,0 UV-I 0 W/m² 9,4 °C 10,6 °C 0,0 km/h (0 Bft)
25.10.2019 03:05 10,6 °C 92 % 1016,8 hPa 0,0 mm 0,1 km/h (0 Bft) S-SW 213 ° 0 min 0,000 mm 0,0 UV-I 0 W/m² 9,4 °C 10,6 °C 1,6 km/h (1 Bft)
25.10.2019 03:06 10,6 °C 92 % 1016,8 hPa 0,0 mm 0,0 km/h (0 Bft) S-SW 213 ° 0 min 0,000 mm 0,0 UV-I 0 W/m² 9,4 °C 10,6 °C 0,0 km/h (0 Bft)
25.10.2019 03:07 10,6 °C 92 % 1016,8 hPa 0,0 mm 0,0 km/h (0 Bft) S-SW 213 ° 0 min 0,000 mm 0,0 UV-I 0 W/m² 9,4 °C 10,6 °C 0,0 km/h (0 Bft)
25.10.2019 03:08 10,6 °C 92 % 1016,8 hPa 0,0 mm 0,0 km/h (0 Bft) S-SW 213 ° 0 min 0,000 mm 0,0 UV-I 0 W/m² 9,4 °C 10,6 °C 0,0 km/h (0 Bft)
25.10.2019 03:09 10,6 °C 92 % 1016,8 hPa 0,0 mm 0,0 km/h (0 Bft) S-SW 213 ° 0 min 0,000 mm 0,0 UV-I 0 W/m² 9,4 °C 10,6 °C 0,0 km/h (0 Bft)
25.10.2019 03:10 10,6 °C 92 % 1016,8 hPa 0,0 mm 0,0 km/h (0 Bft) S-SW 213 ° 0 min 0,000 mm 0,0 UV-I 0 W/m² 9,4 °C 10,6 °C 0,0 km/h (0 Bft)
25.10.2019 03:11 10,6 °C 92 % 1016,8 hPa 0,0 mm 0,2 km/h (0 Bft) S-SW 213 ° 0 min 0,000 mm 0,0 UV-I 0 W/m² 9,4 °C 10,6 °C 1,6 km/h (1 Bft)
25.10.2019 03:12 10,6 °C 92 % 1016,8 hPa 0,0 mm 3,2 km/h (1 Bft) S-SW 213 ° 0 min 0,000 mm 0,0 UV-I 0 W/m² 9,4 °C 10,6 °C 6,4 km/h (2 Bft)
25.10.2019 03:13 10,6 °C 92 % 1016,9 hPa 0,0 mm 5,3 km/h (1 Bft) S-SW 196 ° 0 min 0,000 mm 0,0 UV-I 0 W/m² 9,4 °C 10,6 °C 8,0 km/h (2 Bft)
25.10.2019 03:14 10,7 °C 92 % 1016,9 hPa 0,0 mm 4,8 km/h (1 Bft) S-SW 192 ° 0 min 0,000 mm 0,0 UV-I 0 W/m² 9,5 °C 10,7 °C 6,4 km/h (2 Bft)
25.10.2019 03:15 10,7 °C 92 % 1016,9 hPa 0,0 mm 4,8 km/h (1 Bft) S-SW 192 ° 0 min 0,000 mm 0,0 UV-I 0 W/m² 9,5 °C 10,7 °C 6,4 km/h (2 Bft)
25.10.2019 03:16 10,7 °C 92 % 1016,9 hPa 0,0 mm 5,1 km/h (1 Bft) S-SW 211 ° 0 min 0,000 mm 0,0 UV-I 0 W/m² 9,5 °C 10,7 °C 6,4 km/h (2 Bft)
25.10.2019 03:17 10,7 °C 92 % 1016,9 hPa 0,0 mm 1,7 km/h (1 Bft) S-SW 211 ° 0 min 0,000 mm 0,0 UV-I 0 W/m² 9,5 °C 10,7 °C 3,2 km/h (1 Bft)
25.10.2019 03:18 10,8 °C 92 % 1016,9 hPa 0,0 mm 2,4 km/h (1 Bft) SW 215 ° 0 min 0,000 mm 0,0 UV-I 0 W/m² 9,6 °C 10,8 °C 3,2 km/h (1 Bft)
25.10.2019 03:19 10,8 °C 92 % 1016,9 hPa 0,0 mm 1,6 km/h (1 Bft) SW 215 ° 0 min 0,000 mm 0,0 UV-I 0 W/m² 9,6 °C 10,8 °C 3,2 km/h (1 Bft)
25.10.2019 03:20 10,8 °C 92 % 1016,9 hPa 0,0 mm 3,0 km/h (1 Bft) SW 217 ° 0 min 0,000 mm 0,0 UV-I 0 W/m² 9,6 °C 10,8 °C 6,4 km/h (2 Bft)
25.10.2019 03:21 10,8 °C 92 % 1016,9 hPa 0,0 mm 4,1 km/h (1 Bft) SW 220 ° 0 min 0,000 mm 0,0 UV-I 0 W/m² 9,6 °C 10,8 °C 6,4 km/h (2 Bft)
25.10.2019 03:22 10,9 °C 92 % 1016,9 hPa 0,0 mm 1,3 km/h (1 Bft) SW 220 ° 0 min 0,000 mm 0,0 UV-I 0 W/m² 9,7 °C 10,9 °C 4,8 km/h (1 Bft)
25.10.2019 03:23 10,9 °C 92 % 1016,9 hPa 0,0 mm 2,3 km/h (1 Bft) SW 221 ° 0 min 0,000 mm 0,0 UV-I 0 W/m² 9,7 °C 10,9 °C 4,8 km/h (1 Bft)
25.10.2019 03:24 10,9 °C 92 % 1016,9 hPa 0,0 mm 7,3 km/h (2 Bft) W 265 ° 0 min 0,000 mm 0,0 UV-I 0 W/m² 9,7 °C 10,9 °C 11,3 km/h (2 Bft)
25.10.2019 03:25 11,0 °C 91 % 1016,9 hPa 0,0 mm 4,3 km/h (1 Bft) W 265 ° 0 min 0,000 mm 0,0 UV-I 0 W/m² 9,6 °C 11,0 °C 9,7 km/h (2 Bft)
25.10.2019 03:26 11,0 °C 91 % 1016,9 hPa 0,0 mm 3,5 km/h (1 Bft) W 265 ° 0 min 0,000 mm 0,0 UV-I 0 W/m² 9,6 °C 11,0 °C 9,7 km/h (2 Bft)
25.10.2019 03:27 11,0 °C 91 % 1016,9 hPa 0,0 mm 3,6 km/h (1 Bft) W 273 ° 0 min 0,000 mm 0,0 UV-I 0 W/m² 9,6 °C 11,0 °C 4,8 km/h (1 Bft)
25.10.2019 03:28 11,1 °C 91 % 1016,9 hPa 0,0 mm 6,4 km/h (2 Bft) W-SW 250 ° 0 min 0,000 mm 0,0 UV-I 0 W/m² 9,7 °C 11,1 °C 9,7 km/h (2 Bft)
25.10.2019 03:29 11,1 °C 91 % 1016,9 hPa 0,0 mm 6,2 km/h (2 Bft) W 273 ° 0 min 0,000 mm 0,0 UV-I 0 W/m² 9,7 °C 11,1 °C 14,5 km/h (3 Bft)
25.10.2019 03:30 11,1 °C 91 % 1016,9 hPa 0,0 mm 9,3 km/h (2 Bft) W 261 ° 0 min 0,000 mm 0,0 UV-I 0 W/m² 9,7 °C 11,1 °C 12,9 km/h (3 Bft)
25.10.2019 03:31 11,2 °C 91 % 1016,9 hPa 0,0 mm 9,1 km/h (2 Bft) W 261 ° 0 min 0,000 mm 0,0 UV-I 0 W/m² 9,8 °C 11,2 °C 14,5 km/h (3 Bft)
25.10.2019 03:32 11,2 °C 91 % 1016,9 hPa 0,0 mm 5,7 km/h (1 Bft) SW 230 ° 0 min 0,000 mm 0,0 UV-I 0 W/m² 9,8 °C 11,2 °C 12,9 km/h (3 Bft)
25.10.2019 03:33 11,2 °C 91 % 1016,9 hPa 0,0 mm 6,1 km/h (2 Bft) NW 319 ° 0 min 0,000 mm 0,0 UV-I 0 W/m² 9,8 °C 11,2 °C 12,9 km/h (3 Bft)
25.10.2019 03:34 11,2 °C 91 % 1016,9 hPa 0,0 mm 9,5 km/h (2 Bft) SW 236 ° 0 min 0,000 mm 0,0 UV-I 0 W/m² 9,8 °C 11,2 °C 16,1 km/h (3 Bft)
25.10.2019 03:35 11,2 °C 91 % 1016,9 hPa 0,0 mm 12,2 km/h (2 Bft) W-SW 251 ° 0 min 0,000 mm 0,0 UV-I 0 W/m² 9,8 °C 11,2 °C 14,5 km/h (3 Bft)
25.10.2019 03:36 11,3 °C 91 % 1017,0 hPa 0,0 mm 9,9 km/h (2 Bft) SW 236 ° 0 min 0,000 mm 0,0 UV-I 0 W/m² 9,9 °C 11,3 °C 14,5 km/h (3 Bft)
25.10.2019 03:37 11,3 °C 91 % 1017,0 hPa 0,0 mm 7,8 km/h (2 Bft) W 259 ° 0 min 0,000 mm 0,0 UV-I 0 W/m² 9,9 °C 11,3 °C 14,5 km/h (3 Bft)
25.10.2019 03:38 11,3 °C 91 % 1016,9 hPa 0,0 mm 9,3 km/h (2 Bft) W 265 ° 0 min 0,000 mm 0,0 UV-I 0 W/m² 9,9 °C 11,3 °C 16,1 km/h (3 Bft)
25.10.2019 03:39 11,3 °C 91 % 1017,0 hPa 0,0 mm 6,7 km/h (2 Bft) W 265 ° 0 min 0,000 mm 0,0 UV-I 0 W/m² 9,9 °C 11,3 °C 9,7 km/h (2 Bft)
25.10.2019 03:40 11,3 °C 91 % 1017,0 hPa 0,0 mm 4,8 km/h (1 Bft) W-SW 253 ° 0 min 0,000 mm 0,0 UV-I 0 W/m² 9,9 °C 11,3 °C 9,7 km/h (2 Bft)
25.10.2019 03:41 11,4 °C 91 % 1017,0 hPa 0,0 mm 5,4 km/h (1 Bft) W 259 ° 0 min 0,000 mm 0,0 UV-I 0 W/m² 10,0 °C 11,4 °C 9,7 km/h (2 Bft)
25.10.2019 03:42 11,4 °C 91 % 1017,0 hPa 0,0 mm 8,7 km/h (2 Bft) W-SW 237 ° 0 min 0,000 mm 0,0 UV-I 0 W/m² 10,0 °C 11,4 °C 12,9 km/h (3 Bft)
25.10.2019 03:43 11,4 °C 91 % 1017,0 hPa 0,0 mm 7,5 km/h (2 Bft) W-SW 248 ° 0 min 0,000 mm 0,0 UV-I 0 W/m² 10,0 °C 11,4 °C 16,1 km/h (3 Bft)
25.10.2019 03:44 11,4 °C 90 % 1017,0 hPa 0,0 mm 7,6 km/h (2 Bft) SW 224 ° 0 min 0,000 mm 0,0 UV-I 0 W/m² 9,8 °C 11,4 °C 17,7 km/h (3 Bft)
25.10.2019 03:45 11,5 °C 90 % 1017,0 hPa 0,0 mm 4,8 km/h (1 Bft) W-SW 238 ° 0 min 0,000 mm 0,0 UV-I 0 W/m² 9,9 °C 11,5 °C 9,7 km/h (2 Bft)
25.10.2019 03:46 11,5 °C 90 % 1017,0 hPa 0,0 mm 6,7 km/h (2 Bft) W 265 ° 0 min 0,000 mm 0,0 UV-I 0 W/m² 9,9 °C 11,5 °C 11,3 km/h (2 Bft)
25.10.2019 03:47 11,5 °C 90 % 1017,0 hPa 0,0 mm 7,5 km/h (2 Bft) W 263 ° 0 min 0,000 mm 0,0 UV-I 0 W/m² 9,9 °C 11,5 °C 11,3 km/h (2 Bft)
25.10.2019 03:48 11,6 °C 90 % 1017,0 hPa 0,0 mm 10,3 km/h (2 Bft) W 263 ° 0 min 0,000 mm 0,0 UV-I 0 W/m² 10,0 °C 11,6 °C 16,1 km/h (3 Bft)
25.10.2019 03:49 11,6 °C 90 % 1017,0 hPa 0,0 mm 10,5 km/h (2 Bft) W 269 ° 0 min 0,000 mm 0,0 UV-I 0 W/m² 10,0 °C 11,6 °C 14,5 km/h (3 Bft)
25.10.2019 03:50 11,6 °C 90 % 1017,0 hPa 0,0 mm 6,6 km/h (2 Bft) W 259 ° 0 min 0,000 mm 0,0 UV-I 0 W/m² 10,0 °C 11,6 °C 11,3 km/h (2 Bft)
25.10.2019 03:51 11,6 °C 90 % 1016,9 hPa 0,0 mm 6,3 km/h (2 Bft) SW 217 ° 0 min 0,000 mm 0,0 UV-I 0 W/m² 10,0 °C 11,6 °C 9,7 km/h (2 Bft)
25.10.2019 03:52 11,7 °C 90 % 1016,9 hPa 0,0 mm 9,2 km/h (2 Bft) W 261 ° 0 min 0,000 mm 0,0 UV-I 0 W/m² 10,1 °C 11,7 °C 16,1 km/h (3 Bft)
25.10.2019 03:53 11,7 °C 90 % 1016,9 hPa 0,0 mm 10,1 km/h (2 Bft) W 265 ° 0 min 0,000 mm 0,0 UV-I 0 W/m² 10,1 °C 11,7 °C 17,7 km/h (3 Bft)
25.10.2019 03:54 11,7 °C 90 % 1017,0 hPa 0,0 mm 7,2 km/h (2 Bft) W-SW 250 ° 0 min 0,000 mm 0,0 UV-I 0 W/m² 10,1 °C 11,7 °C 11,3 km/h (2 Bft)
25.10.2019 03:55 11,7 °C 90 % 1017,0 hPa 0,0 mm 7,4 km/h (2 Bft) W 262 ° 0 min 0,000 mm 0,0 UV-I 0 W/m² 10,1 °C 11,7 °C 12,9 km/h (3 Bft)
25.10.2019 03:56 11,7 °C 90 % 1017,0 hPa 0,0 mm 5,0 km/h (1 Bft) W 261 ° 0 min 0,000 mm 0,0 UV-I 0 W/m² 10,1 °C 11,7 °C 11,3 km/h (2 Bft)
25.10.2019 03:57 11,7 °C 89 % 1017,0 hPa 0,0 mm 10,5 km/h (2 Bft) W-SW 250 ° 0 min 0,000 mm 0,0 UV-I 0 W/m² 9,9 °C 11,7 °C 12,9 km/h (3 Bft)
25.10.2019 03:58 11,7 °C 89 % 1017,0 hPa 0,0 mm 5,0 km/h (1 Bft) W 268 ° 0 min 0,000 mm 0,0 UV-I 0 W/m² 9,9 °C 11,7 °C 9,7 km/h (2 Bft)
25.10.2019 03:59 11,7 °C 89 % 1017,0 hPa 0,0 mm 7,4 km/h (2 Bft) W-SW 258 ° 0 min 0,000 mm 0,0 UV-I 0 W/m² 9,9 °C 11,7 °C 11,3 km/h (2 Bft)
25.10.2019 04:00 11,8 °C 89 % 1017,0 hPa 0,0 mm 4,6 km/h (1 Bft) W 261 ° 0 min 0,000 mm 0,0 UV-I 0 W/m² 10,0 °C 11,8 °C 6,4 km/h (2 Bft)
25.10.2019 04:01 11,7 °C 89 % 1017,0 hPa 0,0 mm 7,1 km/h (2 Bft) W 265 ° 0 min 0,000 mm 0,0 UV-I 0 W/m² 9,9 °C 11,7 °C 11,3 km/h (2 Bft)
25.10.2019 04:02 11,8 °C 89 % 1017,1 hPa 0,0 mm 7,8 km/h (2 Bft) W-SW 251 ° 0 min 0,000 mm 0,0 UV-I 0 W/m² 10,0 °C 11,8 °C 14,5 km/h (3 Bft)
25.10.2019 04:03 11,8 °C 89 % 1017,1 hPa 0,0 mm 9,5 km/h (2 Bft) W 279 ° 0 min 0,000 mm 0,0 UV-I 0 W/m² 10,0 °C 11,8 °C 12,9 km/h (3 Bft)
25.10.2019 04:04 11,8 °C 89 % 1017,1 hPa 0,0 mm 7,2 km/h (2 Bft) W 260 ° 0 min 0,000 mm 0,0 UV-I 0 W/m² 10,0 °C 11,8 °C 9,7 km/h (2 Bft)
25.10.2019 04:05 11,8 °C 89 % 1017,2 hPa 0,0 mm 5,4 km/h (1 Bft) W 277 ° 0 min 0,000 mm 0,0 UV-I 0 W/m² 10,0 °C 11,8 °C 11,3 km/h (2 Bft)
25.10.2019 04:06 11,8 °C 89 % 1017,2 hPa 0,0 mm 6,9 km/h (2 Bft) W-NW 284 ° 0 min 0,000 mm 0,0 UV-I 0 W/m² 10,0 °C 11,8 °C 12,9 km/h (3 Bft)
25.10.2019 04:07 11,8 °C 89 % 1017,2 hPa 0,0 mm 4,0 km/h (1 Bft) SW 216 ° 0 min 0,000 mm 0,0 UV-I 0 W/m² 10,0 °C 11,8 °C 4,8 km/h (1 Bft)
25.10.2019 04:08 11,8 °C 89 % 1017,3 hPa 0,0 mm 2,4 km/h (1 Bft) W-SW 245 ° 0 min 0,000 mm 0,0 UV-I 0 W/m² 10,0 °C 11,8 °C 4,8 km/h (1 Bft)
25.10.2019 04:09 11,8 °C 89 % 1017,3 hPa 0,0 mm 1,7 km/h (1 Bft) W 261 ° 0 min 0,000 mm 0,0 UV-I 0 W/m² 10,0 °C 11,8 °C 6,4 km/h (2 Bft)
25.10.2019 04:10 11,8 °C 89 % 1017,3 hPa 0,0 mm 6,0 km/h (2 Bft) W-SW 247 ° 0 min 0,000 mm 0,0 UV-I 0 W/m² 10,0 °C 11,8 °C 11,3 km/h (2 Bft)
25.10.2019 04:11 11,8 °C 89 % 1017,3 hPa 0,0 mm 4,8 km/h (1 Bft) W-SW 255 ° 0 min 0,000 mm 0,0 UV-I 0 W/m² 10,0 °C 11,8 °C 8,0 km/h (2 Bft)
25.10.2019 04:12 11,8 °C 89 % 1017,3 hPa 0,0 mm 4,9 km/h (1 Bft) W 274 ° 0 min 0,000 mm 0,0 UV-I 0 W/m² 10,0 °C 11,8 °C 6,4 km/h (2 Bft)
25.10.2019 04:13 11,8 °C 89 % 1017,3 hPa 0,0 mm 3,6 km/h (1 Bft) W-SW 250 ° 0 min 0,000 mm 0,0 UV-I 0 W/m² 10,0 °C 11,8 °C 6,4 km/h (2 Bft)
25.10.2019 04:14 11,9 °C 89 % 1017,3 hPa 0,0 mm 5,1 km/h (1 Bft) W-SW 248 ° 0 min 0,000 mm 0,0 UV-I 0 W/m² 10,1 °C 11,9 °C 6,4 km/h (2 Bft)
25.10.2019 04:15 11,9 °C 89 % 1017,4 hPa 0,0 mm 5,2 km/h (1 Bft) SW 233 ° 0 min 0,000 mm 0,0 UV-I 0 W/m² 10,1 °C 11,9 °C 9,7 km/h (2 Bft)
25.10.2019 04:16 11,9 °C 89 % 1017,4 hPa 0,0 mm 4,2 km/h (1 Bft) SW 225 ° 0 min 0,000 mm 0,0 UV-I 0 W/m² 10,1 °C 11,9 °C 4,8 km/h (1 Bft)
25.10.2019 04:17 11,9 °C 89 % 1017,4 hPa 0,0 mm 2,3 km/h (1 Bft) SW 225 ° 0 min 0,000 mm 0,0 UV-I 0 W/m² 10,1 °C 11,9 °C 4,8 km/h (1 Bft)
25.10.2019 04:18 11,9 °C 89 % 1017,4 hPa 0,0 mm 5,2 km/h (1 Bft) W-SW 239 ° 0 min 0,000 mm 0,0 UV-I 0 W/m² 10,1 °C 11,9 °C 14,5 km/h (3 Bft)
25.10.2019 04:19 11,9 °C 88 % 1017,3 hPa 0,0 mm 5,8 km/h (2 Bft) W-SW 246 ° 0 min 0,000 mm 0,0 UV-I 0 W/m² 10,0 °C 11,9 °C 11,3 km/h (2 Bft)
25.10.2019 04:20 11,9 °C 88 % 1017,3 hPa 0,0 mm 5,2 km/h (1 Bft) SW 236 ° 0 min 0,000 mm 0,0 UV-I 0 W/m² 10,0 °C 11,9 °C 9,7 km/h (2 Bft)
25.10.2019 04:21 11,9 °C 88 % 1017,3 hPa 0,0 mm 3,9 km/h (1 Bft) W 279 ° 0 min 0,000 mm 0,0 UV-I 0 W/m² 10,0 °C 11,9 °C 6,4 km/h (2 Bft)
25.10.2019 04:22 11,9 °C 88 % 1017,4 hPa 0,0 mm 5,1 km/h (1 Bft) SW 234 ° 0 min 0,000 mm 0,0 UV-I 0 W/m² 10,0 °C 11,9 °C 6,4 km/h (2 Bft)
25.10.2019 04:23 11,9 °C 88 % 1017,3 hPa 0,0 mm 3,7 km/h (1 Bft) W-SW 244 ° 0 min 0,000 mm 0,0 UV-I 0 W/m² 10,0 °C 11,9 °C 4,8 km/h (1 Bft)
25.10.2019 04:24 11,9 °C 88 % 1017,4 hPa 0,0 mm 4,4 km/h (1 Bft) W-SW 251 ° 0 min 0,000 mm 0,0 UV-I 0 W/m² 10,0 °C 11,9 °C 6,4 km/h (2 Bft)
25.10.2019 04:25 11,9 °C 88 % 1017,4 hPa 0,0 mm 3,4 km/h (1 Bft) W-SW 242 ° 0 min 0,000 mm 0,0 UV-I 0 W/m² 10,0 °C 11,9 °C 4,8 km/h (1 Bft)
25.10.2019 04:26 12,0 °C 88 % 1017,4 hPa 0,0 mm 0,1 km/h (0 Bft) W-SW 242 ° 0 min 0,000 mm 0,0 UV-I 0 W/m² 10,1 °C 12,0 °C 1,6 km/h (1 Bft)
25.10.2019 04:27 12,0 °C 88 % 1017,4 hPa 0,0 mm 0,0 km/h (0 Bft) W-SW 242 ° 0 min 0,000 mm 0,0 UV-I 0 W/m² 10,1 °C 12,0 °C 0,0 km/h (0 Bft)
25.10.2019 04:28 12,0 °C 88 % 1017,4 hPa 0,0 mm 0,0 km/h (0 Bft) W-SW 242 ° 0 min 0,000 mm 0,0 UV-I 0 W/m² 10,1 °C 12,0 °C 0,0 km/h (0 Bft)
25.10.2019 04:29 12,0 °C 88 % 1017,4 hPa 0,0 mm 0,1 km/h (0 Bft) W-SW 257 ° 0 min 0,000 mm 0,0 UV-I 0 W/m² 10,1 °C 12,0 °C 1,6 km/h (1 Bft)
25.10.2019 04:30 12,0 °C 88 % 1017,4 hPa 0,0 mm 3,7 km/h (1 Bft) W-SW 256 ° 0 min 0,000 mm 0,0 UV-I 0 W/m² 10,1 °C 12,0 °C 4,8 km/h (1 Bft)
25.10.2019 04:31 12,1 °C 88 % 1017,4 hPa 0,0 mm 2,7 km/h (1 Bft) W-SW 256 ° 0 min 0,000 mm 0,0 UV-I 0 W/m² 10,2 °C 12,1 °C 4,8 km/h (1 Bft)
25.10.2019 04:32 12,1 °C 88 % 1017,4 hPa 0,0 mm 2,4 km/h (1 Bft) W-SW 256 ° 0 min 0,000 mm 0,0 UV-I 0 W/m² 10,2 °C 12,1 °C 4,8 km/h (1 Bft)
25.10.2019 04:33 12,1 °C 88 % 1017,4 hPa 0,0 mm 1,7 km/h (1 Bft) W-SW 256 ° 0 min 0,000 mm 0,0 UV-I 0 W/m² 10,2 °C 12,1 °C 3,2 km/h (1 Bft)
25.10.2019 04:34 12,1 °C 88 % 1017,4 hPa 0,0 mm 1,9 km/h (1 Bft) W-SW 256 ° 0 min 0,000 mm 0,0 UV-I 0 W/m² 10,2 °C 12,1 °C 4,8 km/h (1 Bft)
25.10.2019 04:35 12,1 °C 88 % 1017,4 hPa 0,0 mm 2,3 km/h (1 Bft) W-SW 256 ° 0 min 0,000 mm 0,0 UV-I 0 W/m² 10,2 °C 12,1 °C 3,2 km/h (1 Bft)
25.10.2019 04:36 12,1 °C 88 % 1017,4 hPa 0,0 mm 0,1 km/h (0 Bft) W-SW 256 ° 0 min 0,000 mm 0,0 UV-I 0 W/m² 10,2 °C 12,1 °C 1,6 km/h (1 Bft)
25.10.2019 04:37 12,1 °C 88 % 1017,4 hPa 0,0 mm 0,0 km/h (0 Bft) W-SW 256 ° 0 min 0,000 mm 0,0 UV-I 0 W/m² 10,2 °C 12,1 °C 0,0 km/h (0 Bft)
25.10.2019 04:38 12,1 °C 88 % 1017,4 hPa 0,0 mm 0,0 km/h (0 Bft) W-SW 256 ° 0 min 0,000 mm 0,0 UV-I 0 W/m² 10,2 °C 12,1 °C 0,0 km/h (0 Bft)
25.10.2019 04:39 12,1 °C 88 % 1017,4 hPa 0,0 mm 0,0 km/h (0 Bft) W-SW 256 ° 0 min 0,000 mm 0,0 UV-I 0 W/m² 10,2 °C 12,1 °C 0,0 km/h (0 Bft)
25.10.2019 04:40 12,1 °C 88 % 1017,4 hPa 0,0 mm 0,0 km/h (0 Bft) W-SW 256 ° 0 min 0,000 mm 0,0 UV-I 0 W/m² 10,2 °C 12,1 °C 0,0 km/h (0 Bft)
25.10.2019 04:41 12,1 °C 88 % 1017,4 hPa 0,0 mm 0,0 km/h (0 Bft) W-SW 256 ° 0 min 0,000 mm 0,0 UV-I 0 W/m² 10,2 °C 12,1 °C 0,0 km/h (0 Bft)
25.10.2019 04:42 12,1 °C 88 % 1017,4 hPa 0,0 mm 1,9 km/h (1 Bft) W-SW 256 ° 0 min 0,000 mm 0,0 UV-I 0 W/m² 10,2 °C 12,1 °C 3,2 km/h (1 Bft)
25.10.2019 04:43 12,1 °C 88 % 1017,4 hPa 0,0 mm 0,5 km/h (0 Bft) W-SW 256 ° 0 min 0,000 mm 0,0 UV-I 0 W/m² 10,2 °C 12,1 °C 1,6 km/h (1 Bft)
25.10.2019 04:44 12,1 °C 88 % 1017,4 hPa 0,0 mm 0,9 km/h (0 Bft) W-SW 256 ° 0 min 0,000 mm 0,0 UV-I 0 W/m² 10,2 °C 12,1 °C 1,6 km/h (1 Bft)
25.10.2019 04:45 12,1 °C 88 % 1017,4 hPa 0,0 mm 0,1 km/h (0 Bft) W-SW 256 ° 0 min 0,000 mm 0,0 UV-I 0 W/m² 10,2 °C 12,1 °C 1,6 km/h (1 Bft)
25.10.2019 04:46 12,1 °C 88 % 1017,4 hPa 0,0 mm 0,0 km/h (0 Bft) W-SW 256 ° 0 min 0,000 mm 0,0 UV-I 0 W/m² 10,2 °C 12,1 °C 0,0 km/h (0 Bft)
25.10.2019 04:47 12,1 °C 88 % 1017,5 hPa 0,0 mm 0,1 km/h (0 Bft) W-SW 256 ° 0 min 0,000 mm 0,0 UV-I 0 W/m² 10,2 °C 12,1 °C 1,6 km/h (1 Bft)
25.10.2019 04:48 12,1 °C 88 % 1017,5 hPa 0,0 mm 1,2 km/h (1 Bft) W-SW 256 ° 0 min 0,000 mm 0,0 UV-I 0 W/m² 10,2 °C 12,1 °C 3,2 km/h (1 Bft)
25.10.2019 04:49 12,1 °C 88 % 1017,5 hPa 0,0 mm 1,5 km/h (1 Bft) W-SW 256 ° 0 min 0,000 mm 0,0 UV-I 0 W/m² 10,2 °C 12,1 °C 3,2 km/h (1 Bft)
25.10.2019 04:50 12,1 °C 88 % 1017,5 hPa 0,0 mm 1,8 km/h (1 Bft) W-SW 256 ° 0 min 0,000 mm 0,0 UV-I 0 W/m² 10,2 °C 12,1 °C 3,2 km/h (1 Bft)
25.10.2019 04:51 12,1 °C 88 % 1017,5 hPa 0,0 mm 2,1 km/h (1 Bft) W-SW 256 ° 0 min 0,000 mm 0,0 UV-I 0 W/m² 10,2 °C 12,1 °C 3,2 km/h (1 Bft)
25.10.2019 04:52 12,1 °C 88 % 1017,5 hPa 0,0 mm 0,7 km/h (0 Bft) W-SW 256 ° 0 min 0,000 mm 0,0 UV-I 0 W/m² 10,2 °C 12,1 °C 3,2 km/h (1 Bft)
25.10.2019 04:53 12,1 °C 88 % 1017,5 hPa 0,0 mm 0,7 km/h (0 Bft) W-SW 256 ° 0 min 0,000 mm 0,0 UV-I 0 W/m² 10,2 °C 12,1 °C 3,2 km/h (1 Bft)
25.10.2019 04:54 12,1 °C 88 % 1017,5 hPa 0,0 mm 1,2 km/h (1 Bft) W-SW 256 ° 0 min 0,000 mm 0,0 UV-I 0 W/m² 10,2 °C 12,1 °C 3,2 km/h (1 Bft)
25.10.2019 04:55 12,1 °C 88 % 1017,5 hPa 0,0 mm 0,0 km/h (0 Bft) W-SW 256 ° 0 min 0,000 mm 0,0 UV-I 0 W/m² 10,2 °C 12,1 °C 0,0 km/h (0 Bft)
25.10.2019 04:56 12,1 °C 88 % 1017,5 hPa 0,0 mm 0,0 km/h (0 Bft) W-SW 256 ° 0 min 0,000 mm 0,0 UV-I 0 W/m² 10,2 °C 12,1 °C 0,0 km/h (0 Bft)
25.10.2019 04:57 12,1 °C 88 % 1017,5 hPa 0,0 mm 0,0 km/h (0 Bft) W-SW 256 ° 0 min 0,000 mm 0,0 UV-I 0 W/m² 10,2 °C 12,1 °C 0,0 km/h (0 Bft)
25.10.2019 04:58 12,1 °C 88 % 1017,5 hPa 0,0 mm 0,0 km/h (0 Bft) W-SW 256 ° 0 min 0,000 mm 0,0 UV-I 0 W/m² 10,2 °C 12,1 °C 0,0 km/h (0 Bft)
25.10.2019 04:59 12,1 °C 88 % 1017,4 hPa 0,0 mm 0,0 km/h (0 Bft) W-SW 256 ° 0 min 0,000 mm 0,0 UV-I 0 W/m² 10,2 °C 12,1 °C 0,0 km/h (0 Bft)
25.10.2019 05:00 12,1 °C 88 % 1017,4 hPa 0,0 mm 0,0 km/h (0 Bft) W-SW 256 ° 0 min 0,000 mm 0,0 UV-I 0 W/m² 10,2 °C 12,1 °C 0,0 km/h (0 Bft)
25.10.2019 05:01 12,1 °C 88 % 1017,5 hPa 0,0 mm 2,2 km/h (1 Bft) W-SW 256 ° 0 min 0,000 mm 0,0 UV-I 0 W/m² 10,2 °C 12,1 °C 3,2 km/h (1 Bft)
25.10.2019 05:02 12,1 °C 88 % 1017,4 hPa 0,0 mm 0,8 km/h (0 Bft) W-SW 256 ° 0 min 0,000 mm 0,0 UV-I 0 W/m² 10,2 °C 12,1 °C 3,2 km/h (1 Bft)
25.10.2019 05:03 12,1 °C 88 % 1017,4 hPa 0,0 mm 0,0 km/h (0 Bft) W-SW 256 ° 0 min 0,000 mm 0,0 UV-I 0 W/m² 10,2 °C 12,1 °C 0,0 km/h (0 Bft)
25.10.2019 05:04 12,1 °C 88 % 1017,5 hPa 0,0 mm 0,0 km/h (0 Bft) W-SW 256 ° 0 min 0,000 mm 0,0 UV-I 0 W/m² 10,2 °C 12,1 °C 0,0 km/h (0 Bft)
25.10.2019 05:05 12,1 °C 88 % 1017,5 hPa 0,0 mm 0,5 km/h (0 Bft) W-SW 256 ° 0 min 0,000 mm 0,0 UV-I 0 W/m² 10,2 °C 12,1 °C 3,2 km/h (1 Bft)
25.10.2019 05:06 12,1 °C 88 % 1017,5 hPa 0,0 mm 2,6 km/h (1 Bft) W-SW 256 ° 0 min 0,000 mm 0,0 UV-I 0 W/m² 10,2 °C 12,1 °C 6,4 km/h (2 Bft)
25.10.2019 05:07 12,1 °C 88 % 1017,6 hPa 0,0 mm 0,9 km/h (0 Bft) W-SW 256 ° 0 min 0,000 mm 0,0 UV-I 0 W/m² 10,2 °C 12,1 °C 3,2 km/h (1 Bft)
25.10.2019 05:08 12,1 °C 88 % 1017,6 hPa 0,0 mm 0,0 km/h (0 Bft) W-SW 256 ° 0 min 0,000 mm 0,0 UV-I 0 W/m² 10,2 °C 12,1 °C 0,0 km/h (0 Bft)
25.10.2019 05:09 12,1 °C 88 % 1017,6 hPa 0,0 mm 0,0 km/h (0 Bft) W-SW 256 ° 0 min 0,000 mm 0,0 UV-I 0 W/m² 10,2 °C 12,1 °C 0,0 km/h (0 Bft)
25.10.2019 05:10 12,1 °C 88 % 1017,6 hPa 0,0 mm 0,0 km/h (0 Bft) W-SW 256 ° 0 min 0,000 mm 0,0 UV-I 0 W/m² 10,2 °C 12,1 °C 0,0 km/h (0 Bft)
25.10.2019 05:11 12,1 °C 88 % 1017,6 hPa 0,0 mm 0,0 km/h (0 Bft) W-SW 256 ° 0 min 0,000 mm 0,0 UV-I 0 W/m² 10,2 °C 12,1 °C 0,0 km/h (0 Bft)
25.10.2019 05:12 12,1 °C 88 % 1017,6 hPa 0,0 mm 0,0 km/h (0 Bft) W-SW 256 ° 0 min 0,000 mm 0,0 UV-I 0 W/m² 10,2 °C 12,1 °C 0,0 km/h (0 Bft)
25.10.2019 05:13 12,1 °C 88 % 1017,6 hPa 0,0 mm 0,0 km/h (0 Bft) W-SW 256 ° 0 min 0,000 mm 0,0 UV-I 0 W/m² 10,2 °C 12,1 °C 0,0 km/h (0 Bft)
25.10.2019 05:14 12,1 °C 88 % 1017,6 hPa 0,0 mm 0,0 km/h (0 Bft) W-SW 256 ° 0 min 0,000 mm 0,0 UV-I 0 W/m² 10,2 °C 12,1 °C 0,0 km/h (0 Bft)
25.10.2019 05:15 12,1 °C 88 % 1017,6 hPa 0,0 mm 0,0 km/h (0 Bft) W-SW 256 ° 0 min 0,000 mm 0,0 UV-I 0 W/m² 10,2 °C 12,1 °C 0,0 km/h (0 Bft)
25.10.2019 05:16 12,1 °C 88 % 1017,6 hPa 0,0 mm 0,0 km/h (0 Bft) W-SW 256 ° 0 min 0,000 mm 0,0 UV-I 0 W/m² 10,2 °C 12,1 °C 0,0 km/h (0 Bft)
25.10.2019 05:17 12,1 °C 88 % 1017,7 hPa 0,0 mm 0,0 km/h (0 Bft) W-SW 256 ° 0 min 0,000 mm 0,0 UV-I 0 W/m² 10,2 °C 12,1 °C 0,0 km/h (0 Bft)
25.10.2019 05:18 12,1 °C 88 % 1017,7 hPa 0,0 mm 0,0 km/h (0 Bft) W-SW 256 ° 0 min 0,000 mm 0,0 UV-I 0 W/m² 10,2 °C 12,1 °C 0,0 km/h (0 Bft)
25.10.2019 05:19 12,1 °C 88 % 1017,7 hPa 0,0 mm 0,0 km/h (0 Bft) W-SW 256 ° 0 min 0,000 mm 0,0 UV-I 0 W/m² 10,2 °C 12,1 °C 0,0 km/h (0 Bft)
25.10.2019 05:20 12,1 °C 88 % 1017,7 hPa 0,0 mm 0,0 km/h (0 Bft) W-SW 256 ° 0 min 0,000 mm 0,0 UV-I 0 W/m² 10,2 °C 12,1 °C 0,0 km/h (0 Bft)
25.10.2019 05:21 12,1 °C 88 % 1017,7 hPa 0,0 mm 0,0 km/h (0 Bft) W-SW 256 ° 0 min 0,000 mm 0,0 UV-I 0 W/m² 10,2 °C 12,1 °C 0,0 km/h (0 Bft)
25.10.2019 05:22 12,1 °C 88 % 1017,7 hPa 0,0 mm 0,0 km/h (0 Bft) W-SW 256 ° 0 min 0,000 mm 0,0 UV-I 0 W/m² 10,2 °C 12,1 °C 0,0 km/h (0 Bft)
25.10.2019 05:23 12,1 °C 88 % 1017,7 hPa 0,0 mm 0,0 km/h (0 Bft) W-SW 256 ° 0 min 0,000 mm 0,0 UV-I 0 W/m² 10,2 °C 12,1 °C 0,0 km/h (0 Bft)
25.10.2019 05:24 12,1 °C 88 % 1017,7 hPa 0,0 mm 0,3 km/h (0 Bft) W-SW 256 ° 0 min 0,000 mm 0,0 UV-I 0 W/m² 10,2 °C 12,1 °C 6,4 km/h (2 Bft)
25.10.2019 05:25 12,1 °C 88 % 1017,7 hPa 0,0 mm 6,3 km/h (2 Bft) W-SW 256 ° 0 min 0,000 mm 0,0 UV-I 0 W/m² 10,2 °C 12,1 °C 8,0 km/h (2 Bft)
25.10.2019 05:26 12,1 °C 88 % 1017,7 hPa 0,0 mm 2,8 km/h (1 Bft) W-SW 256 ° 0 min 0,000 mm 0,0 UV-I 0 W/m² 10,2 °C 12,1 °C 4,8 km/h (1 Bft)
25.10.2019 05:27 12,1 °C 88 % 1017,7 hPa 0,0 mm 1,1 km/h (1 Bft) W-SW 256 ° 0 min 0,000 mm 0,0 UV-I 0 W/m² 10,2 °C 12,1 °C 3,2 km/h (1 Bft)
25.10.2019 05:28 12,1 °C 88 % 1017,7 hPa 0,0 mm 0,0 km/h (0 Bft) W-SW 256 ° 0 min 0,000 mm 0,0 UV-I 0 W/m² 10,2 °C 12,1 °C 0,0 km/h (0 Bft)
25.10.2019 05:29 12,1 °C 88 % 1017,7 hPa 0,0 mm 0,0 km/h (0 Bft) W-SW 256 ° 0 min 0,000 mm 0,0 UV-I 0 W/m² 10,2 °C 12,1 °C 0,0 km/h (0 Bft)
25.10.2019 05:30 12,1 °C 88 % 1017,7 hPa 0,0 mm 0,0 km/h (0 Bft) W-SW 256 ° 0 min 0,000 mm 0,0 UV-I 0 W/m² 10,2 °C 12,1 °C 0,0 km/h (0 Bft)
25.10.2019 05:31 12,1 °C 88 % 1017,7 hPa 0,0 mm 0,0 km/h (0 Bft) W-SW 256 ° 0 min 0,000 mm 0,0 UV-I 0 W/m² 10,2 °C 12,1 °C 0,0 km/h (0 Bft)
25.10.2019 05:32 12,1 °C 88 % 1017,7 hPa 0,0 mm 0,0 km/h (0 Bft) W-SW 256 ° 0 min 0,000 mm 0,0 UV-I 0 W/m² 10,2 °C 12,1 °C 0,0 km/h (0 Bft)
25.10.2019 05:33 12,1 °C 88 % 1017,7 hPa 0,0 mm 0,0 km/h (0 Bft) W-SW 256 ° 0 min 0,000 mm 0,0 UV-I 0 W/m² 10,2 °C 12,1 °C 0,0 km/h (0 Bft)
25.10.2019 05:34 12,1 °C 88 % 1017,7 hPa 0,0 mm 0,0 km/h (0 Bft) W-SW 256 ° 0 min 0,000 mm 0,0 UV-I 0 W/m² 10,2 °C 12,1 °C 0,0 km/h (0 Bft)
25.10.2019 05:35 12,1 °C 88 % 1017,8 hPa 0,0 mm 0,0 km/h (0 Bft) W-SW 256 ° 0 min 0,000 mm 0,0 UV-I 0 W/m² 10,2 °C 12,1 °C 0,0 km/h (0 Bft)
25.10.2019 05:36 12,1 °C 87 % 1017,7 hPa 0,0 mm 0,0 km/h (0 Bft) W-SW 256 ° 0 min 0,000 mm 0,0 UV-I 0 W/m² 10,0 °C 12,1 °C 0,0 km/h (0 Bft)
25.10.2019 05:37 12,1 °C 87 % 1017,8 hPa 0,0 mm 0,0 km/h (0 Bft) W-SW 256 ° 0 min 0,000 mm 0,0 UV-I 0 W/m² 10,0 °C 12,1 °C 0,0 km/h (0 Bft)
25.10.2019 05:38 12,1 °C 87 % 1017,7 hPa 0,0 mm 0,0 km/h (0 Bft) W-SW 256 ° 0 min 0,000 mm 0,0 UV-I 0 W/m² 10,0 °C 12,1 °C 0,0 km/h (0 Bft)
25.10.2019 05:39 12,1 °C 87 % 1017,7 hPa 0,0 mm 0,0 km/h (0 Bft) W-SW 256 ° 0 min 0,000 mm 0,0 UV-I 0 W/m² 10,0 °C 12,1 °C 0,0 km/h (0 Bft)
25.10.2019 05:40 12,1 °C 87 % 1017,7 hPa 0,0 mm 0,0 km/h (0 Bft) W-SW 256 ° 0 min 0,000 mm 0,0 UV-I 0 W/m² 10,0 °C 12,1 °C 0,0 km/h (0 Bft)
25.10.2019 05:41 12,1 °C 87 % 1017,7 hPa 0,0 mm 0,0 km/h (0 Bft) W-SW 256 ° 0 min 0,000 mm 0,0 UV-I 0 W/m² 10,0 °C 12,1 °C 0,0 km/h (0 Bft)
25.10.2019 05:42 12,1 °C 87 % 1017,7 hPa 0,0 mm 0,0 km/h (0 Bft) W-SW 256 ° 0 min 0,000 mm 0,0 UV-I 0 W/m² 10,0 °C 12,1 °C 0,0 km/h (0 Bft)
25.10.2019 05:43 12,1 °C 87 % 1017,8 hPa 0,0 mm 0,0 km/h (0 Bft) W-SW 256 ° 0 min 0,000 mm 0,0 UV-I 0 W/m² 10,0 °C 12,1 °C 0,0 km/h (0 Bft)
25.10.2019 05:44 12,1 °C 87 % 1017,8 hPa 0,0 mm 0,0 km/h (0 Bft) W-SW 256 ° 0 min 0,000 mm 0,0 UV-I 0 W/m² 10,0 °C 12,1 °C 0,0 km/h (0 Bft)
25.10.2019 05:45 12,1 °C 87 % 1017,8 hPa 0,0 mm 0,0 km/h (0 Bft) W-SW 256 ° 0 min 0,000 mm 0,0 UV-I 0 W/m² 10,0 °C 12,1 °C 0,0 km/h (0 Bft)
25.10.2019 05:46 12,1 °C 87 % 1017,8 hPa 0,0 mm 0,0 km/h (0 Bft) W-SW 256 ° 0 min 0,000 mm 0,0 UV-I 0 W/m² 10,0 °C 12,1 °C 0,0 km/h (0 Bft)
25.10.2019 05:47 12,1 °C 87 % 1017,8 hPa 0,0 mm 0,0 km/h (0 Bft) W-SW 256 ° 0 min 0,000 mm 0,0 UV-I 0 W/m² 10,0 °C 12,1 °C 0,0 km/h (0 Bft)
25.10.2019 05:48 12,1 °C 87 % 1017,7 hPa 0,0 mm 0,0 km/h (0 Bft) W-SW 256 ° 0 min 0,000 mm 0,0 UV-I 0 W/m² 10,0 °C 12,1 °C 0,0 km/h (0 Bft)
25.10.2019 05:49 12,1 °C 87 % 1017,8 hPa 0,0 mm 0,0 km/h (0 Bft) W-SW 256 ° 0 min 0,000 mm 0,0 UV-I 0 W/m² 10,0 °C 12,1 °C 0,0 km/h (0 Bft)
25.10.2019 05:50 12,2 °C 87 % 1017,8 hPa 0,0 mm 0,0 km/h (0 Bft) W-SW 256 ° 0 min 0,000 mm 0,0 UV-I 0 W/m² 10,1 °C 12,2 °C 0,0 km/h (0 Bft)
25.10.2019 05:51 12,1 °C 87 % 1017,8 hPa 0,0 mm 0,0 km/h (0 Bft) W-SW 256 ° 0 min 0,000 mm 0,0 UV-I 0 W/m² 10,0 °C 12,1 °C 0,0 km/h (0 Bft)
25.10.2019 05:52 12,1 °C 87 % 1017,8 hPa 0,0 mm 0,0 km/h (0 Bft) W-SW 256 ° 0 min 0,000 mm 0,0 UV-I 0 W/m² 10,0 °C 12,1 °C 0,0 km/h (0 Bft)
25.10.2019 05:53 12,1 °C 87 % 1017,8 hPa 0,0 mm 0,0 km/h (0 Bft) W-SW 256 ° 0 min 0,000 mm 0,0 UV-I 0 W/m² 10,0 °C 12,1 °C 0,0 km/h (0 Bft)
25.10.2019 05:54 12,1 °C 87 % 1017,9 hPa 0,0 mm 0,0 km/h (0 Bft) W-SW 256 ° 0 min 0,000 mm 0,0 UV-I 0 W/m² 10,0 °C 12,1 °C 0,0 km/h (0 Bft)
25.10.2019 05:55 12,1 °C 87 % 1017,9 hPa 0,0 mm 0,0 km/h (0 Bft) W-SW 256 ° 0 min 0,000 mm 0,0 UV-I 0 W/m² 10,0 °C 12,1 °C 0,0 km/h (0 Bft)
25.10.2019 05:56 12,1 °C 87 % 1017,9 hPa 0,0 mm 0,0 km/h (0 Bft) W-SW 256 ° 0 min 0,000 mm 0,0 UV-I 0 W/m² 10,0 °C 12,1 °C 0,0 km/h (0 Bft)
25.10.2019 05:57 12,1 °C 87 % 1017,9 hPa 0,0 mm 0,0 km/h (0 Bft) W-SW 256 ° 0 min 0,000 mm 0,0 UV-I 0 W/m² 10,0 °C 12,1 °C 0,0 km/h (0 Bft)
25.10.2019 05:58 12,1 °C 87 % 1018,0 hPa 0,0 mm 0,0 km/h (0 Bft) W-SW 256 ° 0 min 0,000 mm 0,0 UV-I 0 W/m² 10,0 °C 12,1 °C 0,0 km/h (0 Bft)
25.10.2019 05:59 12,1 °C 87 % 1018,0 hPa 0,0 mm 0,0 km/h (0 Bft) W-SW 256 ° 0 min 0,000 mm 0,0 UV-I 0 W/m² 10,0 °C 12,1 °C 0,0 km/h (0 Bft)
25.10.2019 06:00 12,1 °C 87 % 1018,0 hPa 0,0 mm 0,0 km/h (0 Bft) W-SW 256 ° 0 min 0,000 mm 0,0 UV-I 0 W/m² 10,0 °C 12,1 °C 0,0 km/h (0 Bft)
25.10.2019 06:01 12,1 °C 87 % 1018,0 hPa 0,0 mm 0,0 km/h (0 Bft) W-SW 256 ° 0 min 0,000 mm 0,0 UV-I 0 W/m² 10,0 °C 12,1 °C 0,0 km/h (0 Bft)
25.10.2019 06:02 12,1 °C 87 % 1018,0 hPa 0,0 mm 0,0 km/h (0 Bft) W-SW 256 ° 0 min 0,000 mm 0,0 UV-I 0 W/m² 10,0 °C 12,1 °C 0,0 km/h (0 Bft)
25.10.2019 06:03 12,1 °C 87 % 1018,1 hPa 0,0 mm 0,0 km/h (0 Bft) W-SW 256 ° 0 min 0,000 mm 0,0 UV-I 0 W/m² 10,0 °C 12,1 °C 0,0 km/h (0 Bft)
25.10.2019 06:04 12,1 °C 87 % 1018,1 hPa 0,0 mm 0,0 km/h (0 Bft) W-SW 256 ° 0 min 0,000 mm 0,0 UV-I 0 W/m² 10,0 °C 12,1 °C 0,0 km/h (0 Bft)
25.10.2019 06:05 12,1 °C 87 % 1018,1 hPa 0,0 mm 0,0 km/h (0 Bft) W-SW 256 ° 0 min 0,000 mm 0,0 UV-I 0 W/m² 10,0 °C 12,1 °C 0,0 km/h (0 Bft)
25.10.2019 06:06 12,1 °C 87 % 1018,1 hPa 0,0 mm 0,0 km/h (0 Bft) W-SW 256 ° 0 min 0,000 mm 0,0 UV-I 0 W/m² 10,0 °C 12,1 °C 0,0 km/h (0 Bft)
25.10.2019 06:07 12,1 °C 87 % 1018,1 hPa 0,0 mm 0,0 km/h (0 Bft) W-SW 256 ° 0 min 0,000 mm 0,0 UV-I 0 W/m² 10,0 °C 12,1 °C 0,0 km/h (0 Bft)
25.10.2019 06:08 12,1 °C 87 % 1018,1 hPa 0,0 mm 0,0 km/h (0 Bft) W-SW 256 ° 0 min 0,000 mm 0,0 UV-I 0 W/m² 10,0 °C 12,1 °C 0,0 km/h (0 Bft)
25.10.2019 06:09 12,1 °C 87 % 1018,1 hPa 0,0 mm 0,0 km/h (0 Bft) W-SW 256 ° 0 min 0,000 mm 0,0 UV-I 0 W/m² 10,0 °C 12,1 °C 0,0 km/h (0 Bft)
25.10.2019 06:10 12,1 °C 87 % 1018,2 hPa 0,0 mm 0,0 km/h (0 Bft) W-SW 256 ° 0 min 0,000 mm 0,0 UV-I 0 W/m² 10,0 °C 12,1 °C 0,0 km/h (0 Bft)
25.10.2019 06:11 12,1 °C 87 % 1018,2 hPa 0,0 mm 0,0 km/h (0 Bft) W-SW 256 ° 0 min 0,000 mm 0,0 UV-I 0 W/m² 10,0 °C 12,1 °C 0,0 km/h (0 Bft)
25.10.2019 06:12 12,1 °C 87 % 1018,2 hPa 0,0 mm 0,0 km/h (0 Bft) W-SW 256 ° 0 min 0,000 mm 0,0 UV-I 0 W/m² 10,0 °C 12,1 °C 0,0 km/h (0 Bft)
25.10.2019 06:13 12,1 °C 87 % 1018,2 hPa 0,0 mm 0,0 km/h (0 Bft) W-SW 256 ° 0 min 0,000 mm 0,0 UV-I 0 W/m² 10,0 °C 12,1 °C 0,0 km/h (0 Bft)
25.10.2019 06:14 12,1 °C 87 % 1018,2 hPa 0,0 mm 3,5 km/h (1 Bft) W-SW 256 ° 0 min 0,000 mm 0,0 UV-I 0 W/m² 10,0 °C 12,1 °C 8,0 km/h (2 Bft)
25.10.2019 06:15 12,1 °C 87 % 1018,2 hPa 0,0 mm 3,1 km/h (1 Bft) W-SW 256 ° 0 min 0,000 mm 0,0 UV-I 0 W/m² 10,0 °C 12,1 °C 4,8 km/h (1 Bft)
25.10.2019 06:16 12,1 °C 87 % 1018,2 hPa 0,0 mm 3,6 km/h (1 Bft) W-SW 256 ° 0 min 0,000 mm 0,0 UV-I 0 W/m² 10,0 °C 12,1 °C 8,0 km/h (2 Bft)
25.10.2019 06:17 12,1 °C 87 % 1018,2 hPa 0,0 mm 3,0 km/h (1 Bft) W-SW 256 ° 0 min 0,000 mm 0,0 UV-I 0 W/m² 10,0 °C 12,1 °C 4,8 km/h (1 Bft)
25.10.2019 06:18 12,1 °C 87 % 1018,2 hPa 0,0 mm 2,2 km/h (1 Bft) W-SW 256 ° 0 min 0,000 mm 0,0 UV-I 0 W/m² 10,0 °C 12,1 °C 4,8 km/h (1 Bft)
25.10.2019 06:19 12,1 °C 87 % 1018,2 hPa 0,0 mm 4,8 km/h (1 Bft) W 264 ° 0 min 0,000 mm 0,0 UV-I 0 W/m² 10,0 °C 12,1 °C 8,0 km/h (2 Bft)
25.10.2019 06:20 12,1 °C 87 % 1018,2 hPa 0,0 mm 4,6 km/h (1 Bft) W 264 ° 0 min 0,000 mm 0,0 UV-I 0 W/m² 10,0 °C 12,1 °C 6,4 km/h (2 Bft)
25.10.2019 06:21 12,1 °C 87 % 1018,2 hPa 0,0 mm 0,6 km/h (0 Bft) W 264 ° 0 min 0,000 mm 0,0 UV-I 0 W/m² 10,0 °C 12,1 °C 4,8 km/h (1 Bft)
25.10.2019 06:22 12,1 °C 87 % 1018,2 hPa 0,0 mm 1,1 km/h (1 Bft) W 264 ° 0 min 0,000 mm 0,0 UV-I 0 W/m² 10,0 °C 12,1 °C 6,4 km/h (2 Bft)
25.10.2019 06:23 12,1 °C 87 % 1018,3 hPa 0,0 mm 4,2 km/h (1 Bft) W 264 ° 0 min 0,000 mm 0,0 UV-I 0 W/m² 10,0 °C 12,1 °C 6,4 km/h (2 Bft)
25.10.2019 06:24 12,1 °C 87 % 1018,3 hPa 0,0 mm 2,4 km/h (1 Bft) W 264 ° 0 min 0,000 mm 0,0 UV-I 0 W/m² 10,0 °C 12,1 °C 4,8 km/h (1 Bft)
25.10.2019 06:25 12,1 °C 87 % 1018,3 hPa 0,0 mm 1,9 km/h (1 Bft) W 264 ° 0 min 0,000 mm 0,0 UV-I 0 W/m² 10,0 °C 12,1 °C 4,8 km/h (1 Bft)
25.10.2019 06:26 12,1 °C 87 % 1018,3 hPa 0,0 mm 3,6 km/h (1 Bft) W 264 ° 0 min 0,000 mm 0,0 UV-I 0 W/m² 10,0 °C 12,1 °C 6,4 km/h (2 Bft)
25.10.2019 06:27 12,1 °C 87 % 1018,3 hPa 0,0 mm 2,7 km/h (1 Bft) W 264 ° 0 min 0,000 mm 0,0 UV-I 0 W/m² 10,0 °C 12,1 °C 4,8 km/h (1 Bft)
25.10.2019 06:28 12,1 °C 87 % 1018,4 hPa 0,0 mm 2,1 km/h (1 Bft) W 264 ° 0 min 0,000 mm 0,0 UV-I 0 W/m² 10,0 °C 12,1 °C 4,8 km/h (1 Bft)
25.10.2019 06:29 12,1 °C 87 % 1018,3 hPa 0,0 mm 1,4 km/h (1 Bft) W 264 ° 0 min 0,000 mm 0,0 UV-I 0 W/m² 10,0 °C 12,1 °C 3,2 km/h (1 Bft)
25.10.2019 06:30 12,1 °C 87 % 1018,3 hPa 0,0 mm 2,8 km/h (1 Bft) W 264 ° 0 min 0,000 mm 0,0 UV-I 0 W/m² 10,0 °C 12,1 °C 4,8 km/h (1 Bft)
25.10.2019 06:31 12,1 °C 87 % 1018,4 hPa 0,0 mm 1,1 km/h (1 Bft) W 264 ° 0 min 0,000 mm 0,0 UV-I 0 W/m² 10,0 °C 12,1 °C 3,2 km/h (1 Bft)
25.10.2019 06:32 12,1 °C 87 % 1018,4 hPa 0,0 mm 0,0 km/h (0 Bft) W 264 ° 0 min 0,000 mm 0,0 UV-I 0 W/m² 10,0 °C 12,1 °C 0,0 km/h (0 Bft)
25.10.2019 06:33 12,1 °C 87 % 1018,4 hPa 0,0 mm 0,0 km/h (0 Bft) W 264 ° 0 min 0,000 mm 0,0 UV-I 0 W/m² 10,0 °C 12,1 °C 0,0 km/h (0 Bft)
25.10.2019 06:34 12,1 °C 87 % 1018,4 hPa 0,0 mm 0,0 km/h (0 Bft) W 264 ° 0 min 0,000 mm 0,0 UV-I 0 W/m² 10,0 °C 12,1 °C 0,0 km/h (0 Bft)
25.10.2019 06:35 12,1 °C 87 % 1018,4 hPa 0,0 mm 0,0 km/h (0 Bft) W 264 ° 0 min 0,000 mm 0,0 UV-I 0 W/m² 10,0 °C 12,1 °C 0,0 km/h (0 Bft)
25.10.2019 06:36 12,1 °C 87 % 1018,4 hPa 0,0 mm 0,0 km/h (0 Bft) W 264 ° 0 min 0,000 mm 0,0 UV-I 0 W/m² 10,0 °C 12,1 °C 0,0 km/h (0 Bft)
25.10.2019 06:37 12,1 °C 87 % 1018,4 hPa 0,0 mm 0,0 km/h (0 Bft) W 264 ° 0 min 0,000 mm 0,0 UV-I 0 W/m² 10,0 °C 12,1 °C 0,0 km/h (0 Bft)
25.10.2019 06:38 12,1 °C 87 % 1018,4 hPa 0,0 mm 0,0 km/h (0 Bft) W 264 ° 0 min 0,000 mm 0,0 UV-I 0 W/m² 10,0 °C 12,1 °C 0,0 km/h (0 Bft)
25.10.2019 06:39 12,1 °C 87 % 1018,5 hPa 0,0 mm 0,0 km/h (0 Bft) W 264 ° 0 min 0,000 mm 0,0 UV-I 0 W/m² 10,0 °C 12,1 °C 0,0 km/h (0 Bft)
25.10.2019 06:40 12,1 °C 87 % 1018,4 hPa 0,0 mm 0,0 km/h (0 Bft) W 264 ° 0 min 0,000 mm 0,0 UV-I 0 W/m² 10,0 °C 12,1 °C 0,0 km/h (0 Bft)
25.10.2019 06:41 12,1 °C 87 % 1018,4 hPa 0,0 mm 0,0 km/h (0 Bft) W 264 ° 0 min 0,000 mm 0,0 UV-I 0 W/m² 10,0 °C 12,1 °C 0,0 km/h (0 Bft)
25.10.2019 06:42 12,1 °C 87 % 1018,4 hPa 0,0 mm 0,0 km/h (0 Bft) W 264 ° 0 min 0,000 mm 0,0 UV-I 0 W/m² 10,0 °C 12,1 °C 0,0 km/h (0 Bft)
25.10.2019 06:43 12,1 °C 87 % 1018,5 hPa 0,0 mm 0,5 km/h (0 Bft) W 264 ° 0 min 0,000 mm 0,0 UV-I 0 W/m² 10,0 °C 12,1 °C 3,2 km/h (1 Bft)
25.10.2019 06:44 12,1 °C 87 % 1018,5 hPa 0,0 mm 2,8 km/h (1 Bft) W 264 ° 0 min 0,000 mm 0,0 UV-I 0 W/m² 10,0 °C 12,1 °C 4,8 km/h (1 Bft)
25.10.2019 06:45 12,1 °C 87 % 1018,4 hPa 0,0 mm 3,2 km/h (1 Bft) W 264 ° 0 min 0,000 mm 0,0 UV-I 0 W/m² 10,0 °C 12,1 °C 4,8 km/h (1 Bft)
25.10.2019 06:46 12,1 °C 87 % 1018,4 hPa 0,0 mm 4,0 km/h (1 Bft) W 264 ° 0 min 0,000 mm 0,0 UV-I 0 W/m² 10,0 °C 12,1 °C 4,8 km/h (1 Bft)
25.10.2019 06:47 12,0 °C 87 % 1018,4 hPa 0,0 mm 3,2 km/h (1 Bft) W 264 ° 0 min 0,000 mm 0,0 UV-I 0 W/m² 9,9 °C 12,0 °C 4,8 km/h (1 Bft)
25.10.2019 06:48 12,1 °C 87 % 1018,4 hPa 0,0 mm 3,9 km/h (1 Bft) W 264 ° 0 min 0,000 mm 0,0 UV-I 0 W/m² 10,0 °C 12,1 °C 6,4 km/h (2 Bft)
25.10.2019 06:49 12,1 °C 87 % 1018,4 hPa 0,0 mm 1,1 km/h (1 Bft) W 264 ° 0 min 0,000 mm 0,0 UV-I 0 W/m² 10,0 °C 12,1 °C 4,8 km/h (1 Bft)
25.10.2019 06:50 12,0 °C 87 % 1018,4 hPa 0,0 mm 0,0 km/h (0 Bft) W 264 ° 0 min 0,000 mm 0,0 UV-I 0 W/m² 9,9 °C 12,0 °C 0,0 km/h (0 Bft)
25.10.2019 06:51 12,0 °C 87 % 1018,4 hPa 0,0 mm 0,0 km/h (0 Bft) W 264 ° 0 min 0,000 mm 0,0 UV-I 0 W/m² 9,9 °C 12,0 °C 0,0 km/h (0 Bft)
25.10.2019 06:52 12,1 °C 87 % 1018,4 hPa 0,0 mm 0,0 km/h (0 Bft) W 264 ° 0 min 0,000 mm 0,0 UV-I 0 W/m² 10,0 °C 12,1 °C 0,0 km/h (0 Bft)
25.10.2019 06:53 12,1 °C 87 % 1018,5 hPa 0,0 mm 0,0 km/h (0 Bft) W 264 ° 0 min 0,000 mm 0,0 UV-I 0 W/m² 10,0 °C 12,1 °C 0,0 km/h (0 Bft)
25.10.2019 06:54 12,0 °C 87 % 1018,5 hPa 0,0 mm 0,0 km/h (0 Bft) W 264 ° 0 min 0,000 mm 0,0 UV-I 0 W/m² 9,9 °C 12,0 °C 0,0 km/h (0 Bft)
25.10.2019 06:55 12,0 °C 87 % 1018,5 hPa 0,0 mm 0,0 km/h (0 Bft) W 264 ° 0 min 0,000 mm 0,0 UV-I 0 W/m² 9,9 °C 12,0 °C 0,0 km/h (0 Bft)
25.10.2019 06:56 12,1 °C 87 % 1018,6 hPa 0,0 mm 0,0 km/h (0 Bft) W 264 ° 0 min 0,000 mm 0,0 UV-I 0 W/m² 10,0 °C 12,1 °C 0,0 km/h (0 Bft)
25.10.2019 06:57 12,0 °C 87 % 1018,6 hPa 0,0 mm 0,0 km/h (0 Bft) W 264 ° 0 min 0,000 mm 0,0 UV-I 0 W/m² 9,9 °C 12,0 °C 0,0 km/h (0 Bft)
25.10.2019 06:58 12,0 °C 87 % 1018,6 hPa 0,0 mm 0,0 km/h (0 Bft) W 264 ° 0 min 0,000 mm 0,0 UV-I 0 W/m² 9,9 °C 12,0 °C 0,0 km/h (0 Bft)
25.10.2019 06:59 12,0 °C 87 % 1018,6 hPa 0,0 mm 4,1 km/h (1 Bft) S-SW 201 ° 0 min 0,000 mm 0,0 UV-I 0 W/m² 9,9 °C 12,0 °C 6,4 km/h (2 Bft)
25.10.2019 07:00 12,0 °C 87 % 1018,6 hPa 0,0 mm 2,3 km/h (1 Bft) S-SW 202 ° 0 min 0,000 mm 0,0 UV-I 0 W/m² 9,9 °C 12,0 °C 4,8 km/h (1 Bft)
25.10.2019 07:01 12,0 °C 87 % 1018,7 hPa 0,0 mm 0,0 km/h (0 Bft) S-SW 202 ° 0 min 0,000 mm 0,0 UV-I 0 W/m² 9,9 °C 12,0 °C 0,0 km/h (0 Bft)
25.10.2019 07:02 12,0 °C 87 % 1018,7 hPa 0,0 mm 0,0 km/h (0 Bft) S-SW 202 ° 0 min 0,000 mm 0,0 UV-I 0 W/m² 9,9 °C 12,0 °C 0,0 km/h (0 Bft)
25.10.2019 07:03 12,0 °C 88 % 1018,8 hPa 0,0 mm 0,0 km/h (0 Bft) S-SW 202 ° 0 min 0,000 mm 0,0 UV-I 0 W/m² 10,1 °C 12,0 °C 0,0 km/h (0 Bft)
25.10.2019 07:04 12,0 °C 88 % 1018,7 hPa 0,0 mm 0,0 km/h (0 Bft) S-SW 202 ° 0 min 0,000 mm 0,0 UV-I 0 W/m² 10,1 °C 12,0 °C 0,0 km/h (0 Bft)
25.10.2019 07:05 12,1 °C 88 % 1018,7 hPa 0,0 mm 0,0 km/h (0 Bft) S-SW 202 ° 0 min 0,000 mm 0,0 UV-I 0 W/m² 10,2 °C 12,1 °C 0,0 km/h (0 Bft)
25.10.2019 07:06 12,0 °C 88 % 1018,7 hPa 0,0 mm 0,0 km/h (0 Bft) S-SW 202 ° 0 min 0,000 mm 0,0 UV-I 0 W/m² 10,1 °C 12,0 °C 0,0 km/h (0 Bft)
25.10.2019 07:07 12,0 °C 88 % 1018,7 hPa 0,0 mm 0,0 km/h (0 Bft) S-SW 202 ° 0 min 0,000 mm 0,0 UV-I 0 W/m² 10,1 °C 12,0 °C 0,0 km/h (0 Bft)
25.10.2019 07:08 12,0 °C 88 % 1018,8 hPa 0,0 mm 0,0 km/h (0 Bft) S-SW 202 ° 0 min 0,000 mm 0,0 UV-I 0 W/m² 10,1 °C 12,0 °C 0,0 km/h (0 Bft)
25.10.2019 07:09 12,0 °C 88 % 1018,8 hPa 0,0 mm 0,0 km/h (0 Bft) S-SW 202 ° 0 min 0,000 mm 0,0 UV-I 0 W/m² 10,1 °C 12,0 °C 0,0 km/h (0 Bft)
25.10.2019 07:10 11,9 °C 88 % 1018,8 hPa 0,0 mm 0,0 km/h (0 Bft) S-SW 202 ° 0 min 0,000 mm 0,0 UV-I 0 W/m² 10,0 °C 11,9 °C 0,0 km/h (0 Bft)
25.10.2019 07:11 12,0 °C 88 % 1018,8 hPa 0,0 mm 0,0 km/h (0 Bft) S-SW 202 ° 0 min 0,000 mm 0,0 UV-I 0 W/m² 10,1 °C 12,0 °C 0,0 km/h (0 Bft)
25.10.2019 07:12 11,9 °C 88 % 1018,8 hPa 0,0 mm 0,0 km/h (0 Bft) S-SW 202 ° 0 min 0,000 mm 0,0 UV-I 0 W/m² 10,0 °C 11,9 °C 0,0 km/h (0 Bft)
25.10.2019 07:13 11,9 °C 88 % 1018,8 hPa 0,0 mm 0,0 km/h (0 Bft) S-SW 202 ° 0 min 0,000 mm 0,0 UV-I 0 W/m² 10,0 °C 11,9 °C 0,0 km/h (0 Bft)
25.10.2019 07:14 12,0 °C 88 % 1018,8 hPa 0,0 mm 0,0 km/h (0 Bft) S-SW 202 ° 0 min 0,000 mm 0,0 UV-I 0 W/m² 10,1 °C 12,0 °C 0,0 km/h (0 Bft)
25.10.2019 07:15 11,9 °C 88 % 1018,9 hPa 0,0 mm 0,0 km/h (0 Bft) S-SW 202 ° 0 min 0,000 mm 0,0 UV-I 0 W/m² 10,0 °C 11,9 °C 0,0 km/h (0 Bft)
25.10.2019 07:16 11,9 °C 88 % 1019,0 hPa 0,0 mm 0,0 km/h (0 Bft) S-SW 202 ° 0 min 0,000 mm 0,0 UV-I 0 W/m² 10,0 °C 11,9 °C 0,0 km/h (0 Bft)
25.10.2019 07:17 11,9 °C 87 % 1019,0 hPa 0,0 mm 0,0 km/h (0 Bft) S-SW 202 ° 0 min 0,000 mm 0,0 UV-I 0 W/m² 9,8 °C 11,9 °C 0,0 km/h (0 Bft)
25.10.2019 07:18 11,9 °C 88 % 1019,0 hPa 0,0 mm 0,0 km/h (0 Bft) S-SW 202 ° 0 min 0,000 mm 0,0 UV-I 0 W/m² 10,0 °C 11,9 °C 0,0 km/h (0 Bft)
25.10.2019 07:19 11,9 °C 87 % 1019,0 hPa 0,0 mm 0,0 km/h (0 Bft) S-SW 202 ° 0 min 0,000 mm 0,0 UV-I 0 W/m² 9,8 °C 11,9 °C 0,0 km/h (0 Bft)
25.10.2019 07:20 11,9 °C 87 % 1019,1 hPa 0,0 mm 0,0 km/h (0 Bft) S-SW 202 ° 0 min 0,000 mm 0,0 UV-I 0 W/m² 9,8 °C 11,9 °C 0,0 km/h (0 Bft)
25.10.2019 07:21 11,9 °C 87 % 1019,1 hPa 0,0 mm 0,0 km/h (0 Bft) S-SW 202 ° 0 min 0,000 mm 0,0 UV-I 0 W/m² 9,8 °C 11,9 °C 0,0 km/h (0 Bft)
25.10.2019 07:22 11,8 °C 87 % 1019,1 hPa 0,0 mm 0,0 km/h (0 Bft) S-SW 202 ° 0 min 0,000 mm 0,0 UV-I 0 W/m² 9,7 °C 11,8 °C 0,0 km/h (0 Bft)
25.10.2019 07:23 11,8 °C 87 % 1019,2 hPa 0,0 mm 0,0 km/h (0 Bft) S-SW 202 ° 0 min 0,000 mm 0,0 UV-I 0 W/m² 9,7 °C 11,8 °C 0,0 km/h (0 Bft)
25.10.2019 07:24 11,8 °C 87 % 1019,2 hPa 0,0 mm 0,0 km/h (0 Bft) S-SW 202 ° 0 min 0,000 mm 0,0 UV-I 0 W/m² 9,7 °C 11,8 °C 0,0 km/h (0 Bft)
25.10.2019 07:25 11,8 °C 87 % 1019,3 hPa 0,0 mm 0,0 km/h (0 Bft) S-SW 202 ° 0 min 0,000 mm 0,0 UV-I 0 W/m² 9,7 °C 11,8 °C 0,0 km/h (0 Bft)
25.10.2019 07:26 11,8 °C 87 % 1019,3 hPa 0,0 mm 0,0 km/h (0 Bft) S-SW 202 ° 0 min 0,000 mm 0,0 UV-I 0 W/m² 9,7 °C 11,8 °C 0,0 km/h (0 Bft)
25.10.2019 07:27 11,8 °C 87 % 1019,3 hPa 0,0 mm 0,0 km/h (0 Bft) S-SW 202 ° 0 min 0,000 mm 0,0 UV-I 0 W/m² 9,7 °C 11,8 °C 0,0 km/h (0 Bft)
25.10.2019 07:28 11,8 °C 88 % 1019,3 hPa 0,0 mm 0,0 km/h (0 Bft) S-SW 202 ° 0 min 0,000 mm 0,0 UV-I 0 W/m² 9,9 °C 11,8 °C 0,0 km/h (0 Bft)
25.10.2019 07:29 11,8 °C 88 % 1019,3 hPa 0,0 mm 0,0 km/h (0 Bft) S-SW 202 ° 0 min 0,000 mm 0,0 UV-I 0 W/m² 9,9 °C 11,8 °C 0,0 km/h (0 Bft)
25.10.2019 07:30 11,8 °C 88 % 1019,3 hPa 0,0 mm 0,0 km/h (0 Bft) S-SW 202 ° 0 min 0,000 mm 0,0 UV-I 0 W/m² 9,9 °C 11,8 °C 0,0 km/h (0 Bft)
25.10.2019 07:31 11,8 °C 88 % 1019,3 hPa 0,0 mm 0,0 km/h (0 Bft) S-SW 201 ° 0 min 0,000 mm 0,0 UV-I 0 W/m² 9,9 °C 11,8 °C 0,0 km/h (0 Bft)
25.10.2019 07:32 11,8 °C 88 % 1019,2 hPa 0,0 mm 0,0 km/h (0 Bft) S-SW 201 ° 0 min 0,000 mm 0,0 UV-I 0 W/m² 9,9 °C 11,8 °C 0,0 km/h (0 Bft)
25.10.2019 07:33 11,8 °C 88 % 1019,3 hPa 0,0 mm 0,0 km/h (0 Bft) S-SW 201 ° 0 min 0,000 mm 0,0 UV-I 0 W/m² 9,9 °C 11,8 °C 0,0 km/h (0 Bft)
25.10.2019 07:34 11,7 °C 88 % 1019,3 hPa 0,0 mm 0,0 km/h (0 Bft) S-SW 201 ° 0 min 0,000 mm 0,0 UV-I 0 W/m² 9,8 °C 11,7 °C 0,0 km/h (0 Bft)
25.10.2019 07:35 11,7 °C 88 % 1019,2 hPa 0,0 mm 0,0 km/h (0 Bft) S-SW 201 ° 0 min 0,000 mm 0,0 UV-I 0 W/m² 9,8 °C 11,7 °C 0,0 km/h (0 Bft)
25.10.2019 07:36 11,7 °C 88 % 1019,2 hPa 0,0 mm 0,0 km/h (0 Bft) S-SW 200 ° 0 min 0,000 mm 0,0 UV-I 0 W/m² 9,8 °C 11,7 °C 0,0 km/h (0 Bft)
25.10.2019 07:37 11,7 °C 88 % 1019,3 hPa 0,0 mm 0,0 km/h (0 Bft) S-SW 201 ° 0 min 0,000 mm 0,0 UV-I 0 W/m² 9,8 °C 11,7 °C 0,0 km/h (0 Bft)
25.10.2019 07:38 11,7 °C 88 % 1019,3 hPa 0,0 mm 0,0 km/h (0 Bft) S-SW 201 ° 0 min 0,000 mm 0,0 UV-I 0 W/m² 9,8 °C 11,7 °C 0,0 km/h (0 Bft)
25.10.2019 07:39 11,7 °C 88 % 1019,3 hPa 0,0 mm 0,0 km/h (0 Bft) S-SW 201 ° 0 min 0,000 mm 0,0 UV-I 0 W/m² 9,8 °C 11,7 °C 0,0 km/h (0 Bft)
25.10.2019 07:40 11,7 °C 88 % 1019,3 hPa 0,0 mm 0,0 km/h (0 Bft) S-SW 201 ° 0 min 0,000 mm 0,0 UV-I 0 W/m² 9,8 °C 11,7 °C 0,0 km/h (0 Bft)
25.10.2019 07:41 11,7 °C 88 % 1019,3 hPa 0,0 mm 0,0 km/h (0 Bft) S-SW 200 ° 0 min 0,000 mm 0,0 UV-I 0 W/m² 9,8 °C 11,7 °C 0,0 km/h (0 Bft)
25.10.2019 07:42 11,7 °C 88 % 1019,3 hPa 0,2 mm 0,0 km/h (0 Bft) S-SW 200 ° 0 min 0,000 mm 0,0 UV-I 0 W/m² 9,8 °C 11,7 °C 0,0 km/h (0 Bft)
25.10.2019 07:43 11,6 °C 88 % 1019,3 hPa 0,0 mm 0,0 km/h (0 Bft) S-SW 201 ° 0 min 0,000 mm 0,0 UV-I 0 W/m² 9,7 °C 11,6 °C 0,0 km/h (0 Bft)
25.10.2019 07:44 11,6 °C 89 % 1019,3 hPa 0,0 mm 0,0 km/h (0 Bft) S-SW 201 ° 0 min 0,000 mm 0,0 UV-I 0 W/m² 9,8 °C 11,6 °C 0,0 km/h (0 Bft)
25.10.2019 07:45 11,6 °C 89 % 1019,3 hPa 0,0 mm 0,0 km/h (0 Bft) S-SW 200 ° 0 min 0,000 mm 0,0 UV-I 0 W/m² 9,8 °C 11,6 °C 0,0 km/h (0 Bft)
25.10.2019 07:46 11,6 °C 89 % 1019,3 hPa 0,0 mm 0,0 km/h (0 Bft) S-SW 201 ° 0 min 0,000 mm 0,0 UV-I 0 W/m² 9,8 °C 11,6 °C 0,0 km/h (0 Bft)
25.10.2019 07:47 11,6 °C 89 % 1019,4 hPa 0,0 mm 0,0 km/h (0 Bft) S-SW 201 ° 0 min 0,000 mm 0,0 UV-I 0 W/m² 9,8 °C 11,6 °C 0,0 km/h (0 Bft)
25.10.2019 07:48 11,6 °C 89 % 1019,4 hPa 0,0 mm 0,0 km/h (0 Bft) S-SW 201 ° 0 min 0,000 mm 0,0 UV-I 0 W/m² 9,8 °C 11,6 °C 0,0 km/h (0 Bft)
25.10.2019 07:49 11,6 °C 89 % 1019,5 hPa 0,0 mm 0,0 km/h (0 Bft) S-SW 201 ° 0 min 0,000 mm 0,0 UV-I 0 W/m² 9,8 °C 11,6 °C 0,0 km/h (0 Bft)
25.10.2019 07:50 11,6 °C 89 % 1019,4 hPa 0,0 mm 0,0 km/h (0 Bft) S-SW 201 ° 0 min 0,000 mm 0,0 UV-I 0 W/m² 9,8 °C 11,6 °C 0,0 km/h (0 Bft)
25.10.2019 07:51 11,6 °C 89 % 1019,4 hPa 0,0 mm 0,0 km/h (0 Bft) S-SW 201 ° 0 min 0,000 mm 0,0 UV-I 0 W/m² 9,8 °C 11,6 °C 0,0 km/h (0 Bft)
25.10.2019 07:52 11,6 °C 89 % 1019,5 hPa 0,0 mm 0,0 km/h (0 Bft) S-SW 201 ° 0 min 0,000 mm 0,0 UV-I 0 W/m² 9,8 °C 11,6 °C 0,0 km/h (0 Bft)
25.10.2019 07:53 11,6 °C 89 % 1019,5 hPa 0,0 mm 0,0 km/h (0 Bft) S-SW 201 ° 0 min 0,000 mm 0,0 UV-I 0 W/m² 9,8 °C 11,6 °C 0,0 km/h (0 Bft)
25.10.2019 07:54 11,6 °C 89 % 1019,6 hPa 0,0 mm 0,0 km/h (0 Bft) S-SW 201 ° 0 min 0,000 mm 0,0 UV-I 0 W/m² 9,8 °C 11,6 °C 0,0 km/h (0 Bft)
25.10.2019 07:55 11,6 °C 89 % 1019,6 hPa 0,0 mm 0,0 km/h (0 Bft) S-SW 201 ° 0 min 0,000 mm 0,0 UV-I 0 W/m² 9,8 °C 11,6 °C 0,0 km/h (0 Bft)
25.10.2019 07:56 11,6 °C 90 % 1019,6 hPa 0,0 mm 0,0 km/h (0 Bft) S-SW 201 ° 0 min 0,000 mm 0,0 UV-I 0 W/m² 10,0 °C 11,6 °C 0,0 km/h (0 Bft)
25.10.2019 07:57 11,6 °C 90 % 1019,6 hPa 0,0 mm 0,0 km/h (0 Bft) S-SW 201 ° 0 min 0,000 mm 0,0 UV-I 0 W/m² 10,0 °C 11,6 °C 0,0 km/h (0 Bft)
25.10.2019 07:58 11,6 °C 90 % 1019,6 hPa 0,0 mm 0,0 km/h (0 Bft) S-SW 201 ° 0 min 0,000 mm 0,0 UV-I 0 W/m² 10,0 °C 11,6 °C 0,0 km/h (0 Bft)
25.10.2019 07:59 11,6 °C 90 % 1019,6 hPa 0,0 mm 0,0 km/h (0 Bft) S-SW 201 ° 0 min 0,000 mm 0,0 UV-I 0 W/m² 10,0 °C 11,6 °C 0,0 km/h (0 Bft)
25.10.2019 08:00 11,6 °C 90 % 1019,6 hPa 0,0 mm 0,0 km/h (0 Bft) S-SW 201 ° 0 min 0,000 mm 0,0 UV-I 0 W/m² 10,0 °C 11,6 °C 0,0 km/h (0 Bft)
25.10.2019 08:01 11,5 °C 90 % 1019,6 hPa 0,0 mm 0,0 km/h (0 Bft) S-SW 201 ° 0 min 0,000 mm 0,0 UV-I 0 W/m² 9,9 °C 11,5 °C 0,0 km/h (0 Bft)
25.10.2019 08:02 11,5 °C 90 % 1019,7 hPa 0,0 mm 0,0 km/h (0 Bft) S-SW 201 ° 0 min 0,000 mm 0,0 UV-I 0 W/m² 9,9 °C 11,5 °C 0,0 km/h (0 Bft)
25.10.2019 08:03 11,5 °C 90 % 1019,6 hPa 0,0 mm 0,0 km/h (0 Bft) S-SW 201 ° 0 min 0,000 mm 0,0 UV-I 0 W/m² 9,9 °C 11,5 °C 0,0 km/h (0 Bft)
25.10.2019 08:04 11,5 °C 90 % 1019,8 hPa 0,0 mm 0,0 km/h (0 Bft) S-SW 201 ° 0 min 0,000 mm 0,0 UV-I 0 W/m² 9,9 °C 11,5 °C 0,0 km/h (0 Bft)
25.10.2019 08:05 11,5 °C 90 % 1019,8 hPa 0,0 mm 0,0 km/h (0 Bft) S-SW 201 ° 0 min 0,000 mm 0,0 UV-I 0 W/m² 9,9 °C 11,5 °C 0,0 km/h (0 Bft)
25.10.2019 08:06 11,5 °C 90 % 1019,8 hPa 0,0 mm 0,0 km/h (0 Bft) S-SW 201 ° 0 min 0,000 mm 0,0 UV-I 0 W/m² 9,9 °C 11,5 °C 0,0 km/h (0 Bft)
25.10.2019 08:07 11,5 °C 90 % 1019,8 hPa 0,0 mm 0,0 km/h (0 Bft) S-SW 201 ° 0 min 0,000 mm 0,0 UV-I 0 W/m² 9,9 °C 11,5 °C 0,0 km/h (0 Bft)
25.10.2019 08:08 11,5 °C 90 % 1019,9 hPa 0,0 mm 0,0 km/h (0 Bft) S-SW 201 ° 0 min 0,000 mm 0,0 UV-I 0 W/m² 9,9 °C 11,5 °C 0,0 km/h (0 Bft)
25.10.2019 08:09 11,5 °C 90 % 1019,9 hPa 0,0 mm 0,0 km/h (0 Bft) S-SW 201 ° 0 min 0,000 mm 0,0 UV-I 5 W/m² 9,9 °C 11,5 °C 0,0 km/h (0 Bft)
25.10.2019 08:10 11,4 °C 90 % 1019,9 hPa 0,0 mm 0,0 km/h (0 Bft) S-SW 201 ° 0 min 0,000 mm 0,0 UV-I 5 W/m² 9,8 °C 11,4 °C 0,0 km/h (0 Bft)
25.10.2019 08:11 11,4 °C 90 % 1019,9 hPa 0,0 mm 0,0 km/h (0 Bft) S-SW 201 ° 0 min 0,000 mm 0,0 UV-I 5 W/m² 9,8 °C 11,4 °C 0,0 km/h (0 Bft)
25.10.2019 08:12 11,4 °C 90 % 1019,9 hPa 0,0 mm 0,0 km/h (0 Bft) S-SW 201 ° 0 min 0,000 mm 0,0 UV-I 5 W/m² 9,8 °C 11,4 °C 0,0 km/h (0 Bft)
25.10.2019 08:13 11,4 °C 90 % 1019,9 hPa 0,0 mm 0,0 km/h (0 Bft) S-SW 201 ° 0 min 0,000 mm 0,0 UV-I 5 W/m² 9,8 °C 11,4 °C 0,0 km/h (0 Bft)
25.10.2019 08:14 11,4 °C 90 % 1019,9 hPa 0,0 mm 0,0 km/h (0 Bft) S-SW 201 ° 0 min 0,000 mm 0,0 UV-I 5 W/m² 9,8 °C 11,4 °C 0,0 km/h (0 Bft)
25.10.2019 08:15 11,4 °C 90 % 1019,9 hPa 0,0 mm 0,0 km/h (0 Bft) S-SW 201 ° 0 min 0,000 mm 0,0 UV-I 5 W/m² 9,8 °C 11,4 °C 0,0 km/h (0 Bft)
25.10.2019 08:16 11,4 °C 90 % 1019,9 hPa 0,0 mm 0,0 km/h (0 Bft) S-SW 201 ° 0 min 0,000 mm 0,0 UV-I 7 W/m² 9,8 °C 11,4 °C 0,0 km/h (0 Bft)
25.10.2019 08:17 11,4 °C 90 % 1020,0 hPa 0,0 mm 0,0 km/h (0 Bft) S-SW 201 ° 0 min 0,000 mm 0,0 UV-I 7 W/m² 9,8 °C 11,4 °C 0,0 km/h (0 Bft)
25.10.2019 08:18 11,4 °C 90 % 1020,0 hPa 0,0 mm 0,0 km/h (0 Bft) S-SW 201 ° 0 min 0,000 mm 0,0 UV-I 7 W/m² 9,8 °C 11,4 °C 0,0 km/h (0 Bft)
25.10.2019 08:19 11,4 °C 91 % 1020,0 hPa 0,0 mm 0,0 km/h (0 Bft) S-SW 201 ° 0 min 0,000 mm 0,0 UV-I 7 W/m² 10,0 °C 11,4 °C 0,0 km/h (0 Bft)
25.10.2019 08:20 11,4 °C 91 % 1020,0 hPa 0,0 mm 0,0 km/h (0 Bft) S-SW 201 ° 0 min 0,000 mm 0,0 UV-I 7 W/m² 10,0 °C 11,4 °C 0,0 km/h (0 Bft)
25.10.2019 08:21 11,4 °C 91 % 1020,0 hPa 0,0 mm 0,0 km/h (0 Bft) S-SW 201 ° 0 min 0,000 mm 0,0 UV-I 9 W/m² 10,0 °C 11,4 °C 0,0 km/h (0 Bft)
25.10.2019 08:22 11,4 °C 91 % 1020,0 hPa 0,0 mm 0,0 km/h (0 Bft) S-SW 201 ° 0 min 0,000 mm 0,0 UV-I 9 W/m² 10,0 °C 11,4 °C 0,0 km/h (0 Bft)
25.10.2019 08:23 11,4 °C 91 % 1020,0 hPa 0,0 mm 0,0 km/h (0 Bft) S-SW 201 ° 0 min 0,000 mm 0,0 UV-I 9 W/m² 10,0 °C 11,4 °C 0,0 km/h (0 Bft)
25.10.2019 08:24 11,3 °C 91 % 1020,0 hPa 0,0 mm 0,0 km/h (0 Bft) S-SW 201 ° 0 min 0,000 mm 0,0 UV-I 9 W/m² 9,9 °C 11,3 °C 0,0 km/h (0 Bft)
25.10.2019 08:25 11,3 °C 91 % 1020,0 hPa 0,0 mm 0,0 km/h (0 Bft) S-SW 201 ° 0 min 0,000 mm 0,0 UV-I 9 W/m² 9,9 °C 11,3 °C 0,0 km/h (0 Bft)
25.10.2019 08:26 11,3 °C 91 % 1020,0 hPa 0,0 mm 0,0 km/h (0 Bft) S-SW 201 ° 0 min 0,000 mm 0,0 UV-I 9 W/m² 9,9 °C 11,3 °C 0,0 km/h (0 Bft)
25.10.2019 08:27 11,3 °C 91 % 1020,0 hPa 0,0 mm 0,0 km/h (0 Bft) S-SW 201 ° 0 min 0,000 mm 0,0 UV-I 11 W/m² 9,9 °C 11,3 °C 0,0 km/h (0 Bft)
25.10.2019 08:28 11,3 °C 91 % 1020,0 hPa 0,0 mm 0,0 km/h (0 Bft) S-SW 201 ° 0 min 0,000 mm 0,0 UV-I 11 W/m² 9,9 °C 11,3 °C 0,0 km/h (0 Bft)
25.10.2019 08:29 11,3 °C 91 % 1020,0 hPa 0,0 mm 0,0 km/h (0 Bft) S-SW 201 ° 0 min 0,000 mm 0,0 UV-I 11 W/m² 9,9 °C 11,3 °C 0,0 km/h (0 Bft)
25.10.2019 08:30 11,3 °C 91 % 1020,0 hPa 0,0 mm 1,3 km/h (1 Bft) S-SW 201 ° 0 min 0,000 mm 0,0 UV-I 11 W/m² 9,9 °C 11,3 °C 4,8 km/h (1 Bft)
25.10.2019 08:31 11,3 °C 91 % 1020,1 hPa 0,0 mm 4,1 km/h (1 Bft) W-SW 248 ° 0 min 0,000 mm 0,0 UV-I 11 W/m² 9,9 °C 11,3 °C 4,8 km/h (1 Bft)
25.10.2019 08:32 11,3 °C 91 % 1020,1 hPa 0,0 mm 4,0 km/h (1 Bft) W-SW 248 ° 0 min 0,000 mm 0,0 UV-I 11 W/m² 9,9 °C 11,3 °C 4,8 km/h (1 Bft)
25.10.2019 08:33 11,3 °C 91 % 1020,1 hPa 0,0 mm 2,5 km/h (1 Bft) W-SW 247 ° 0 min 0,000 mm 0,0 UV-I 11 W/m² 9,9 °C 11,3 °C 4,8 km/h (1 Bft)
25.10.2019 08:34 11,3 °C 91 % 1020,1 hPa 0,0 mm 2,3 km/h (1 Bft) W-SW 248 ° 0 min 0,000 mm 0,0 UV-I 11 W/m² 9,9 °C 11,3 °C 4,8 km/h (1 Bft)
25.10.2019 08:35 11,3 °C 91 % 1020,3 hPa 0,0 mm 4,4 km/h (1 Bft) W 263 ° 0 min 0,000 mm 0,0 UV-I 11 W/m² 9,9 °C 11,3 °C 4,8 km/h (1 Bft)
25.10.2019 08:36 11,3 °C 91 % 1020,3 hPa 0,0 mm 2,7 km/h (1 Bft) W 263 ° 0 min 0,000 mm 0,0 UV-I 11 W/m² 9,9 °C 11,3 °C 4,8 km/h (1 Bft)
25.10.2019 08:37 11,4 °C 91 % 1020,3 hPa 0,0 mm 1,3 km/h (1 Bft) W 263 ° 0 min 0,000 mm 0,0 UV-I 11 W/m² 10,0 °C 11,4 °C 3,2 km/h (1 Bft)
25.10.2019 08:38 11,3 °C 91 % 1020,3 hPa 0,0 mm 0,5 km/h (0 Bft) W 262 ° 0 min 0,000 mm 0,0 UV-I 11 W/m² 9,9 °C 11,3 °C 1,6 km/h (1 Bft)
25.10.2019 08:39 11,4 °C 91 % 1020,3 hPa 0,0 mm 0,3 km/h (0 Bft) W 262 ° 0 min 0,000 mm 0,0 UV-I 12 W/m² 10,0 °C 11,4 °C 1,6 km/h (1 Bft)
25.10.2019 08:40 11,4 °C 91 % 1020,3 hPa 0,0 mm 0,0 km/h (0 Bft) W 262 ° 0 min 0,000 mm 0,0 UV-I 12 W/m² 10,0 °C 11,4 °C 0,0 km/h (0 Bft)
25.10.2019 08:41 11,4 °C 91 % 1020,3 hPa 0,0 mm 0,0 km/h (0 Bft) W 262 ° 0 min 0,000 mm 0,0 UV-I 12 W/m² 10,0 °C 11,4 °C 0,0 km/h (0 Bft)
25.10.2019 08:42 11,4 °C 91 % 1020,3 hPa 0,0 mm 0,0 km/h (0 Bft) W 262 ° 0 min 0,000 mm 0,0 UV-I 12 W/m² 10,0 °C 11,4 °C 0,0 km/h (0 Bft)
25.10.2019 08:43 11,4 °C 91 % 1020,3 hPa 0,0 mm 0,0 km/h (0 Bft) W 262 ° 0 min 0,000 mm 0,0 UV-I 11 W/m² 10,0 °C 11,4 °C 0,0 km/h (0 Bft)
25.10.2019 08:44 11,4 °C 91 % 1020,3 hPa 0,0 mm 0,0 km/h (0 Bft) W 262 ° 0 min 0,000 mm 0,0 UV-I 11 W/m² 10,0 °C 11,4 °C 0,0 km/h (0 Bft)
25.10.2019 08:45 11,4 °C 91 % 1020,4 hPa 0,0 mm 0,0 km/h (0 Bft) W 262 ° 0 min 0,000 mm 0,0 UV-I 9 W/m² 10,0 °C 11,4 °C 0,0 km/h (0 Bft)
25.10.2019 08:46 11,4 °C 91 % 1020,4 hPa 0,0 mm 0,1 km/h (0 Bft) W 262 ° 0 min 0,000 mm 0,0 UV-I 9 W/m² 10,0 °C 11,4 °C 1,6 km/h (1 Bft)
25.10.2019 08:47 11,4 °C 91 % 1020,4 hPa 0,0 mm 2,9 km/h (1 Bft) W 262 ° 0 min 0,000 mm 0,0 UV-I 9 W/m² 10,0 °C 11,4 °C 4,8 km/h (1 Bft)
25.10.2019 08:48 11,4 °C 91 % 1020,4 hPa 0,0 mm 1,6 km/h (1 Bft) W 262 ° 0 min 0,000 mm 0,0 UV-I 9 W/m² 10,0 °C 11,4 °C 3,2 km/h (1 Bft)
25.10.2019 08:49 11,4 °C 91 % 1020,4 hPa 0,0 mm 2,6 km/h (1 Bft) W 262 ° 0 min 0,000 mm 0,0 UV-I 9 W/m² 10,0 °C 11,4 °C 3,2 km/h (1 Bft)
25.10.2019 08:50 11,4 °C 91 % 1020,5 hPa 0,0 mm 0,4 km/h (0 Bft) W 262 ° 0 min 0,000 mm 0,0 UV-I 9 W/m² 10,0 °C 11,4 °C 3,2 km/h (1 Bft)
25.10.2019 08:51 11,4 °C 91 % 1020,5 hPa 0,0 mm 0,0 km/h (0 Bft) W 262 ° 0 min 0,000 mm 0,0 UV-I 9 W/m² 10,0 °C 11,4 °C 0,0 km/h (0 Bft)
25.10.2019 08:52 11,4 °C 91 % 1020,5 hPa 0,0 mm 0,0 km/h (0 Bft) W 262 ° 0 min 0,000 mm 0,0 UV-I 9 W/m² 10,0 °C 11,4 °C 0,0 km/h (0 Bft)
25.10.2019 08:53 11,4 °C 91 % 1020,5 hPa 0,0 mm 0,0 km/h (0 Bft) W 262 ° 0 min 0,000 mm 0,0 UV-I 9 W/m² 10,0 °C 11,4 °C 0,0 km/h (0 Bft)
25.10.2019 08:54 11,5 °C 91 % 1020,5 hPa 0,0 mm 0,0 km/h (0 Bft) W 262 ° 0 min 0,000 mm 0,0 UV-I 11 W/m² 10,1 °C 11,5 °C 0,0 km/h (0 Bft)
25.10.2019 08:55 11,4 °C 91 % 1020,5 hPa 0,0 mm 0,0 km/h (0 Bft) W 262 ° 0 min 0,000 mm 0,0 UV-I 11 W/m² 10,0 °C 11,4 °C 0,0 km/h (0 Bft)
25.10.2019 08:56 11,5 °C 91 % 1020,5 hPa 0,0 mm 0,0 km/h (0 Bft) W 262 ° 0 min 0,000 mm 0,0 UV-I 11 W/m² 10,1 °C 11,5 °C 0,0 km/h (0 Bft)
25.10.2019 08:57 11,5 °C 91 % 1020,5 hPa 0,0 mm 0,0 km/h (0 Bft) W 262 ° 0 min 0,000 mm 0,0 UV-I 11 W/m² 10,1 °C 11,5 °C 0,0 km/h (0 Bft)
25.10.2019 08:58 11,5 °C 91 % 1020,6 hPa 0,0 mm 0,0 km/h (0 Bft) W 262 ° 0 min 0,000 mm 0,0 UV-I 11 W/m² 10,1 °C 11,5 °C 0,0 km/h (0 Bft)
25.10.2019 08:59 11,6 °C 91 % 1020,6 hPa 0,0 mm 0,0 km/h (0 Bft) W 262 ° 0 min 0,000 mm 0,0 UV-I 11 W/m² 10,2 °C 11,6 °C 0,0 km/h (0 Bft)
25.10.2019 09:00 11,6 °C 91 % 1020,6 hPa 0,0 mm 0,0 km/h (0 Bft) W 262 ° 0 min 0,000 mm 0,0 UV-I 11 W/m² 10,2 °C 11,6 °C 0,0 km/h (0 Bft)
25.10.2019 09:01 11,6 °C 91 % 1020,7 hPa 0,0 mm 0,0 km/h (0 Bft) W 262 ° 0 min 0,000 mm 0,0 UV-I 11 W/m² 10,2 °C 11,6 °C 0,0 km/h (0 Bft)
25.10.2019 09:02 11,6 °C 91 % 1020,6 hPa 0,0 mm 0,0 km/h (0 Bft) W 262 ° 0 min 0,000 mm 0,0 UV-I 11 W/m² 10,2 °C 11,6 °C 0,0 km/h (0 Bft)
25.10.2019 09:03 11,6 °C 91 % 1020,6 hPa 0,0 mm 0,0 km/h (0 Bft) W 262 ° 0 min 0,000 mm 0,0 UV-I 11 W/m² 10,2 °C 11,6 °C 0,0 km/h (0 Bft)
25.10.2019 09:04 11,6 °C 91 % 1020,7 hPa 0,0 mm 0,0 km/h (0 Bft) W 262 ° 0 min 0,000 mm 0,0 UV-I 11 W/m² 10,2 °C 11,6 °C 0,0 km/h (0 Bft)
25.10.2019 09:05 11,6 °C 91 % 1020,7 hPa 0,0 mm 0,0 km/h (0 Bft) W 262 ° 0 min 0,000 mm 0,0 UV-I 11 W/m² 10,2 °C 11,6 °C 0,0 km/h (0 Bft)
25.10.2019 09:06 11,6 °C 91 % 1020,7 hPa 0,0 mm 0,7 km/h (0 Bft) SW 214 ° 0 min 0,000 mm 0,0 UV-I 11 W/m² 10,2 °C 11,6 °C 3,2 km/h (1 Bft)
25.10.2019 09:07 11,6 °C 91 % 1020,7 hPa 0,0 mm 0,4 km/h (0 Bft) SW 215 ° 0 min 0,000 mm 0,0 UV-I 11 W/m² 10,2 °C 11,6 °C 1,6 km/h (1 Bft)
25.10.2019 09:08 11,6 °C 90 % 1020,7 hPa 0,0 mm 0,0 km/h (0 Bft) SW 217 ° 0 min 0,000 mm 0,0 UV-I 12 W/m² 10,0 °C 11,6 °C 0,0 km/h (0 Bft)
25.10.2019 09:09 11,6 °C 90 % 1020,7 hPa 0,0 mm 0,0 km/h (0 Bft) S-SW 205 ° 0 min 0,000 mm 0,0 UV-I 12 W/m² 10,0 °C 11,6 °C 0,0 km/h (0 Bft)
25.10.2019 09:10 11,7 °C 90 % 1020,8 hPa 0,0 mm 0,0 km/h (0 Bft) S-SW 205 ° 0 min 0,000 mm 0,0 UV-I 11 W/m² 10,1 °C 11,7 °C 0,0 km/h (0 Bft)
25.10.2019 09:11 11,7 °C 90 % 1020,8 hPa 0,0 mm 0,0 km/h (0 Bft) S-SW 207 ° 0 min 0,000 mm 0,0 UV-I 11 W/m² 10,1 °C 11,7 °C 0,0 km/h (0 Bft)
25.10.2019 09:12 11,7 °C 90 % 1020,8 hPa 0,0 mm 0,5 km/h (0 Bft) S-SW 206 ° 0 min 0,000 mm 0,0 UV-I 11 W/m² 10,1 °C 11,7 °C 3,2 km/h (1 Bft)
25.10.2019 09:13 11,7 °C 90 % 1020,8 hPa 0,0 mm 2,3 km/h (1 Bft) S-SW 207 ° 0 min 0,000 mm 0,0 UV-I 11 W/m² 10,1 °C 11,7 °C 3,2 km/h (1 Bft)
25.10.2019 09:14 11,7 °C 90 % 1020,8 hPa 0,0 mm 4,2 km/h (1 Bft) W-SW 240 ° 0 min 0,000 mm 0,0 UV-I 11 W/m² 10,1 °C 11,7 °C 8,0 km/h (2 Bft)
25.10.2019 09:15 11,7 °C 90 % 1020,8 hPa 0,0 mm 4,0 km/h (1 Bft) W-SW 238 ° 0 min 0,000 mm 0,0 UV-I 11 W/m² 10,1 °C 11,7 °C 8,0 km/h (2 Bft)
25.10.2019 09:16 11,7 °C 90 % 1020,9 hPa 0,0 mm 1,0 km/h (0 Bft) W-SW 238 ° 0 min 0,000 mm 0,0 UV-I 11 W/m² 10,1 °C 11,7 °C 3,2 km/h (1 Bft)
25.10.2019 09:17 11,7 °C 90 % 1020,9 hPa 0,0 mm 0,2 km/h (0 Bft) W-SW 238 ° 0 min 0,000 mm 0,0 UV-I 11 W/m² 10,1 °C 11,7 °C 1,6 km/h (1 Bft)
25.10.2019 09:18 11,7 °C 90 % 1020,8 hPa 0,0 mm 0,0 km/h (0 Bft) W-SW 238 ° 0 min 0,000 mm 0,0 UV-I 11 W/m² 10,1 °C 11,7 °C 0,0 km/h (0 Bft)
25.10.2019 09:19 11,8 °C 90 % 1020,9 hPa 0,0 mm 0,0 km/h (0 Bft) W-SW 238 ° 0 min 0,000 mm 0,0 UV-I 12 W/m² 10,2 °C 11,8 °C 0,0 km/h (0 Bft)
25.10.2019 09:20 11,7 °C 89 % 1020,9 hPa 0,0 mm 0,0 km/h (0 Bft) W-SW 238 ° 0 min 0,000 mm 0,0 UV-I 12 W/m² 9,9 °C 11,7 °C 0,0 km/h (0 Bft)
25.10.2019 09:21 11,8 °C 89 % 1020,9 hPa 0,0 mm 0,0 km/h (0 Bft) W-SW 238 ° 0 min 0,000 mm 0,0 UV-I 12 W/m² 10,0 °C 11,8 °C 0,0 km/h (0 Bft)
25.10.2019 09:22 11,8 °C 89 % 1020,9 hPa 0,0 mm 0,0 km/h (0 Bft) W-SW 238 ° 0 min 0,000 mm 0,0 UV-I 12 W/m² 10,0 °C 11,8 °C 0,0 km/h (0 Bft)
25.10.2019 09:23 11,8 °C 89 % 1020,8 hPa 0,0 mm 0,4 km/h (0 Bft) SW 226 ° 0 min 0,000 mm 0,0 UV-I 12 W/m² 10,0 °C 11,8 °C 4,8 km/h (1 Bft)
25.10.2019 09:24 11,8 °C 89 % 1020,8 hPa 0,0 mm 3,5 km/h (1 Bft) SW 229 ° 0 min 0,000 mm 0,0 UV-I 12 W/m² 10,0 °C 11,8 °C 4,8 km/h (1 Bft)
25.10.2019 09:25 11,8 °C 89 % 1020,8 hPa 0,0 mm 3,7 km/h (1 Bft) S 181 ° 0 min 0,000 mm 0,0 UV-I 12 W/m² 10,0 °C 11,8 °C 6,4 km/h (2 Bft)
25.10.2019 09:26 11,8 °C 89 % 1020,9 hPa 0,0 mm 1,8 km/h (1 Bft) S 181 ° 0 min 0,000 mm 0,0 UV-I 12 W/m² 10,0 °C 11,8 °C 4,8 km/h (1 Bft)
25.10.2019 09:27 11,8 °C 89 % 1020,8 hPa 0,0 mm 2,1 km/h (1 Bft) S 181 ° 0 min 0,000 mm 0,0 UV-I 12 W/m² 10,0 °C 11,8 °C 3,2 km/h (1 Bft)
25.10.2019 09:28 11,8 °C 89 % 1020,8 hPa 0,0 mm 1,5 km/h (1 Bft) S 181 ° 0 min 0,000 mm 0,0 UV-I 12 W/m² 10,0 °C 11,8 °C 3,2 km/h (1 Bft)
25.10.2019 09:29 11,8 °C 89 % 1020,9 hPa 0,0 mm 1,9 km/h (1 Bft) S 181 ° 0 min 0,000 mm 0,0 UV-I 12 W/m² 10,0 °C 11,8 °C 3,2 km/h (1 Bft)
25.10.2019 09:30 11,8 °C 89 % 1020,8 hPa 0,0 mm 0,0 km/h (0 Bft) S 181 ° 0 min 0,000 mm 0,0 UV-I 12 W/m² 10,0 °C 11,8 °C 0,0 km/h (0 Bft)
25.10.2019 09:31 11,8 °C 89 % 1020,8 hPa 0,0 mm 2,0 km/h (1 Bft) S-SW 196 ° 0 min 0,000 mm 0,0 UV-I 12 W/m² 10,0 °C 11,8 °C 4,8 km/h (1 Bft)
25.10.2019 09:32 11,8 °C 89 % 1020,8 hPa 0,0 mm 3,3 km/h (1 Bft) W-SW 246 ° 0 min 0,000 mm 0,0 UV-I 11 W/m² 10,0 °C 11,8 °C 4,8 km/h (1 Bft)
25.10.2019 09:33 11,8 °C 89 % 1020,8 hPa 0,0 mm 3,0 km/h (1 Bft) W-SW 246 ° 0 min 0,000 mm 0,0 UV-I 12 W/m² 10,0 °C 11,8 °C 4,8 km/h (1 Bft)
25.10.2019 09:34 11,8 °C 89 % 1020,8 hPa 0,0 mm 3,9 km/h (1 Bft) W-SW 246 ° 0 min 0,000 mm 0,0 UV-I 12 W/m² 10,0 °C 11,8 °C 6,4 km/h (2 Bft)
25.10.2019 09:35 11,8 °C 88 % 1020,8 hPa 0,0 mm 2,8 km/h (1 Bft) W-SW 246 ° 0 min 0,000 mm 0,0 UV-I 12 W/m² 9,9 °C 11,8 °C 4,8 km/h (1 Bft)
25.10.2019 09:36 11,8 °C 88 % 1020,8 hPa 0,0 mm 0,5 km/h (0 Bft) W-SW 246 ° 0 min 0,000 mm 0,0 UV-I 12 W/m² 9,9 °C 11,8 °C 3,2 km/h (1 Bft)
25.10.2019 09:37 11,8 °C 88 % 1020,9 hPa 0,0 mm 0,0 km/h (0 Bft) W-SW 246 ° 0 min 0,000 mm 0,0 UV-I 11 W/m² 9,9 °C 11,8 °C 0,0 km/h (0 Bft)
25.10.2019 09:38 11,9 °C 88 % 1020,8 hPa 0,0 mm 2,2 km/h (1 Bft) S 190 ° 0 min 0,000 mm 0,0 UV-I 11 W/m² 10,0 °C 11,9 °C 8,0 km/h (2 Bft)
25.10.2019 09:39 11,8 °C 88 % 1020,9 hPa 0,0 mm 5,0 km/h (1 Bft) S 181 ° 0 min 0,000 mm 0,0 UV-I 11 W/m² 9,9 °C 11,8 °C 6,4 km/h (2 Bft)
25.10.2019 09:40 11,9 °C 88 % 1020,8 hPa 0,0 mm 3,6 km/h (1 Bft) S 181 ° 0 min 0,000 mm 0,0 UV-I 11 W/m² 10,0 °C 11,9 °C 4,8 km/h (1 Bft)
25.10.2019 09:41 11,8 °C 88 % 1020,8 hPa 0,0 mm 4,9 km/h (1 Bft) S 182 ° 0 min 0,000 mm 0,0 UV-I 11 W/m² 9,9 °C 11,8 °C 8,0 km/h (2 Bft)
25.10.2019 09:42 11,9 °C 88 % 1020,8 hPa 0,0 mm 5,7 km/h (1 Bft) S-SW 212 ° 0 min 0,000 mm 0,0 UV-I 11 W/m² 10,0 °C 11,9 °C 6,4 km/h (2 Bft)
25.10.2019 09:43 11,9 °C 88 % 1020,8 hPa 0,0 mm 4,2 km/h (1 Bft) S 188 ° 0 min 0,000 mm 0,0 UV-I 11 W/m² 10,0 °C 11,9 °C 6,4 km/h (2 Bft)
25.10.2019 09:44 11,9 °C 88 % 1020,9 hPa 0,0 mm 5,6 km/h (1 Bft) SW 217 ° 0 min 0,000 mm 0,0 UV-I 11 W/m² 10,0 °C 11,9 °C 6,4 km/h (2 Bft)
25.10.2019 09:45 11,9 °C 87 % 1020,8 hPa 0,0 mm 4,4 km/h (1 Bft) S-SW 205 ° 0 min 0,000 mm 0,0 UV-I 11 W/m² 9,8 °C 11,9 °C 4,8 km/h (1 Bft)
25.10.2019 09:46 11,9 °C 87 % 1020,8 hPa 0,0 mm 3,8 km/h (1 Bft) S-SW 202 ° 0 min 0,000 mm 0,0 UV-I 11 W/m² 9,8 °C 11,9 °C 4,8 km/h (1 Bft)
25.10.2019 09:47 11,9 °C 87 % 1020,8 hPa 0,0 mm 1,5 km/h (1 Bft) S-SW 202 ° 0 min 0,000 mm 0,0 UV-I 12 W/m² 9,8 °C 11,9 °C 3,2 km/h (1 Bft)
25.10.2019 09:48 11,9 °C 87 % 1020,9 hPa 0,0 mm 5,0 km/h (1 Bft) SW 217 ° 0 min 0,000 mm 0,0 UV-I 12 W/m² 9,8 °C 11,9 °C 8,0 km/h (2 Bft)
25.10.2019 09:49 11,9 °C 87 % 1020,9 hPa 0,0 mm 0,9 km/h (0 Bft) SW 217 ° 0 min 0,000 mm 0,0 UV-I 14 W/m² 9,8 °C 11,9 °C 3,2 km/h (1 Bft)
25.10.2019 09:50 11,9 °C 87 % 1020,9 hPa 0,0 mm 3,6 km/h (1 Bft) S-SW 213 ° 0 min 0,000 mm 0,0 UV-I 14 W/m² 9,8 °C 11,9 °C 6,4 km/h (2 Bft)
25.10.2019 09:51 11,9 °C 87 % 1020,9 hPa 0,0 mm 2,3 km/h (1 Bft) S-SW 213 ° 0 min 0,000 mm 0,0 UV-I 14 W/m² 9,8 °C 11,9 °C 4,8 km/h (1 Bft)
25.10.2019 09:52 11,9 °C 87 % 1021,0 hPa 0,0 mm 3,4 km/h (1 Bft) S-SW 213 ° 0 min 0,000 mm 0,0 UV-I 16 W/m² 9,8 °C 11,9 °C 4,8 km/h (1 Bft)
25.10.2019 09:53 11,9 °C 87 % 1021,0 hPa 0,0 mm 4,5 km/h (1 Bft) S-SW 202 ° 0 min 0,000 mm 0,0 UV-I 16 W/m² 9,8 °C 11,9 °C 8,0 km/h (2 Bft)
25.10.2019 09:54 11,9 °C 87 % 1021,0 hPa 0,0 mm 4,6 km/h (1 Bft) S-SW 209 ° 0 min 0,000 mm 0,0 UV-I 16 W/m² 9,8 °C 11,9 °C 6,4 km/h (2 Bft)
25.10.2019 09:55 11,9 °C 87 % 1021,0 hPa 0,0 mm 6,5 km/h (2 Bft) S-SW 197 ° 0 min 0,000 mm 0,0 UV-I 16 W/m² 9,8 °C 11,9 °C 8,0 km/h (2 Bft)
25.10.2019 09:56 11,9 °C 87 % 1021,0 hPa 0,0 mm 4,8 km/h (1 Bft) S-SW 209 ° 0 min 0,000 mm 0,0 UV-I 18 W/m² 9,8 °C 11,9 °C 6,4 km/h (2 Bft)
25.10.2019 09:57 11,9 °C 87 % 1021,0 hPa 0,0 mm 3,5 km/h (1 Bft) S-SW 206 ° 0 min 0,000 mm 0,0 UV-I 18 W/m² 9,8 °C 11,9 °C 6,4 km/h (2 Bft)
25.10.2019 09:58 12,0 °C 87 % 1021,1 hPa 0,0 mm 4,1 km/h (1 Bft) S-SW 201 ° 0 min 0,000 mm 0,0 UV-I 19 W/m² 9,9 °C 12,0 °C 6,4 km/h (2 Bft)
25.10.2019 09:59 12,0 °C 86 % 1021,0 hPa 0,0 mm 4,6 km/h (1 Bft) S 178 ° 0 min 0,000 mm 0,0 UV-I 19 W/m² 9,7 °C 12,0 °C 8,0 km/h (2 Bft)
25.10.2019 10:00 12,0 °C 86 % 1021,0 hPa 0,0 mm 3,9 km/h (1 Bft) S-SW 203 ° 0 min 0,000 mm 0,0 UV-I 19 W/m² 9,7 °C 12,0 °C 4,8 km/h (1 Bft)
25.10.2019 10:01 12,0 °C 86 % 1021,1 hPa 0,0 mm 3,8 km/h (1 Bft) S-SW 201 ° 0 min 0,000 mm 0,0 UV-I 21 W/m² 9,7 °C 12,0 °C 6,4 km/h (2 Bft)
25.10.2019 10:02 12,0 °C 86 % 1021,1 hPa 0,0 mm 2,8 km/h (1 Bft) S-SW 202 ° 0 min 0,000 mm 0,0 UV-I 21 W/m² 9,7 °C 12,0 °C 3,2 km/h (1 Bft)
25.10.2019 10:03 12,0 °C 86 % 1021,1 hPa 0,0 mm 2,3 km/h (1 Bft) S-SW 202 ° 0 min 0,000 mm 0,0 UV-I 21 W/m² 9,7 °C 12,0 °C 3,2 km/h (1 Bft)
25.10.2019 10:04 12,0 °C 86 % 1021,1 hPa 0,0 mm 1,8 km/h (1 Bft) S-SW 202 ° 0 min 0,000 mm 0,0 UV-I 23 W/m² 9,7 °C 12,0 °C 3,2 km/h (1 Bft)
25.10.2019 10:05 12,0 °C 86 % 1021,1 hPa 0,0 mm 3,4 km/h (1 Bft) S-SW 202 ° 0 min 0,000 mm 0,0 UV-I 23 W/m² 9,7 °C 12,0 °C 4,8 km/h (1 Bft)
25.10.2019 10:06 12,0 °C 86 % 1021,1 hPa 0,0 mm 4,1 km/h (1 Bft) S-SW 200 ° 0 min 0,000 mm 0,0 UV-I 23 W/m² 9,7 °C 12,0 °C 6,4 km/h (2 Bft)
25.10.2019 10:07 12,1 °C 86 % 1021,1 hPa 0,0 mm 4,1 km/h (1 Bft) S 183 ° 0 min 0,000 mm 0,0 UV-I 23 W/m² 9,8 °C 12,1 °C 6,4 km/h (2 Bft)
25.10.2019 10:08 12,1 °C 86 % 1021,1 hPa 0,0 mm 4,8 km/h (1 Bft) S-SW 195 ° 0 min 0,000 mm 0,0 UV-I 23 W/m² 9,8 °C 12,1 °C 8,0 km/h (2 Bft)
25.10.2019 10:09 12,1 °C 86 % 1021,1 hPa 0,0 mm 3,6 km/h (1 Bft) S-SW 195 ° 0 min 0,000 mm 0,0 UV-I 25 W/m² 9,8 °C 12,1 °C 4,8 km/h (1 Bft)
25.10.2019 10:10 12,1 °C 86 % 1021,2 hPa 0,0 mm 3,9 km/h (1 Bft) S-SW 200 ° 0 min 0,000 mm 0,0 UV-I 23 W/m² 9,8 °C 12,1 °C 4,8 km/h (1 Bft)
25.10.2019 10:11 12,1 °C 86 % 1021,2 hPa 0,0 mm 2,7 km/h (1 Bft) S-SW 203 ° 0 min 0,000 mm 0,0 UV-I 21 W/m² 9,8 °C 12,1 °C 4,8 km/h (1 Bft)
25.10.2019 10:12 12,1 °C 86 % 1021,2 hPa 0,0 mm 3,8 km/h (1 Bft) S-SW 202 ° 0 min 0,000 mm 0,0 UV-I 19 W/m² 9,8 °C 12,1 °C 4,8 km/h (1 Bft)
25.10.2019 10:13 12,1 °C 86 % 1021,2 hPa 0,0 mm 3,2 km/h (1 Bft) S-SW 202 ° 0 min 0,000 mm 0,0 UV-I 16 W/m² 9,8 °C 12,1 °C 4,8 km/h (1 Bft)
25.10.2019 10:14 12,1 °C 86 % 1021,2 hPa 0,0 mm 3,4 km/h (1 Bft) S-SW 200 ° 0 min 0,000 mm 0,0 UV-I 16 W/m² 9,8 °C 12,1 °C 4,8 km/h (1 Bft)
25.10.2019 10:15 12,1 °C 86 % 1021,2 hPa 0,0 mm 4,4 km/h (1 Bft) S 191 ° 0 min 0,000 mm 0,0 UV-I 16 W/m² 9,8 °C 12,1 °C 8,0 km/h (2 Bft)
25.10.2019 10:16 12,1 °C 86 % 1021,2 hPa 0,0 mm 5,6 km/h (1 Bft) S 188 ° 0 min 0,000 mm 0,0 UV-I 18 W/m² 9,8 °C 12,1 °C 8,0 km/h (2 Bft)
25.10.2019 10:17 12,1 °C 86 % 1021,2 hPa 0,0 mm 5,1 km/h (1 Bft) S 188 ° 0 min 0,000 mm 0,0 UV-I 18 W/m² 9,8 °C 12,1 °C 6,4 km/h (2 Bft)
25.10.2019 10:18 12,1 °C 86 % 1021,2 hPa 0,0 mm 4,0 km/h (1 Bft) S-SW 198 ° 0 min 0,000 mm 0,0 UV-I 18 W/m² 9,8 °C 12,1 °C 6,4 km/h (2 Bft)
25.10.2019 10:19 12,1 °C 85 % 1021,2 hPa 0,0 mm 2,7 km/h (1 Bft) S-SW 196 ° 0 min 0,000 mm 0,0 UV-I 18 W/m² 9,7 °C 12,1 °C 4,8 km/h (1 Bft)
25.10.2019 10:20 12,1 °C 85 % 1021,2 hPa 0,0 mm 4,3 km/h (1 Bft) S-SW 205 ° 0 min 0,000 mm 0,0 UV-I 18 W/m² 9,7 °C 12,1 °C 8,0 km/h (2 Bft)
25.10.2019 10:21 12,1 °C 85 % 1021,3 hPa 0,0 mm 4,3 km/h (1 Bft) W-SW 243 ° 0 min 0,000 mm 0,0 UV-I 18 W/m² 9,7 °C 12,1 °C 6,4 km/h (2 Bft)
25.10.2019 10:22 12,1 °C 85 % 1021,3 hPa 0,0 mm 3,5 km/h (1 Bft) W-SW 242 ° 0 min 0,000 mm 0,0 UV-I 18 W/m² 9,7 °C 12,1 °C 4,8 km/h (1 Bft)
25.10.2019 10:23 12,1 °C 85 % 1021,3 hPa 0,0 mm 2,2 km/h (1 Bft) W-SW 242 ° 0 min 0,000 mm 0,0 UV-I 19 W/m² 9,7 °C 12,1 °C 3,2 km/h (1 Bft)
25.10.2019 10:24 12,1 °C 85 % 1021,3 hPa 0,0 mm 2,8 km/h (1 Bft) W-SW 242 ° 0 min 0,000 mm 0,0 UV-I 19 W/m² 9,7 °C 12,1 °C 4,8 km/h (1 Bft)
25.10.2019 10:25 12,1 °C 85 % 1021,3 hPa 0,0 mm 3,1 km/h (1 Bft) W-SW 242 ° 0 min 0,000 mm 0,0 UV-I 21 W/m² 9,7 °C 12,1 °C 4,8 km/h (1 Bft)
25.10.2019 10:26 12,1 °C 85 % 1021,3 hPa 0,0 mm 3,6 km/h (1 Bft) W-SW 249 ° 0 min 0,000 mm 0,0 UV-I 21 W/m² 9,7 °C 12,1 °C 6,4 km/h (2 Bft)
25.10.2019 10:27 12,1 °C 85 % 1021,3 hPa 0,0 mm 2,6 km/h (1 Bft) S 176 ° 0 min 0,000 mm 0,0 UV-I 21 W/m² 9,7 °C 12,1 °C 4,8 km/h (1 Bft)
25.10.2019 10:28 12,1 °C 85 % 1021,3 hPa 0,0 mm 1,7 km/h (1 Bft) S 176 ° 0 min 0,000 mm 0,0 UV-I 23 W/m² 9,7 °C 12,1 °C 3,2 km/h (1 Bft)
25.10.2019 10:29 12,1 °C 85 % 1021,3 hPa 0,0 mm 3,6 km/h (1 Bft) S-SW 198 ° 0 min 0,000 mm 0,0 UV-I 23 W/m² 9,7 °C 12,1 °C 4,8 km/h (1 Bft)
25.10.2019 10:30 12,1 °C 85 % 1021,3 hPa 0,0 mm 1,7 km/h (1 Bft) S-SW 198 ° 0 min 0,000 mm 0,0 UV-I 25 W/m² 9,7 °C 12,1 °C 3,2 km/h (1 Bft)
25.10.2019 10:31 12,1 °C 85 % 1021,4 hPa 0,0 mm 2,6 km/h (1 Bft) S-SW 198 ° 0 min 0,000 mm 0,0 UV-I 25 W/m² 9,7 °C 12,1 °C 4,8 km/h (1 Bft)
25.10.2019 10:32 12,1 °C 85 % 1021,3 hPa 0,0 mm 0,4 km/h (0 Bft) S-SW 198 ° 0 min 0,000 mm 0,0 UV-I 25 W/m² 9,7 °C 12,1 °C 3,2 km/h (1 Bft)
25.10.2019 10:33 12,1 °C 85 % 1021,4 hPa 0,0 mm 2,1 km/h (1 Bft) S-SW 198 ° 0 min 0,000 mm 0,0 UV-I 25 W/m² 9,7 °C 12,1 °C 4,8 km/h (1 Bft)
25.10.2019 10:34 12,1 °C 85 % 1021,4 hPa 0,0 mm 1,3 km/h (1 Bft) S-SW 198 ° 0 min 0,000 mm 0,0 UV-I 25 W/m² 9,7 °C 12,1 °C 3,2 km/h (1 Bft)
25.10.2019 10:35 12,1 °C 85 % 1021,4 hPa 0,0 mm 0,0 km/h (0 Bft) S-SW 208 ° 0 min 0,000 mm 0,0 UV-I 26 W/m² 9,7 °C 12,1 °C 0,0 km/h (0 Bft)
25.10.2019 10:36 12,1 °C 85 % 1021,4 hPa 0,0 mm 4,0 km/h (1 Bft) W-SW 254 ° 0 min 0,000 mm 0,0 UV-I 28 W/m² 9,7 °C 12,1 °C 6,4 km/h (2 Bft)
25.10.2019 10:37 12,1 °C 85 % 1021,5 hPa 0,0 mm 2,9 km/h (1 Bft) W-SW 254 ° 0 min 0,000 mm 0,0 UV-I 28 W/m² 9,7 °C 12,1 °C 4,8 km/h (1 Bft)
25.10.2019 10:38 12,1 °C 85 % 1021,5 hPa 0,0 mm 2,4 km/h (1 Bft) W-SW 254 ° 0 min 0,000 mm 0,0 UV-I 30 W/m² 9,7 °C 12,1 °C 3,2 km/h (1 Bft)
25.10.2019 10:39 12,1 °C 85 % 1021,4 hPa 0,0 mm 2,2 km/h (1 Bft) W-SW 254 ° 0 min 0,000 mm 0,0 UV-I 32 W/m² 9,7 °C 12,1 °C 3,2 km/h (1 Bft)
25.10.2019 10:40 12,1 °C 85 % 1021,5 hPa 0,0 mm 0,3 km/h (0 Bft) W-SW 254 ° 0 min 0,000 mm 0,0 UV-I 33 W/m² 9,7 °C 12,1 °C 1,6 km/h (1 Bft)
25.10.2019 10:41 12,1 °C 85 % 1021,5 hPa 0,0 mm 0,0 km/h (0 Bft) W-SW 254 ° 0 min 0,000 mm 0,0 UV-I 35 W/m² 9,7 °C 12,1 °C 0,0 km/h (0 Bft)
25.10.2019 10:42 12,1 °C 84 % 1021,5 hPa 0,0 mm 2,1 km/h (1 Bft) W-SW 254 ° 0 min 0,000 mm 0,0 UV-I 39 W/m² 9,5 °C 12,1 °C 3,2 km/h (1 Bft)
25.10.2019 10:43 12,1 °C 84 % 1021,5 hPa 0,0 mm 2,5 km/h (1 Bft) W-SW 254 ° 0 min 0,000 mm 0,0 UV-I 39 W/m² 9,5 °C 12,1 °C 4,8 km/h (1 Bft)
25.10.2019 10:44 12,1 °C 84 % 1021,5 hPa 0,0 mm 3,1 km/h (1 Bft) SW 225 ° 0 min 0,000 mm 0,0 UV-I 39 W/m² 9,5 °C 12,1 °C 4,8 km/h (1 Bft)
25.10.2019 10:45 12,1 °C 84 % 1021,5 hPa 0,0 mm 3,1 km/h (1 Bft) SW 225 ° 0 min 0,000 mm 0,0 UV-I 39 W/m² 9,5 °C 12,1 °C 4,8 km/h (1 Bft)
25.10.2019 10:46 12,1 °C 84 % 1021,5 hPa 0,0 mm 2,1 km/h (1 Bft) W-SW 258 ° 0 min 0,000 mm 0,0 UV-I 40 W/m² 9,5 °C 12,1 °C 3,2 km/h (1 Bft)
25.10.2019 10:47 12,1 °C 84 % 1021,5 hPa 0,0 mm 3,7 km/h (1 Bft) SW 219 ° 0 min 0,000 mm 0,0 UV-I 40 W/m² 9,5 °C 12,1 °C 4,8 km/h (1 Bft)
25.10.2019 10:48 12,1 °C 84 % 1021,6 hPa 0,0 mm 1,3 km/h (1 Bft) SW 219 ° 0 min 0,000 mm 0,0 UV-I 42 W/m² 9,5 °C 12,1 °C 3,2 km/h (1 Bft)
25.10.2019 10:49 12,1 °C 84 % 1021,6 hPa 0,0 mm 1,5 km/h (1 Bft) SW 219 ° 0 min 0,000 mm 0,0 UV-I 44 W/m² 9,5 °C 12,1 °C 3,2 km/h (1 Bft)
25.10.2019 10:50 12,1 °C 84 % 1021,6 hPa 0,0 mm 2,3 km/h (1 Bft) S-SW 200 ° 0 min 0,000 mm 0,0 UV-I 44 W/m² 9,5 °C 12,1 °C 4,8 km/h (1 Bft)
25.10.2019 10:51 12,2 °C 83 % 1021,6 hPa 0,0 mm 1,2 km/h (1 Bft) S-SW 200 ° 0 min 0,000 mm 0,0 UV-I 46 W/m² 9,4 °C 12,2 °C 4,8 km/h (1 Bft)
25.10.2019 10:52 12,1 °C 83 % 1021,6 hPa 0,0 mm 2,3 km/h (1 Bft) SW 223 ° 0 min 0,000 mm 0,0 UV-I 46 W/m² 9,3 °C 12,1 °C 4,8 km/h (1 Bft)
25.10.2019 10:53 12,2 °C 83 % 1021,5 hPa 0,0 mm 2,4 km/h (1 Bft) SW 223 ° 0 min 0,000 mm 0,0 UV-I 46 W/m² 9,4 °C 12,2 °C 4,8 km/h (1 Bft)
25.10.2019 10:54 12,2 °C 83 % 1021,5 hPa 0,0 mm 1,7 km/h (1 Bft) SW 223 ° 0 min 0,000 mm 0,0 UV-I 47 W/m² 9,4 °C 12,2 °C 3,2 km/h (1 Bft)
25.10.2019 10:55 12,2 °C 83 % 1021,5 hPa 0,0 mm 2,9 km/h (1 Bft) SW 223 ° 0 min 0,000 mm 0,0 UV-I 47 W/m² 9,4 °C 12,2 °C 4,8 km/h (1 Bft)
25.10.2019 10:56 12,2 °C 83 % 1021,6 hPa 0,0 mm 4,6 km/h (1 Bft) S 184 ° 0 min 0,000 mm 0,0 UV-I 47 W/m² 9,4 °C 12,2 °C 6,4 km/h (2 Bft)
25.10.2019 10:57 12,2 °C 83 % 1021,6 hPa 0,0 mm 3,9 km/h (1 Bft) SW 234 ° 0 min 0,000 mm 0,0 UV-I 49 W/m² 9,4 °C 12,2 °C 6,4 km/h (2 Bft)
25.10.2019 10:58 12,2 °C 84 % 1021,6 hPa 0,0 mm 3,2 km/h (1 Bft) SW 234 ° 0 min 0,000 mm 0,0 UV-I 51 W/m² 9,6 °C 12,2 °C 4,8 km/h (1 Bft)
25.10.2019 10:59 12,2 °C 84 % 1021,5 hPa 0,0 mm 3,6 km/h (1 Bft) SW 231 ° 0 min 0,000 mm 0,0 UV-I 53 W/m² 9,6 °C 12,2 °C 4,8 km/h (1 Bft)
25.10.2019 11:00 12,3 °C 84 % 1021,6 hPa 0,0 mm 3,3 km/h (1 Bft) SW 229 ° 0 min 0,000 mm 0,0 UV-I 58 W/m² 9,7 °C 12,3 °C 6,4 km/h (2 Bft)
25.10.2019 11:01 12,3 °C 84 % 1021,5 hPa 0,0 mm 2,8 km/h (1 Bft) SW 229 ° 0 min 0,025 mm 0,0 UV-I 58 W/m² 9,7 °C 12,3 °C 4,8 km/h (1 Bft)
25.10.2019 11:02 12,3 °C 84 % 1021,5 hPa 0,0 mm 4,2 km/h (1 Bft) SW 231 ° 0 min 0,000 mm 0,0 UV-I 58 W/m² 9,7 °C 12,3 °C 6,4 km/h (2 Bft)
25.10.2019 11:03 12,4 °C 84 % 1021,5 hPa 0,0 mm 2,1 km/h (1 Bft) SW 231 ° 0 min 0,000 mm 0,0 UV-I 60 W/m² 9,8 °C 12,4 °C 4,8 km/h (1 Bft)
25.10.2019 11:04 12,4 °C 84 % 1021,5 hPa 0,0 mm 0,6 km/h (0 Bft) SW 231 ° 0 min 0,000 mm 0,0 UV-I 60 W/m² 9,8 °C 12,4 °C 1,6 km/h (1 Bft)
25.10.2019 11:05 12,4 °C 83 % 1021,5 hPa 0,0 mm 0,0 km/h (0 Bft) SW 231 ° 0 min 0,000 mm 0,0 UV-I 60 W/m² 9,6 °C 12,4 °C 0,0 km/h (0 Bft)
25.10.2019 11:06 12,4 °C 83 % 1021,5 hPa 0,0 mm 3,2 km/h (1 Bft) SW 236 ° 0 min 0,000 mm 0,0 UV-I 62 W/m² 9,6 °C 12,4 °C 4,8 km/h (1 Bft)
25.10.2019 11:07 12,5 °C 84 % 1021,5 hPa 0,0 mm 2,2 km/h (1 Bft) SW 236 ° 0 min 0,000 mm 0,5 UV-I 62 W/m² 9,9 °C 12,5 °C 3,2 km/h (1 Bft)
25.10.2019 11:08 12,5 °C 84 % 1021,5 hPa 0,0 mm 0,1 km/h (0 Bft) SW 236 ° 0 min 0,000 mm 0,5 UV-I 63 W/m² 9,9 °C 12,5 °C 1,6 km/h (1 Bft)
25.10.2019 11:09 12,6 °C 83 % 1021,6 hPa 0,0 mm 2,1 km/h (1 Bft) SW 235 ° 0 min 0,000 mm 0,5 UV-I 63 W/m² 9,8 °C 12,6 °C 3,2 km/h (1 Bft)
25.10.2019 11:10 12,6 °C 83 % 1021,5 hPa 0,0 mm 3,4 km/h (1 Bft) SW 235 ° 0 min 0,000 mm 0,5 UV-I 63 W/m² 9,8 °C 12,6 °C 4,8 km/h (1 Bft)
25.10.2019 11:11 12,6 °C 83 % 1021,6 hPa 0,0 mm 3,3 km/h (1 Bft) SW 235 ° 0 min 0,000 mm 0,5 UV-I 65 W/m² 9,8 °C 12,6 °C 4,8 km/h (1 Bft)
25.10.2019 11:12 12,6 °C 84 % 1021,6 hPa 0,0 mm 4,1 km/h (1 Bft) SW 234 ° 0 min 0,000 mm 0,5 UV-I 65 W/m² 10,0 °C 12,6 °C 4,8 km/h (1 Bft)
25.10.2019 11:13 12,6 °C 84 % 1021,6 hPa 0,0 mm 3,1 km/h (1 Bft) SW 234 ° 0 min 0,000 mm 0,5 UV-I 67 W/m² 10,0 °C 12,6 °C 4,8 km/h (1 Bft)
25.10.2019 11:14 12,6 °C 84 % 1021,5 hPa 0,0 mm 3,5 km/h (1 Bft) SW 234 ° 0 min 0,000 mm 0,5 UV-I 69 W/m² 10,0 °C 12,6 °C 4,8 km/h (1 Bft)
25.10.2019 11:15 12,6 °C 84 % 1021,5 hPa 0,0 mm 2,6 km/h (1 Bft) SW 234 ° 0 min 0,000 mm 0,5 UV-I 69 W/m² 10,0 °C 12,6 °C 4,8 km/h (1 Bft)
25.10.2019 11:16 12,6 °C 84 % 1021,6 hPa 0,0 mm 3,4 km/h (1 Bft) SW 234 ° 0 min 0,000 mm 0,5 UV-I 69 W/m² 10,0 °C 12,6 °C 4,8 km/h (1 Bft)
25.10.2019 11:17 12,6 °C 84 % 1021,6 hPa 0,0 mm 3,6 km/h (1 Bft) SW 234 ° 0 min 0,000 mm 0,5 UV-I 69 W/m² 10,0 °C 12,6 °C 4,8 km/h (1 Bft)
25.10.2019 11:18 12,6 °C 84 % 1021,6 hPa 0,0 mm 3,0 km/h (1 Bft) SW 234 ° 0 min 0,000 mm 0,5 UV-I 67 W/m² 10,0 °C 12,6 °C 4,8 km/h (1 Bft)
25.10.2019 11:19 12,6 °C 84 % 1021,6 hPa 0,0 mm 2,3 km/h (1 Bft) SW 234 ° 0 min 0,000 mm 0,5 UV-I 67 W/m² 10,0 °C 12,6 °C 4,8 km/h (1 Bft)
25.10.2019 11:20 12,6 °C 84 % 1021,6 hPa 0,0 mm 3,6 km/h (1 Bft) SW 234 ° 0 min 0,000 mm 0,5 UV-I 67 W/m² 10,0 °C 12,6 °C 4,8 km/h (1 Bft)
25.10.2019 11:21 12,6 °C 84 % 1021,6 hPa 0,0 mm 3,6 km/h (1 Bft) W-NW 287 ° 0 min 0,000 mm 0,5 UV-I 67 W/m² 10,0 °C 12,6 °C 4,8 km/h (1 Bft)
25.10.2019 11:22 12,6 °C 84 % 1021,6 hPa 0,0 mm 4,1 km/h (1 Bft) S-SW 202 ° 0 min 0,000 mm 0,5 UV-I 69 W/m² 10,0 °C 12,6 °C 4,8 km/h (1 Bft)
25.10.2019 11:23 12,6 °C 84 % 1021,6 hPa 0,0 mm 3,8 km/h (1 Bft) S-SW 201 ° 0 min 0,000 mm 0,5 UV-I 69 W/m² 10,0 °C 12,6 °C 6,4 km/h (2 Bft)
25.10.2019 11:24 12,6 °C 84 % 1021,6 hPa 0,0 mm 5,0 km/h (1 Bft) W 259 ° 0 min 0,000 mm 0,5 UV-I 69 W/m² 10,0 °C 12,6 °C 6,4 km/h (2 Bft)
25.10.2019 11:25 12,6 °C 84 % 1021,7 hPa 0,0 mm 3,4 km/h (1 Bft) W 259 ° 0 min 0,000 mm 0,5 UV-I 69 W/m² 10,0 °C 12,6 °C 4,8 km/h (1 Bft)
25.10.2019 11:26 12,7 °C 84 % 1021,7 hPa 0,0 mm 1,5 km/h (1 Bft) W 259 ° 0 min 0,000 mm 0,5 UV-I 69 W/m² 10,1 °C 12,7 °C 3,2 km/h (1 Bft)
25.10.2019 11:27 12,7 °C 84 % 1021,6 hPa 0,0 mm 2,1 km/h (1 Bft) W 259 ° 0 min 0,000 mm 0,5 UV-I 67 W/m² 10,1 °C 12,7 °C 3,2 km/h (1 Bft)
25.10.2019 11:28 12,6 °C 84 % 1021,7 hPa 0,0 mm 0,9 km/h (0 Bft) W 259 ° 0 min 0,000 mm 0,5 UV-I 67 W/m² 10,0 °C 12,6 °C 3,2 km/h (1 Bft)
25.10.2019 11:29 12,7 °C 84 % 1021,7 hPa 0,0 mm 0,2 km/h (0 Bft) W 259 ° 0 min 0,000 mm 0,5 UV-I 67 W/m² 10,1 °C 12,7 °C 1,6 km/h (1 Bft)
25.10.2019 11:30 12,6 °C 84 % 1021,7 hPa 0,0 mm 0,1 km/h (0 Bft) W 259 ° 0 min 0,000 mm 0,5 UV-I 67 W/m² 10,0 °C 12,6 °C 1,6 km/h (1 Bft)
25.10.2019 11:31 12,6 °C 84 % 1021,7 hPa 0,0 mm 2,5 km/h (1 Bft) W 259 ° 0 min 0,000 mm 0,5 UV-I 67 W/m² 10,0 °C 12,6 °C 4,8 km/h (1 Bft)
25.10.2019 11:32 12,7 °C 84 % 1021,7 hPa 0,0 mm 4,1 km/h (1 Bft) SW 219 ° 0 min 0,000 mm 0,5 UV-I 69 W/m² 10,1 °C 12,7 °C 6,4 km/h (2 Bft)
25.10.2019 11:33 12,7 °C 83 % 1021,7 hPa 0,0 mm 1,7 km/h (1 Bft) SW 219 ° 0 min 0,000 mm 0,5 UV-I 69 W/m² 9,9 °C 12,7 °C 3,2 km/h (1 Bft)
25.10.2019 11:34 12,7 °C 83 % 1021,7 hPa 0,0 mm 0,2 km/h (0 Bft) SW 219 ° 0 min 0,000 mm 0,5 UV-I 70 W/m² 9,9 °C 12,7 °C 1,6 km/h (1 Bft)
25.10.2019 11:35 12,7 °C 84 % 1021,7 hPa 0,0 mm 0,9 km/h (0 Bft) SW 219 ° 0 min 0,000 mm 0,5 UV-I 72 W/m² 10,1 °C 12,7 °C 4,8 km/h (1 Bft)
25.10.2019 11:36 12,7 °C 84 % 1021,7 hPa 0,0 mm 2,4 km/h (1 Bft) S-SW 192 ° 0 min 0,000 mm 0,5 UV-I 72 W/m² 10,1 °C 12,7 °C 8,0 km/h (2 Bft)
25.10.2019 11:37 12,7 °C 83 % 1021,7 hPa 0,0 mm 3,0 km/h (1 Bft) S 175 ° 0 min 0,000 mm 0,5 UV-I 72 W/m² 9,9 °C 12,7 °C 8,0 km/h (2 Bft)
25.10.2019 11:38 12,7 °C 83 % 1021,8 hPa 0,0 mm 0,0 km/h (0 Bft) S 175 ° 0 min 0,000 mm 0,5 UV-I 72 W/m² 9,9 °C 12,7 °C 0,0 km/h (0 Bft)
25.10.2019 11:39 12,7 °C 83 % 1021,7 hPa 0,0 mm 0,0 km/h (0 Bft) S 175 ° 0 min 0,000 mm 0,5 UV-I 72 W/m² 9,9 °C 12,7 °C 0,0 km/h (0 Bft)
25.10.2019 11:40 12,7 °C 83 % 1021,8 hPa 0,0 mm 0,0 km/h (0 Bft) S 175 ° 0 min 0,000 mm 0,5 UV-I 72 W/m² 9,9 °C 12,7 °C 0,0 km/h (0 Bft)
25.10.2019 11:41 12,7 °C 83 % 1021,8 hPa 0,0 mm 0,0 km/h (0 Bft) S 175 ° 0 min 0,000 mm 0,5 UV-I 74 W/m² 9,9 °C 12,7 °C 0,0 km/h (0 Bft)
25.10.2019 11:42 12,7 °C 83 % 1021,8 hPa 0,0 mm 0,0 km/h (0 Bft) S 175 ° 0 min 0,000 mm 0,6 UV-I 74 W/m² 9,9 °C 12,7 °C 0,0 km/h (0 Bft)
25.10.2019 11:43 12,7 °C 83 % 1021,8 hPa 0,0 mm 0,3 km/h (0 Bft) S 175 ° 0 min 0,000 mm 0,6 UV-I 76 W/m² 9,9 °C 12,7 °C 3,2 km/h (1 Bft)
25.10.2019 11:44 12,7 °C 83 % 1021,8 hPa 0,0 mm 1,1 km/h (1 Bft) S 175 ° 0 min 0,000 mm 0,6 UV-I 76 W/m² 9,9 °C 12,7 °C 3,2 km/h (1 Bft)
25.10.2019 11:45 12,8 °C 83 % 1021,8 hPa 0,0 mm 0,7 km/h (0 Bft) S 177 ° 0 min 0,000 mm 0,6 UV-I 77 W/m² 10,0 °C 12,8 °C 3,2 km/h (1 Bft)
25.10.2019 11:46 12,7 °C 83 % 1021,8 hPa 0,0 mm 2,3 km/h (1 Bft) S 177 ° 0 min 0,000 mm 0,6 UV-I 77 W/m² 9,9 °C 12,7 °C 3,2 km/h (1 Bft)
25.10.2019 11:47 12,8 °C 83 % 1021,8 hPa 0,0 mm 1,9 km/h (1 Bft) S 177 ° 0 min 0,000 mm 0,6 UV-I 79 W/m² 10,0 °C 12,8 °C 3,2 km/h (1 Bft)
25.10.2019 11:48 12,8 °C 83 % 1021,8 hPa 0,0 mm 0,0 km/h (0 Bft) S 177 ° 0 min 0,000 mm 0,6 UV-I 81 W/m² 10,0 °C 12,8 °C 0,0 km/h (0 Bft)
25.10.2019 11:49 12,8 °C 83 % 1021,8 hPa 0,0 mm 0,0 km/h (0 Bft) S 177 ° 0 min 0,000 mm 0,6 UV-I 79 W/m² 10,0 °C 12,8 °C 0,0 km/h (0 Bft)
25.10.2019 11:50 12,8 °C 84 % 1021,8 hPa 0,0 mm 0,0 km/h (0 Bft) S 177 ° 0 min 0,000 mm 0,6 UV-I 77 W/m² 10,2 °C 12,8 °C 0,0 km/h (0 Bft)
25.10.2019 11:51 12,8 °C 83 % 1021,9 hPa 0,0 mm 0,7 km/h (0 Bft) S 177 ° 0 min 0,000 mm 0,6 UV-I 76 W/m² 10,0 °C 12,8 °C 3,2 km/h (1 Bft)
25.10.2019 11:52 12,8 °C 83 % 1021,9 hPa 0,0 mm 2,8 km/h (1 Bft) S 177 ° 0 min 0,000 mm 0,6 UV-I 76 W/m² 10,0 °C 12,8 °C 4,8 km/h (1 Bft)
25.10.2019 11:53 12,8 °C 83 % 1021,9 hPa 0,0 mm 0,0 km/h (0 Bft) S 177 ° 0 min 0,000 mm 0,6 UV-I 76 W/m² 10,0 °C 12,8 °C 0,0 km/h (0 Bft)
25.10.2019 11:54 12,8 °C 83 % 1021,8 hPa 0,0 mm 0,0 km/h (0 Bft) S 177 ° 0 min 0,000 mm 0,6 UV-I 77 W/m² 10,0 °C 12,8 °C 0,0 km/h (0 Bft)
25.10.2019 11:55 12,8 °C 83 % 1021,9 hPa 0,0 mm 0,0 km/h (0 Bft) S 177 ° 0 min 0,000 mm 0,6 UV-I 79 W/m² 10,0 °C 12,8 °C 0,0 km/h (0 Bft)
25.10.2019 11:56 12,8 °C 83 % 1021,9 hPa 0,0 mm 0,0 km/h (0 Bft) S 177 ° 0 min 0,000 mm 0,6 UV-I 81 W/m² 10,0 °C 12,8 °C 0,0 km/h (0 Bft)
25.10.2019 11:57 12,8 °C 83 % 1021,9 hPa 0,0 mm 0,0 km/h (0 Bft) S 177 ° 0 min 0,000 mm 0,6 UV-I 84 W/m² 10,0 °C 12,8 °C 0,0 km/h (0 Bft)
25.10.2019 11:58 12,8 °C 83 % 1021,9 hPa 0,0 mm 0,0 km/h (0 Bft) S 177 ° 0 min 0,000 mm 0,6 UV-I 88 W/m² 10,0 °C 12,8 °C 0,0 km/h (0 Bft)
25.10.2019 11:59 12,8 °C 83 % 1021,9 hPa 0,0 mm 0,0 km/h (0 Bft) S 177 ° 0 min 0,000 mm 0,7 UV-I 88 W/m² 10,0 °C 12,8 °C 0,0 km/h (0 Bft)
25.10.2019 12:00 12,8 °C 83 % 1021,9 hPa 0,0 mm 0,0 km/h (0 Bft) S 177 ° 0 min 0,000 mm 0,7 UV-I 90 W/m² 10,0 °C 12,8 °C 0,0 km/h (0 Bft)
25.10.2019 12:01 12,8 °C 83 % 1021,9 hPa 0,0 mm 0,0 km/h (0 Bft) S 177 ° 0 min 0,051 mm 0,7 UV-I 90 W/m² 10,0 °C 12,8 °C 0,0 km/h (0 Bft)
25.10.2019 12:02 12,9 °C 84 % 1021,9 hPa 0,0 mm 0,0 km/h (0 Bft) S 177 ° 0 min 0,000 mm 0,7 UV-I 91 W/m² 10,3 °C 12,9 °C 0,0 km/h (0 Bft)
25.10.2019 12:03 12,9 °C 84 % 1021,9 hPa 0,0 mm 0,0 km/h (0 Bft) S 177 ° 0 min 0,000 mm 0,7 UV-I 95 W/m² 10,3 °C 12,9 °C 0,0 km/h (0 Bft)
25.10.2019 12:04 12,9 °C 84 % 1021,9 hPa 0,0 mm 0,0 km/h (0 Bft) S 177 ° 0 min 0,000 mm 0,7 UV-I 98 W/m² 10,3 °C 12,9 °C 0,0 km/h (0 Bft)
25.10.2019 12:05 12,9 °C 84 % 1021,9 hPa 0,0 mm 0,0 km/h (0 Bft) S 177 ° 0 min 0,000 mm 0,7 UV-I 98 W/m² 10,3 °C 12,9 °C 0,0 km/h (0 Bft)
25.10.2019 12:06 12,9 °C 84 % 1021,9 hPa 0,0 mm 0,0 km/h (0 Bft) S 177 ° 0 min 0,000 mm 0,7 UV-I 98 W/m² 10,3 °C 12,9 °C 0,0 km/h (0 Bft)
25.10.2019 12:07 13,0 °C 84 % 1021,9 hPa 0,0 mm 0,0 km/h (0 Bft) S 177 ° 0 min 0,000 mm 0,7 UV-I 97 W/m² 10,4 °C 13,0 °C 0,0 km/h (0 Bft)
25.10.2019 12:08 13,0 °C 84 % 1021,9 hPa 0,0 mm 0,0 km/h (0 Bft) S 177 ° 0 min 0,000 mm 0,7 UV-I 97 W/m² 10,4 °C 13,0 °C 0,0 km/h (0 Bft)
25.10.2019 12:09 13,0 °C 84 % 1022,0 hPa 0,0 mm 0,0 km/h (0 Bft) S 177 ° 0 min 0,000 mm 0,7 UV-I 95 W/m² 10,4 °C 13,0 °C 0,0 km/h (0 Bft)
25.10.2019 12:10 13,0 °C 84 % 1022,0 hPa 0,0 mm 0,0 km/h (0 Bft) S 177 ° 0 min 0,000 mm 0,7 UV-I 93 W/m² 10,4 °C 13,0 °C 0,0 km/h (0 Bft)
25.10.2019 12:11 13,1 °C 84 % 1022,0 hPa 0,0 mm 0,0 km/h (0 Bft) S 177 ° 0 min 0,000 mm 0,7 UV-I 91 W/m² 10,5 °C 13,1 °C 0,0 km/h (0 Bft)
25.10.2019 12:12 13,1 °C 83 % 1022,0 hPa 0,0 mm 0,0 km/h (0 Bft) S 177 ° 0 min 0,000 mm 0,7 UV-I 93 W/m² 10,3 °C 13,1 °C 0,0 km/h (0 Bft)
25.10.2019 12:13 13,1 °C 84 % 1022,0 hPa 0,0 mm 0,0 km/h (0 Bft) S 177 ° 0 min 0,000 mm 0,7 UV-I 97 W/m² 10,5 °C 13,1 °C 0,0 km/h (0 Bft)
25.10.2019 12:14 13,1 °C 83 % 1021,9 hPa 0,0 mm 0,0 km/h (0 Bft) S 177 ° 0 min 0,000 mm 0,8 UV-I 100 W/m² 10,3 °C 13,1 °C 0,0 km/h (0 Bft)
25.10.2019 12:15 13,1 °C 83 % 1021,9 hPa 0,0 mm 0,0 km/h (0 Bft) S 177 ° 0 min 0,000 mm 0,8 UV-I 104 W/m² 10,3 °C 13,1 °C 0,0 km/h (0 Bft)
25.10.2019 12:16 13,0 °C 83 % 1022,0 hPa 0,0 mm 0,0 km/h (0 Bft) S 177 ° 0 min 0,000 mm 0,8 UV-I 109 W/m² 10,2 °C 13,0 °C 0,0 km/h (0 Bft)
25.10.2019 12:17 13,1 °C 83 % 1022,0 hPa 0,0 mm 0,0 km/h (0 Bft) S 177 ° 0 min 0,000 mm 0,8 UV-I 111 W/m² 10,3 °C 13,1 °C 0,0 km/h (0 Bft)
25.10.2019 12:18 13,1 °C 84 % 1021,9 hPa 0,0 mm 0,0 km/h (0 Bft) S 177 ° 0 min 0,000 mm 0,9 UV-I 111 W/m² 10,5 °C 13,1 °C 0,0 km/h (0 Bft)
25.10.2019 12:19 13,1 °C 84 % 1021,9 hPa 0,0 mm 0,0 km/h (0 Bft) S 177 ° 0 min 0,000 mm 0,9 UV-I 113 W/m² 10,5 °C 13,1 °C 0,0 km/h (0 Bft)
25.10.2019 12:20 13,1 °C 84 % 1021,9 hPa 0,0 mm 0,0 km/h (0 Bft) S 177 ° 0 min 0,000 mm 0,9 UV-I 114 W/m² 10,5 °C 13,1 °C 0,0 km/h (0 Bft)
25.10.2019 12:21 13,2 °C 84 % 1021,9 hPa 0,0 mm 0,0 km/h (0 Bft) S 177 ° 0 min 0,000 mm 0,9 UV-I 116 W/m² 10,6 °C 13,2 °C 0,0 km/h (0 Bft)
25.10.2019 12:22 13,2 °C 83 % 1021,9 hPa 0,0 mm 0,0 km/h (0 Bft) S 177 ° 0 min 0,000 mm 0,9 UV-I 116 W/m² 10,4 °C 13,2 °C 0,0 km/h (0 Bft)
25.10.2019 12:23 13,2 °C 83 % 1022,0 hPa 0,0 mm 0,0 km/h (0 Bft) S 177 ° 0 min 0,000 mm 0,9 UV-I 116 W/m² 10,4 °C 13,2 °C 0,0 km/h (0 Bft)
25.10.2019 12:24 13,2 °C 83 % 1021,9 hPa 0,0 mm 0,0 km/h (0 Bft) S 177 ° 0 min 0,000 mm 0,9 UV-I 116 W/m² 10,4 °C 13,2 °C 0,0 km/h (0 Bft)
25.10.2019 12:25 13,2 °C 83 % 1021,9 hPa 0,0 mm 0,0 km/h (0 Bft) S 177 ° 0 min 0,000 mm 0,9 UV-I 118 W/m² 10,4 °C 13,2 °C 0,0 km/h (0 Bft)
25.10.2019 12:26 13,2 °C 83 % 1021,9 hPa 0,0 mm 0,0 km/h (0 Bft) S 177 ° 0 min 0,000 mm 0,9 UV-I 118 W/m² 10,4 °C 13,2 °C 0,0 km/h (0 Bft)
25.10.2019 12:27 13,2 °C 83 % 1021,9 hPa 0,0 mm 0,0 km/h (0 Bft) S 177 ° 0 min 0,000 mm 0,9 UV-I 118 W/m² 10,4 °C 13,2 °C 0,0 km/h (0 Bft)
25.10.2019 12:28 13,2 °C 83 % 1021,9 hPa 0,0 mm 0,0 km/h (0 Bft) S 177 ° 0 min 0,000 mm 0,9 UV-I 118 W/m² 10,4 °C 13,2 °C 0,0 km/h (0 Bft)
25.10.2019 12:29 13,3 °C 83 % 1021,9 hPa 0,0 mm 0,0 km/h (0 Bft) S 177 ° 0 min 0,000 mm 0,9 UV-I 120 W/m² 10,5 °C 13,3 °C 0,0 km/h (0 Bft)
25.10.2019 12:30 13,3 °C 83 % 1021,9 hPa 0,0 mm 0,0 km/h (0 Bft) S 177 ° 0 min 0,000 mm 0,9 UV-I 121 W/m² 10,5 °C 13,3 °C 0,0 km/h (0 Bft)
25.10.2019 12:31 13,3 °C 82 % 1021,9 hPa 0,0 mm 0,0 km/h (0 Bft) S 177 ° 0 min 0,000 mm 0,9 UV-I 121 W/m² 10,3 °C 13,3 °C 0,0 km/h (0 Bft)
25.10.2019 12:32 13,3 °C 82 % 1021,9 hPa 0,0 mm 0,0 km/h (0 Bft) S 177 ° 0 min 0,000 mm 0,9 UV-I 123 W/m² 10,3 °C 13,3 °C 0,0 km/h (0 Bft)
25.10.2019 12:33 13,3 °C 82 % 1021,9 hPa 0,0 mm 0,0 km/h (0 Bft) S 177 ° 0 min 0,000 mm 0,9 UV-I 123 W/m² 10,3 °C 13,3 °C 0,0 km/h (0 Bft)
25.10.2019 12:34 13,3 °C 82 % 1021,9 hPa 0,0 mm 0,0 km/h (0 Bft) S 177 ° 0 min 0,000 mm 0,9 UV-I 125 W/m² 10,3 °C 13,3 °C 0,0 km/h (0 Bft)
25.10.2019 12:35 13,3 °C 83 % 1021,8 hPa 0,0 mm 0,0 km/h (0 Bft) S 177 ° 0 min 0,000 mm 0,9 UV-I 127 W/m² 10,5 °C 13,3 °C 0,0 km/h (0 Bft)
25.10.2019 12:36 13,3 °C 83 % 1021,9 hPa 0,0 mm 0,0 km/h (0 Bft) S 177 ° 0 min 0,000 mm 1,0 UV-I 130 W/m² 10,5 °C 13,3 °C 0,0 km/h (0 Bft)
25.10.2019 12:37 13,3 °C 82 % 1021,9 hPa 0,0 mm 0,0 km/h (0 Bft) S 177 ° 0 min 0,000 mm 1,0 UV-I 134 W/m² 10,3 °C 13,3 °C 0,0 km/h (0 Bft)
25.10.2019 12:38 13,4 °C 82 % 1021,9 hPa 0,0 mm 0,0 km/h (0 Bft) S 177 ° 0 min 0,000 mm 1,0 UV-I 139 W/m² 10,4 °C 13,4 °C 0,0 km/h (0 Bft)
25.10.2019 12:39 13,4 °C 82 % 1021,9 hPa 0,0 mm 0,0 km/h (0 Bft) S 177 ° 0 min 0,000 mm 1,1 UV-I 153 W/m² 10,4 °C 13,4 °C 0,0 km/h (0 Bft)
25.10.2019 12:40 13,4 °C 82 % 1021,9 hPa 0,0 mm 0,6 km/h (0 Bft) S 177 ° 0 min 0,000 mm 1,2 UV-I 160 W/m² 10,4 °C 13,4 °C 3,2 km/h (1 Bft)
25.10.2019 12:41 13,4 °C 81 % 1021,9 hPa 0,0 mm 3,4 km/h (1 Bft) S 177 ° 0 min 0,000 mm 1,2 UV-I 171 W/m² 10,2 °C 13,4 °C 4,8 km/h (1 Bft)
25.10.2019 12:42 13,4 °C 81 % 1021,9 hPa 0,0 mm 2,5 km/h (1 Bft) S 177 ° 0 min 0,000 mm 1,3 UV-I 179 W/m² 10,2 °C 13,4 °C 4,8 km/h (1 Bft)
25.10.2019 12:43 13,4 °C 82 % 1021,9 hPa 0,0 mm 0,0 km/h (0 Bft) S 177 ° 0 min 0,000 mm 1,3 UV-I 190 W/m² 10,4 °C 13,4 °C 0,0 km/h (0 Bft)
25.10.2019 12:44 13,4 °C 82 % 1021,9 hPa 0,0 mm 0,0 km/h (0 Bft) S 177 ° 0 min 0,000 mm 1,4 UV-I 199 W/m² 10,4 °C 13,4 °C 0,0 km/h (0 Bft)
25.10.2019 12:45 13,5 °C 81 % 1021,9 hPa 0,0 mm 0,0 km/h (0 Bft) S 177 ° 0 min 0,000 mm 1,4 UV-I 213 W/m² 10,3 °C 13,5 °C 0,0 km/h (0 Bft)
25.10.2019 12:46 13,5 °C 82 % 1021,9 hPa 0,0 mm 0,0 km/h (0 Bft) S 177 ° 0 min 0,000 mm 1,5 UV-I 221 W/m² 10,5 °C 13,5 °C 0,0 km/h (0 Bft)
25.10.2019 12:47 13,5 °C 81 % 1021,9 hPa 0,0 mm 0,7 km/h (0 Bft) W 269 ° 0 min 0,000 mm 1,5 UV-I 227 W/m² 10,3 °C 13,5 °C 4,8 km/h (1 Bft)
25.10.2019 12:48 13,6 °C 82 % 1021,9 hPa 0,0 mm 2,7 km/h (1 Bft) W 269 ° 0 min 0,000 mm 1,6 UV-I 237 W/m² 10,6 °C 13,6 °C 4,8 km/h (1 Bft)
25.10.2019 12:49 13,6 °C 81 % 1021,9 hPa 0,0 mm 3,2 km/h (1 Bft) W 269 ° 0 min 0,000 mm 1,6 UV-I 248 W/m² 10,4 °C 13,6 °C 6,4 km/h (2 Bft)
25.10.2019 12:50 13,6 °C 80 % 1021,8 hPa 0,0 mm 4,9 km/h (1 Bft) W-NW 296 ° 0 min 0,000 mm 1,7 UV-I 251 W/m² 10,2 °C 13,6 °C 8,0 km/h (2 Bft)
25.10.2019 12:51 13,7 °C 81 % 1021,9 hPa 0,0 mm 2,1 km/h (1 Bft) W-NW 298 ° 0 min 0,000 mm 1,7 UV-I 255 W/m² 10,5 °C 13,7 °C 4,8 km/h (1 Bft)
25.10.2019 12:52 13,7 °C 80 % 1021,8 hPa 0,0 mm 0,0 km/h (0 Bft) W-NW 298 ° 0 min 0,000 mm 1,8 UV-I 253 W/m² 10,3 °C 13,7 °C 0,0 km/h (0 Bft)
25.10.2019 12:53 13,7 °C 80 % 1021,9 hPa 0,0 mm 0,0 km/h (0 Bft) W-NW 298 ° 0 min 0,000 mm 1,8 UV-I 257 W/m² 10,3 °C 13,7 °C 0,0 km/h (0 Bft)
25.10.2019 12:54 13,8 °C 79 % 1021,8 hPa 0,0 mm 0,0 km/h (0 Bft) W-NW 298 ° 0 min 0,000 mm 1,8 UV-I 262 W/m² 10,2 °C 13,8 °C 0,0 km/h (0 Bft)
25.10.2019 12:55 13,8 °C 80 % 1021,9 hPa 0,0 mm 0,0 km/h (0 Bft) W-NW 298 ° 0 min 0,000 mm 1,8 UV-I 255 W/m² 10,4 °C 13,8 °C 0,0 km/h (0 Bft)
25.10.2019 12:56 13,8 °C 79 % 1021,8 hPa 0,0 mm 0,0 km/h (0 Bft) W-NW 298 ° 0 min 0,000 mm 1,8 UV-I 250 W/m² 10,2 °C 13,8 °C 0,0 km/h (0 Bft)
25.10.2019 12:57 13,8 °C 79 % 1021,8 hPa 0,0 mm 2,0 km/h (1 Bft) NW 316 ° 0 min 0,000 mm 1,9 UV-I 257 W/m² 10,2 °C 13,8 °C 4,8 km/h (1 Bft)
25.10.2019 12:58 13,9 °C 79 % 1021,8 hPa 0,0 mm 2,3 km/h (1 Bft) N-NW 331 ° 0 min 0,000 mm 1,9 UV-I 251 W/m² 10,3 °C 13,9 °C 3,2 km/h (1 Bft)
25.10.2019 12:59 13,9 °C 79 % 1021,8 hPa 0,0 mm 1,5 km/h (1 Bft) N-NW 330 ° 0 min 0,000 mm 1,8 UV-I 241 W/m² 10,3 °C 13,9 °C 3,2 km/h (1 Bft)
25.10.2019 13:00 13,8 °C 77 % 1021,8 hPa 0,0 mm 1,8 km/h (1 Bft) N-NW 330 ° 0 min 0,000 mm 1,8 UV-I 232 W/m² 9,8 °C 13,8 °C 3,2 km/h (1 Bft)
25.10.2019 13:01 13,8 °C 77 % 1021,8 hPa 0,0 mm 2,4 km/h (1 Bft) W-NW 288 ° 0 min 0,076 mm 1,8 UV-I 218 W/m² 9,8 °C 13,8 °C 6,4 km/h (2 Bft)
25.10.2019 13:02 13,8 °C 78 % 1021,8 hPa 0,0 mm 5,8 km/h (2 Bft) W-NW 292 ° 0 min 0,000 mm 1,8 UV-I 207 W/m² 10,0 °C 13,8 °C 6,4 km/h (2 Bft)
25.10.2019 13:03 13,8 °C 78 % 1021,8 hPa 0,0 mm 3,8 km/h (1 Bft) W-NW 292 ° 0 min 0,000 mm 1,7 UV-I 192 W/m² 10,0 °C 13,8 °C 6,4 km/h (2 Bft)
25.10.2019 13:04 13,7 °C 77 % 1021,8 hPa 0,0 mm 3,4 km/h (1 Bft) W-NW 283 ° 0 min 0,000 mm 1,7 UV-I 190 W/m² 9,7 °C 13,7 °C 4,8 km/h (1 Bft)
25.10.2019 13:05 13,7 °C 78 % 1021,7 hPa 0,0 mm 5,4 km/h (1 Bft) W-SW 254 ° 0 min 0,000 mm 1,7 UV-I 183 W/m² 9,9 °C 13,7 °C 11,3 km/h (2 Bft)
25.10.2019 13:06 13,7 °C 77 % 1021,7 hPa 0,0 mm 6,5 km/h (2 Bft) NW 305 ° 0 min 0,000 mm 1,7 UV-I 181 W/m² 9,7 °C 13,7 °C 9,7 km/h (2 Bft)
25.10.2019 13:07 13,7 °C 78 % 1021,8 hPa 0,0 mm 2,7 km/h (1 Bft) NW 306 ° 0 min 0,000 mm 1,7 UV-I 183 W/m² 9,9 °C 13,7 °C 4,8 km/h (1 Bft)
25.10.2019 13:08 13,7 °C 78 % 1021,8 hPa 0,0 mm 2,3 km/h (1 Bft) NW 306 ° 0 min 0,000 mm 1,7 UV-I 188 W/m² 9,9 °C 13,7 °C 3,2 km/h (1 Bft)
25.10.2019 13:09 13,7 °C 78 % 1021,8 hPa 0,0 mm 3,5 km/h (1 Bft) NW 304 ° 0 min 0,000 mm 1,7 UV-I 204 W/m² 9,9 °C 13,7 °C 4,8 km/h (1 Bft)
25.10.2019 13:10 13,7 °C 78 % 1021,8 hPa 0,0 mm 1,7 km/h (1 Bft) NW 304 ° 0 min 0,000 mm 1,8 UV-I 211 W/m² 9,9 °C 13,7 °C 3,2 km/h (1 Bft)
25.10.2019 13:11 13,7 °C 79 % 1021,9 hPa 0,0 mm 4,4 km/h (1 Bft) W-NW 291 ° 0 min 0,000 mm 1,8 UV-I 214 W/m² 10,1 °C 13,7 °C 6,4 km/h (2 Bft)
25.10.2019 13:12 13,7 °C 77 % 1021,8 hPa 0,0 mm 4,7 km/h (1 Bft) W 265 ° 0 min 0,000 mm 1,8 UV-I 213 W/m² 9,7 °C 13,7 °C 6,4 km/h (2 Bft)
25.10.2019 13:13 13,7 °C 78 % 1021,8 hPa 0,0 mm 5,6 km/h (1 Bft) NW 322 ° 0 min 0,000 mm 1,7 UV-I 207 W/m² 9,9 °C 13,7 °C 6,4 km/h (2 Bft)
25.10.2019 13:14 13,8 °C 78 % 1021,8 hPa 0,0 mm 3,5 km/h (1 Bft) NW 307 ° 0 min 0,000 mm 1,7 UV-I 200 W/m² 10,0 °C 13,8 °C 4,8 km/h (1 Bft)
25.10.2019 13:15 13,8 °C 78 % 1021,8 hPa 0,0 mm 2,1 km/h (1 Bft) W-NW 302 ° 0 min 0,000 mm 1,7 UV-I 202 W/m² 10,0 °C 13,8 °C 4,8 km/h (1 Bft)
25.10.2019 13:16 13,8 °C 77 % 1021,8 hPa 0,0 mm 4,1 km/h (1 Bft) NW 319 ° 0 min 0,000 mm 1,8 UV-I 209 W/m² 9,8 °C 13,8 °C 6,4 km/h (2 Bft)
25.10.2019 13:17 13,8 °C 77 % 1021,8 hPa 0,0 mm 5,5 km/h (1 Bft) NW 319 ° 0 min 0,000 mm 1,8 UV-I 223 W/m² 9,8 °C 13,8 °C 8,0 km/h (2 Bft)
25.10.2019 13:18 13,8 °C 78 % 1021,8 hPa 0,0 mm 4,6 km/h (1 Bft) N-NW 335 ° 0 min 0,000 mm 1,8 UV-I 236 W/m² 10,0 °C 13,8 °C 6,4 km/h (2 Bft)
25.10.2019 13:19 13,8 °C 78 % 1021,8 hPa 0,0 mm 3,6 km/h (1 Bft) N 351 ° 0 min 0,000 mm 1,9 UV-I 246 W/m² 10,0 °C 13,8 °C 4,8 km/h (1 Bft)
25.10.2019 13:20 13,8 °C 78 % 1021,8 hPa 0,0 mm 4,9 km/h (1 Bft) NW 324 ° 0 min 0,000 mm 1,9 UV-I 262 W/m² 10,0 °C 13,8 °C 8,0 km/h (2 Bft)
25.10.2019 13:21 13,9 °C 78 % 1021,7 hPa 0,0 mm 4,3 km/h (1 Bft) N 360 ° 0 min 0,000 mm 1,9 UV-I 258 W/m² 10,1 °C 13,9 °C 6,4 km/h (2 Bft)
25.10.2019 13:22 14,0 °C 78 % 1021,7 hPa 0,0 mm 6,0 km/h (2 Bft) W-NW 289 ° 0 min 0,000 mm 1,9 UV-I 253 W/m² 10,2 °C 14,0 °C 8,0 km/h (2 Bft)
25.10.2019 13:23 14,1 °C 79 % 1021,7 hPa 0,0 mm 4,2 km/h (1 Bft) W-NW 299 ° 0 min 0,000 mm 1,9 UV-I 244 W/m² 10,5 °C 14,1 °C 6,4 km/h (2 Bft)
25.10.2019 13:24 14,1 °C 77 % 1021,7 hPa 0,0 mm 3,3 km/h (1 Bft) N-NO 17 ° 0 min 0,000 mm 1,9 UV-I 237 W/m² 10,1 °C 14,1 °C 4,8 km/h (1 Bft)
25.10.2019 13:25 14,0 °C 77 % 1021,6 hPa 0,0 mm 1,4 km/h (1 Bft) N-NO 17 ° 0 min 0,000 mm 1,9 UV-I 229 W/m² 10,0 °C 14,0 °C 4,8 km/h (1 Bft)
25.10.2019 13:26 14,0 °C 77 % 1021,6 hPa 0,0 mm 0,1 km/h (0 Bft) N-NO 17 ° 0 min 0,000 mm 1,9 UV-I 220 W/m² 10,0 °C 14,0 °C 1,6 km/h (1 Bft)
25.10.2019 13:27 14,1 °C 78 % 1021,6 hPa 0,0 mm 0,0 km/h (0 Bft) N-NO 17 ° 0 min 0,000 mm 1,9 UV-I 214 W/m² 10,3 °C 14,1 °C 0,0 km/h (0 Bft)
25.10.2019 13:28 14,1 °C 77 % 1021,6 hPa 0,0 mm 3,9 km/h (1 Bft) NW 316 ° 0 min 0,000 mm 1,8 UV-I 206 W/m² 10,1 °C 14,1 °C 6,4 km/h (2 Bft)
25.10.2019 13:29 14,1 °C 78 % 1021,6 hPa 0,0 mm 4,4 km/h (1 Bft) W-NW 296 ° 0 min 0,000 mm 1,8 UV-I 202 W/m² 10,3 °C 14,1 °C 6,4 km/h (2 Bft)
25.10.2019 13:30 14,1 °C 77 % 1021,6 hPa 0,0 mm 3,5 km/h (1 Bft) W-NW 296 ° 0 min 0,000 mm 1,9 UV-I 207 W/m² 10,1 °C 14,1 °C 4,8 km/h (1 Bft)
25.10.2019 13:31 14,1 °C 76 % 1021,6 hPa 0,0 mm 2,3 km/h (1 Bft) W-NW 296 ° 0 min 0,000 mm 1,9 UV-I 207 W/m² 9,9 °C 14,1 °C 3,2 km/h (1 Bft)
25.10.2019 13:32 14,0 °C 77 % 1021,6 hPa 0,0 mm 3,2 km/h (1 Bft) W-NW 296 ° 0 min 0,000 mm 1,9 UV-I 213 W/m² 10,0 °C 14,0 °C 4,8 km/h (1 Bft)
25.10.2019 13:33 14,0 °C 78 % 1021,6 hPa 0,0 mm 2,4 km/h (1 Bft) W-NW 296 ° 0 min 0,000 mm 1,8 UV-I 213 W/m² 10,2 °C 14,0 °C 6,4 km/h (2 Bft)
25.10.2019 13:34 14,1 °C 77 % 1021,5 hPa 0,0 mm 1,4 km/h (1 Bft) W-NW 296 ° 0 min 0,000 mm 1,8 UV-I 211 W/m² 10,1 °C 14,1 °C 4,8 km/h (1 Bft)
25.10.2019 13:35 14,1 °C 77 % 1021,5 hPa 0,0 mm 0,0 km/h (0 Bft) W-NW 296 ° 0 min 0,000 mm 1,8 UV-I 206 W/m² 10,1 °C 14,1 °C 0,0 km/h (0 Bft)
25.10.2019 13:36 14,1 °C 76 % 1021,5 hPa 0,0 mm 0,0 km/h (0 Bft) W-NW 296 ° 0 min 0,000 mm 1,8 UV-I 197 W/m² 9,9 °C 14,1 °C 0,0 km/h (0 Bft)
25.10.2019 13:37 14,0 °C 75 % 1021,5 hPa 0,0 mm 0,0 km/h (0 Bft) W-NW 296 ° 0 min 0,000 mm 1,8 UV-I 186 W/m² 9,6 °C 14,0 °C 0,0 km/h (0 Bft)
25.10.2019 13:38 14,0 °C 75 % 1021,4 hPa 0,0 mm 1,9 km/h (1 Bft) W-NW 296 ° 0 min 0,000 mm 1,8 UV-I 181 W/m² 9,6 °C 14,0 °C 3,2 km/h (1 Bft)
25.10.2019 13:39 13,9 °C 75 % 1021,4 hPa 0,0 mm 1,9 km/h (1 Bft) W-NW 296 ° 0 min 0,000 mm 2,2 UV-I 181 W/m² 9,5 °C 13,9 °C 3,2 km/h (1 Bft)
25.10.2019 13:40 13,9 °C 75 % 1021,4 hPa 0,0 mm 0,1 km/h (0 Bft) W-NW 296 ° 0 min 0,000 mm 2,3 UV-I 374 W/m² 9,5 °C 13,9 °C 1,6 km/h (1 Bft)
25.10.2019 13:41 13,9 °C 77 % 1021,5 hPa 0,0 mm 0,0 km/h (0 Bft) W-NW 296 ° 0 min 0,000 mm 2,4 UV-I 355 W/m² 9,9 °C 13,9 °C 0,0 km/h (0 Bft)
25.10.2019 13:42 13,8 °C 75 % 1021,4 hPa 0,0 mm 0,0 km/h (0 Bft) W-NW 296 ° 0 min 0,000 mm 2,2 UV-I 420 W/m² 9,4 °C 13,8 °C 0,0 km/h (0 Bft)
25.10.2019 13:43 13,8 °C 76 % 1021,4 hPa 0,0 mm 0,0 km/h (0 Bft) W-NW 296 ° 0 min 0,000 mm 2,2 UV-I 374 W/m² 9,6 °C 13,8 °C 0,0 km/h (0 Bft)
25.10.2019 13:44 13,9 °C 75 % 1021,4 hPa 0,0 mm 0,0 km/h (0 Bft) W-NW 296 ° 0 min 0,000 mm 2,1 UV-I 265 W/m² 9,5 °C 13,9 °C 0,0 km/h (0 Bft)
25.10.2019 13:45 14,0 °C 75 % 1021,3 hPa 0,0 mm 2,3 km/h (1 Bft) W-NW 296 ° 0 min 0,000 mm 1,9 UV-I 234 W/m² 9,6 °C 14,0 °C 3,2 km/h (1 Bft)
25.10.2019 13:46 14,0 °C 75 % 1021,3 hPa 0,0 mm 3,3 km/h (1 Bft) W-NW 296 ° 0 min 0,000 mm 1,9 UV-I 211 W/m² 9,6 °C 14,0 °C 4,8 km/h (1 Bft)
25.10.2019 13:47 14,1 °C 74 % 1021,3 hPa 0,0 mm 1,1 km/h (1 Bft) W-NW 296 ° 0 min 0,000 mm 1,8 UV-I 204 W/m² 9,5 °C 14,1 °C 3,2 km/h (1 Bft)
25.10.2019 13:48 14,0 °C 74 % 1021,3 hPa 0,0 mm 0,1 km/h (0 Bft) S-SO 158 ° 0 min 0,000 mm 1,8 UV-I 199 W/m² 9,4 °C 14,0 °C 1,6 km/h (1 Bft)
25.10.2019 13:49 13,9 °C 74 % 1021,4 hPa 0,0 mm 4,8 km/h (1 Bft) S-SO 158 ° 0 min 0,000 mm 1,8 UV-I 211 W/m² 9,3 °C 13,9 °C 6,4 km/h (2 Bft)
25.10.2019 13:50 13,9 °C 74 % 1021,3 hPa 0,0 mm 3,6 km/h (1 Bft) S-SO 158 ° 0 min 0,000 mm 1,8 UV-I 211 W/m² 9,3 °C 13,9 °C 4,8 km/h (1 Bft)
25.10.2019 13:51 13,9 °C 74 % 1021,3 hPa 0,0 mm 3,8 km/h (1 Bft) S-SO 158 ° 0 min 0,000 mm 1,8 UV-I 218 W/m² 9,3 °C 13,9 °C 4,8 km/h (1 Bft)
25.10.2019 13:52 13,9 °C 76 % 1021,3 hPa 0,0 mm 2,9 km/h (1 Bft) S-SO 158 ° 0 min 0,000 mm 1,7 UV-I 221 W/m² 9,7 °C 13,9 °C 4,8 km/h (1 Bft)
25.10.2019 13:53 13,9 °C 76 % 1021,3 hPa 0,0 mm 1,7 km/h (1 Bft) S-SO 158 ° 0 min 0,000 mm 1,7 UV-I 220 W/m² 9,7 °C 13,9 °C 4,8 km/h (1 Bft)
25.10.2019 13:54 13,9 °C 74 % 1021,4 hPa 0,0 mm 2,1 km/h (1 Bft) S-SO 158 ° 0 min 0,000 mm 1,7 UV-I 214 W/m² 9,3 °C 13,9 °C 3,2 km/h (1 Bft)
25.10.2019 13:55 13,9 °C 74 % 1021,4 hPa 0,0 mm 0,0 km/h (0 Bft) S-SO 158 ° 0 min 0,000 mm 1,6 UV-I 207 W/m² 9,3 °C 13,9 °C 0,0 km/h (0 Bft)
25.10.2019 13:56 14,0 °C 74 % 1021,4 hPa 0,0 mm 0,0 km/h (0 Bft) S-SO 158 ° 0 min 0,000 mm 1,6 UV-I 204 W/m² 9,4 °C 14,0 °C 0,0 km/h (0 Bft)
25.10.2019 13:57 14,1 °C 74 % 1021,4 hPa 0,0 mm 0,0 km/h (0 Bft) S-SO 158 ° 0 min 0,000 mm 1,5 UV-I 200 W/m² 9,5 °C 14,1 °C 0,0 km/h (0 Bft)
25.10.2019 13:58 14,1 °C 74 % 1021,4 hPa 0,0 mm 0,0 km/h (0 Bft) S-SO 158 ° 0 min 0,000 mm 1,4 UV-I 193 W/m² 9,5 °C 14,1 °C 0,0 km/h (0 Bft)
25.10.2019 13:59 14,1 °C 73 % 1021,4 hPa 0,0 mm 0,0 km/h (0 Bft) S-SO 158 ° 0 min 0,000 mm 1,4 UV-I 188 W/m² 9,3 °C 14,1 °C 0,0 km/h (0 Bft)
25.10.2019 14:00 14,1 °C 73 % 1021,4 hPa 0,0 mm 0,0 km/h (0 Bft) S-SO 158 ° 0 min 0,000 mm 1,4 UV-I 185 W/m² 9,3 °C 14,1 °C 0,0 km/h (0 Bft)
25.10.2019 14:01 14,1 °C 74 % 1021,4 hPa 0,0 mm 0,0 km/h (0 Bft) S-SO 158 ° 0 min 0,127 mm 1,4 UV-I 183 W/m² 9,5 °C 14,1 °C 0,0 km/h (0 Bft)
25.10.2019 14:02 14,1 °C 74 % 1021,3 hPa 0,0 mm 0,0 km/h (0 Bft) S-SO 158 ° 0 min 0,000 mm 1,4 UV-I 183 W/m² 9,5 °C 14,1 °C 0,0 km/h (0 Bft)
25.10.2019 14:03 14,2 °C 73 % 1021,3 hPa 0,0 mm 0,0 km/h (0 Bft) S-SO 158 ° 0 min 0,000 mm 1,4 UV-I 188 W/m² 9,4 °C 14,2 °C 0,0 km/h (0 Bft)
25.10.2019 14:04 14,2 °C 73 % 1021,3 hPa 0,0 mm 0,0 km/h (0 Bft) S-SO 158 ° 0 min 0,000 mm 1,4 UV-I 192 W/m² 9,4 °C 14,2 °C 0,0 km/h (0 Bft)
25.10.2019 14:05 14,2 °C 74 % 1021,2 hPa 0,0 mm 0,0 km/h (0 Bft) S-SO 158 ° 0 min 0,000 mm 1,4 UV-I 195 W/m² 9,6 °C 14,2 °C 0,0 km/h (0 Bft)
25.10.2019 14:06 14,3 °C 72 % 1021,2 hPa 0,0 mm 0,0 km/h (0 Bft) S-SO 158 ° 0 min 0,000 mm 1,4 UV-I 197 W/m² 9,3 °C 14,3 °C 0,0 km/h (0 Bft)
25.10.2019 14:07 14,3 °C 72 % 1021,2 hPa 0,0 mm 0,0 km/h (0 Bft) S-SO 158 ° 0 min 0,000 mm 1,4 UV-I 202 W/m² 9,3 °C 14,3 °C 0,0 km/h (0 Bft)
25.10.2019 14:08 14,3 °C 72 % 1021,2 hPa 0,0 mm 0,0 km/h (0 Bft) S-SO 158 ° 0 min 0,000 mm 1,3 UV-I 206 W/m² 9,3 °C 14,3 °C 0,0 km/h (0 Bft)
25.10.2019 14:09 14,4 °C 73 % 1021,2 hPa 0,0 mm 1,9 km/h (1 Bft) NO 49 ° 0 min 0,000 mm 1,3 UV-I 206 W/m² 9,6 °C 14,4 °C 4,8 km/h (1 Bft)
25.10.2019 14:10 14,5 °C 73 % 1021,2 hPa 0,0 mm 1,3 km/h (1 Bft) NO 49 ° 0 min 0,000 mm 1,3 UV-I 202 W/m² 9,7 °C 14,5 °C 3,2 km/h (1 Bft)
25.10.2019 14:11 14,6 °C 73 % 1021,2 hPa 0,0 mm 1,9 km/h (1 Bft) NO 49 ° 0 min 0,000 mm 1,3 UV-I 195 W/m² 9,8 °C 14,6 °C 3,2 km/h (1 Bft)
25.10.2019 14:12 14,6 °C 72 % 1021,3 hPa 0,0 mm 3,1 km/h (1 Bft) NO 49 ° 0 min 0,000 mm 1,2 UV-I 188 W/m² 9,6 °C 14,6 °C 4,8 km/h (1 Bft)
25.10.2019 14:13 14,6 °C 71 % 1021,3 hPa 0,0 mm 0,3 km/h (0 Bft) NO 49 ° 0 min 0,000 mm 1,2 UV-I 178 W/m² 9,4 °C 14,6 °C 1,6 km/h (1 Bft)
25.10.2019 14:14 14,5 °C 72 % 1021,3 hPa 0,0 mm 0,0 km/h (0 Bft) NO 49 ° 0 min 0,000 mm 1,2 UV-I 176 W/m² 9,5 °C 14,5 °C 0,0 km/h (0 Bft)
25.10.2019 14:15 14,5 °C 73 % 1021,3 hPa 0,0 mm 0,0 km/h (0 Bft) NO 49 ° 0 min 0,000 mm 1,2 UV-I 174 W/m² 9,7 °C 14,5 °C 0,0 km/h (0 Bft)
25.10.2019 14:16 14,4 °C 72 % 1021,3 hPa 0,0 mm 0,0 km/h (0 Bft) N-NW 332 ° 0 min 0,000 mm 1,2 UV-I 174 W/m² 9,4 °C 14,4 °C 0,0 km/h (0 Bft)
25.10.2019 14:17 14,4 °C 74 % 1021,3 hPa 0,0 mm 0,0 km/h (0 Bft) N-NW 332 ° 0 min 0,000 mm 1,2 UV-I 178 W/m² 9,8 °C 14,4 °C 0,0 km/h (0 Bft)
25.10.2019 14:18 14,5 °C 74 % 1021,2 hPa 0,0 mm 0,0 km/h (0 Bft) N-NW 332 ° 0 min 0,000 mm 1,3 UV-I 183 W/m² 9,9 °C 14,5 °C 0,0 km/h (0 Bft)
25.10.2019 14:19 14,6 °C 74 % 1021,2 hPa 0,0 mm 0,1 km/h (0 Bft) W-NW 301 ° 0 min 0,000 mm 1,3 UV-I 190 W/m² 10,0 °C 14,6 °C 3,2 km/h (1 Bft)
25.10.2019 14:20 14,5 °C 73 % 1021,2 hPa 0,0 mm 3,8 km/h (1 Bft) N-NW 348 ° 0 min 0,000 mm 1,3 UV-I 193 W/m² 9,7 °C 14,5 °C 4,8 km/h (1 Bft)
25.10.2019 14:21 14,6 °C 73 % 1021,2 hPa 0,0 mm 2,3 km/h (1 Bft) N-NW 346 ° 0 min 0,000 mm 1,3 UV-I 193 W/m² 9,8 °C 14,6 °C 3,2 km/h (1 Bft)
25.10.2019 14:22 14,6 °C 72 % 1021,2 hPa 0,0 mm 3,5 km/h (1 Bft) N-NW 345 ° 0 min 0,000 mm 1,3 UV-I 195 W/m² 9,6 °C 14,6 °C 4,8 km/h (1 Bft)
25.10.2019 14:23 14,5 °C 71 % 1021,2 hPa 0,0 mm 3,4 km/h (1 Bft) N-NW 345 ° 0 min 0,000 mm 1,3 UV-I 193 W/m² 9,3 °C 14,5 °C 4,8 km/h (1 Bft)
25.10.2019 14:24 14,5 °C 71 % 1021,2 hPa 0,0 mm 3,5 km/h (1 Bft) N-NW 345 ° 0 min 0,000 mm 1,3 UV-I 188 W/m² 9,3 °C 14,5 °C 4,8 km/h (1 Bft)
25.10.2019 14:25 14,5 °C 72 % 1021,2 hPa 0,0 mm 4,8 km/h (1 Bft) W 272 ° 0 min 0,000 mm 1,2 UV-I 176 W/m² 9,5 °C 14,5 °C 6,4 km/h (2 Bft)
25.10.2019 14:26 14,4 °C 71 % 1021,2 hPa 0,0 mm 3,8 km/h (1 Bft) W 273 ° 0 min 0,000 mm 1,2 UV-I 171 W/m² 9,2 °C 14,4 °C 4,8 km/h (1 Bft)
25.10.2019 14:27 14,4 °C 72 % 1021,2 hPa 0,0 mm 2,2 km/h (1 Bft) W 273 ° 0 min 0,000 mm 1,2 UV-I 167 W/m² 9,4 °C 14,4 °C 3,2 km/h (1 Bft)
25.10.2019 14:28 14,4 °C 73 % 1021,2 hPa 0,0 mm 0,0 km/h (0 Bft) W 273 ° 0 min 0,000 mm 1,2 UV-I 160 W/m² 9,6 °C 14,4 °C 0,0 km/h (0 Bft)
25.10.2019 14:29 14,4 °C 72 % 1021,1 hPa 0,0 mm 0,0 km/h (0 Bft) W 273 ° 0 min 0,000 mm 1,2 UV-I 156 W/m² 9,4 °C 14,4 °C 0,0 km/h (0 Bft)
25.10.2019 14:30 14,4 °C 72 % 1021,1 hPa 0,0 mm 0,0 km/h (0 Bft) W 273 ° 0 min 0,000 mm 1,2 UV-I 158 W/m² 9,4 °C 14,4 °C 0,0 km/h (0 Bft)
25.10.2019 14:31 14,4 °C 71 % 1021,1 hPa 0,0 mm 0,0 km/h (0 Bft) W 273 ° 0 min 0,000 mm 1,2 UV-I 162 W/m² 9,2 °C 14,4 °C 0,0 km/h (0 Bft)
25.10.2019 14:32 14,4 °C 73 % 1021,1 hPa 0,0 mm 4,2 km/h (1 Bft) S-SW 211 ° 0 min 0,000 mm 1,3 UV-I 169 W/m² 9,6 °C 14,4 °C 4,8 km/h (1 Bft)
25.10.2019 14:33 14,5 °C 73 % 1021,1 hPa 0,0 mm 3,4 km/h (1 Bft) S-SW 209 ° 0 min 0,000 mm 1,3 UV-I 178 W/m² 9,7 °C 14,5 °C 4,8 km/h (1 Bft)
25.10.2019 14:34 14,4 °C 71 % 1021,1 hPa 0,0 mm 0,3 km/h (0 Bft) S-SW 209 ° 0 min 0,000 mm 1,4 UV-I 188 W/m² 9,2 °C 14,4 °C 1,6 km/h (1 Bft)
25.10.2019 14:35 14,4 °C 71 % 1021,2 hPa 0,0 mm 0,0 km/h (0 Bft) NW 311 ° 0 min 0,000 mm 1,4 UV-I 197 W/m² 9,2 °C 14,4 °C 0,0 km/h (0 Bft)
25.10.2019 14:36 14,5 °C 72 % 1021,1 hPa 0,0 mm 0,0 km/h (0 Bft) NW 317 ° 0 min 0,000 mm 1,4 UV-I 209 W/m² 9,5 °C 14,5 °C 0,0 km/h (0 Bft)
25.10.2019 14:37 14,5 °C 73 % 1021,1 hPa 0,0 mm 3,7 km/h (1 Bft) N 355 ° 0 min 0,000 mm 1,4 UV-I 214 W/m² 9,7 °C 14,5 °C 6,4 km/h (2 Bft)
25.10.2019 14:38 14,6 °C 74 % 1021,2 hPa 0,0 mm 3,4 km/h (1 Bft) N 355 ° 0 min 0,000 mm 1,5 UV-I 220 W/m² 10,0 °C 14,6 °C 4,8 km/h (1 Bft)
25.10.2019 14:39 14,6 °C 74 % 1021,1 hPa 0,0 mm 5,4 km/h (1 Bft) N-NW 348 ° 0 min 0,000 mm 1,5 UV-I 223 W/m² 10,0 °C 14,6 °C 8,0 km/h (2 Bft)
25.10.2019 14:40 14,6 °C 74 % 1021,1 hPa 0,0 mm 0,6 km/h (0 Bft) N 10 ° 0 min 0,000 mm 1,5 UV-I 227 W/m² 10,0 °C 14,6 °C 3,2 km/h (1 Bft)
25.10.2019 14:41 14,6 °C 75 % 1021,1 hPa 0,0 mm 2,6 km/h (1 Bft) NO 42 ° 0 min 0,000 mm 1,4 UV-I 220 W/m² 10,2 °C 14,6 °C 4,8 km/h (1 Bft)
25.10.2019 14:42 14,6 °C 73 % 1021,1 hPa 0,0 mm 3,6 km/h (1 Bft) N-NO 27 ° 0 min 0,000 mm 1,4 UV-I 211 W/m² 9,8 °C 14,6 °C 4,8 km/h (1 Bft)
25.10.2019 14:43 14,6 °C 74 % 1021,1 hPa 0,0 mm 4,8 km/h (1 Bft) NW 315 ° 0 min 0,000 mm 1,4 UV-I 197 W/m² 10,0 °C 14,6 °C 6,4 km/h (2 Bft)
25.10.2019 14:44 14,7 °C 74 % 1021,1 hPa 0,0 mm 4,2 km/h (1 Bft) N 355 ° 0 min 0,000 mm 1,3 UV-I 186 W/m² 10,1 °C 14,7 °C 4,8 km/h (1 Bft)
25.10.2019 14:45 14,7 °C 73 % 1021,1 hPa 0,0 mm 5,5 km/h (1 Bft) NW 317 ° 0 min 0,000 mm 1,3 UV-I 178 W/m² 9,9 °C 14,7 °C 8,0 km/h (2 Bft)
25.10.2019 14:46 14,6 °C 73 % 1021,1 hPa 0,0 mm 3,8 km/h (1 Bft) NW 315 ° 0 min 0,000 mm 1,2 UV-I 171 W/m² 9,8 °C 14,6 °C 4,8 km/h (1 Bft)
25.10.2019 14:47 14,6 °C 73 % 1021,1 hPa 0,0 mm 2,5 km/h (1 Bft) NW 315 ° 0 min 0,000 mm 1,2 UV-I 167 W/m² 9,8 °C 14,6 °C 3,2 km/h (1 Bft)
25.10.2019 14:48 14,6 °C 73 % 1021,1 hPa 0,0 mm 1,9 km/h (1 Bft) NW 315 ° 0 min 0,000 mm 1,2 UV-I 162 W/m² 9,8 °C 14,6 °C 3,2 km/h (1 Bft)
25.10.2019 14:49 14,6 °C 72 % 1021,1 hPa 0,0 mm 0,6 km/h (0 Bft) NW 315 ° 0 min 0,000 mm 1,2 UV-I 160 W/m² 9,6 °C 14,6 °C 1,6 km/h (1 Bft)
25.10.2019 14:50 14,6 °C 74 % 1021,1 hPa 0,0 mm 0,1 km/h (0 Bft) NW 315 ° 0 min 0,000 mm 1,2 UV-I 158 W/m² 10,0 °C 14,6 °C 1,6 km/h (1 Bft)
25.10.2019 14:51 14,6 °C 74 % 1021,1 hPa 0,0 mm 0,0 km/h (0 Bft) NW 315 ° 0 min 0,000 mm 1,2 UV-I 158 W/m² 10,0 °C 14,6 °C 0,0 km/h (0 Bft)
25.10.2019 14:52 14,6 °C 72 % 1021,1 hPa 0,0 mm 0,0 km/h (0 Bft) NW 315 ° 0 min 0,000 mm 1,2 UV-I 156 W/m² 9,6 °C 14,6 °C 0,0 km/h (0 Bft)
25.10.2019 14:53 14,5 °C 72 % 1021,1 hPa 0,0 mm 0,0 km/h (0 Bft) NW 315 ° 0 min 0,000 mm 1,3 UV-I 156 W/m² 9,5 °C 14,5 °C 0,0 km/h (0 Bft)
25.10.2019 14:54 14,5 °C 73 % 1021,1 hPa 0,0 mm 0,0 km/h (0 Bft) NW 315 ° 0 min 0,000 mm 1,3 UV-I 155 W/m² 9,7 °C 14,5 °C 0,0 km/h (0 Bft)
25.10.2019 14:55 14,6 °C 74 % 1021,1 hPa 0,0 mm 0,0 km/h (0 Bft) NW 315 ° 0 min 0,000 mm 1,3 UV-I 155 W/m² 10,0 °C 14,6 °C 0,0 km/h (0 Bft)
25.10.2019 14:56 14,6 °C 74 % 1021,1 hPa 0,0 mm 0,0 km/h (0 Bft) NW 316 ° 0 min 0,000 mm 1,3 UV-I 155 W/m² 10,0 °C 14,6 °C 0,0 km/h (0 Bft)
25.10.2019 14:57 14,5 °C 72 % 1021,1 hPa 0,0 mm 0,0 km/h (0 Bft) NW 316 ° 0 min 0,000 mm 1,3 UV-I 156 W/m² 9,5 °C 14,5 °C 0,0 km/h (0 Bft)
25.10.2019 14:58 14,4 °C 73 % 1021,1 hPa 0,0 mm 0,0 km/h (0 Bft) NW 316 ° 0 min 0,000 mm 1,3 UV-I 158 W/m² 9,6 °C 14,4 °C 0,0 km/h (0 Bft)
25.10.2019 14:59 14,4 °C 72 % 1021,1 hPa 0,0 mm 0,0 km/h (0 Bft) NW 316 ° 0 min 0,000 mm 1,3 UV-I 162 W/m² 9,4 °C 14,4 °C 0,0 km/h (0 Bft)
25.10.2019 15:00 14,3 °C 72 % 1021,1 hPa 0,0 mm 0,0 km/h (0 Bft) NW 316 ° 0 min 0,000 mm 1,4 UV-I 174 W/m² 9,3 °C 14,3 °C 0,0 km/h (0 Bft)
25.10.2019 15:01 14,4 °C 73 % 1021,1 hPa 0,0 mm 0,0 km/h (0 Bft) NW 316 ° 0 min 0,102 mm 1,4 UV-I 185 W/m² 9,6 °C 14,4 °C 0,0 km/h (0 Bft)
25.10.2019 15:02 14,4 °C 73 % 1021,1 hPa 0,0 mm 0,0 km/h (0 Bft) NW 316 ° 0 min 0,000 mm 1,4 UV-I 206 W/m² 9,6 °C 14,4 °C 0,0 km/h (0 Bft)
25.10.2019 15:03 14,4 °C 74 % 1021,1 hPa 0,0 mm 3,3 km/h (1 Bft) O-NO 63 ° 0 min 0,000 mm 1,4 UV-I 216 W/m² 9,8 °C 14,4 °C 4,8 km/h (1 Bft)
25.10.2019 15:04 14,4 °C 73 % 1021,1 hPa 0,0 mm 3,3 km/h (1 Bft) O-NO 63 ° 0 min 0,000 mm 1,4 UV-I 214 W/m² 9,6 °C 14,4 °C 4,8 km/h (1 Bft)
25.10.2019 15:05 14,4 °C 74 % 1021,0 hPa 0,0 mm 0,9 km/h (0 Bft) O-NO 63 ° 0 min 0,000 mm 1,3 UV-I 199 W/m² 9,8 °C 14,4 °C 3,2 km/h (1 Bft)
25.10.2019 15:06 14,4 °C 73 % 1021,0 hPa 0,0 mm 0,0 km/h (0 Bft) O-NO 63 ° 0 min 0,000 mm 1,3 UV-I 192 W/m² 9,6 °C 14,4 °C 0,0 km/h (0 Bft)
25.10.2019 15:07 14,4 °C 74 % 1021,0 hPa 0,0 mm 0,0 km/h (0 Bft) O-NO 63 ° 0 min 0,000 mm 1,3 UV-I 190 W/m² 9,8 °C 14,4 °C 0,0 km/h (0 Bft)
25.10.2019 15:08 14,4 °C 74 % 1021,0 hPa 0,0 mm 0,0 km/h (0 Bft) O-NO 63 ° 0 min 0,000 mm 1,3 UV-I 190 W/m² 9,8 °C 14,4 °C 0,0 km/h (0 Bft)
25.10.2019 15:09 14,4 °C 73 % 1021,0 hPa 0,0 mm 0,0 km/h (0 Bft) O-NO 63 ° 0 min 0,000 mm 1,3 UV-I 192 W/m² 9,6 °C 14,4 °C 0,0 km/h (0 Bft)
25.10.2019 15:10 14,4 °C 73 % 1021,0 hPa 0,0 mm 0,0 km/h (0 Bft) O-NO 63 ° 0 min 0,000 mm 1,3 UV-I 192 W/m² 9,6 °C 14,4 °C 0,0 km/h (0 Bft)
25.10.2019 15:11 14,4 °C 73 % 1021,0 hPa 0,0 mm 0,0 km/h (0 Bft) O-NO 63 ° 0 min 0,000 mm 1,3 UV-I 200 W/m² 9,6 °C 14,4 °C 0,0 km/h (0 Bft)
25.10.2019 15:12 14,6 °C 74 % 1021,0 hPa 0,0 mm 1,0 km/h (0 Bft) NO 52 ° 0 min 0,000 mm 1,5 UV-I 281 W/m² 10,0 °C 14,6 °C 4,8 km/h (1 Bft)
25.10.2019 15:13 14,6 °C 75 % 1021,0 hPa 0,0 mm 1,7 km/h (1 Bft) NO 52 ° 0 min 0,000 mm 1,6 UV-I 366 W/m² 10,2 °C 14,6 °C 3,2 km/h (1 Bft)
25.10.2019 15:14 14,6 °C 73 % 1021,0 hPa 0,0 mm 1,3 km/h (1 Bft) NO 52 ° 0 min 0,000 mm 1,5 UV-I 364 W/m² 9,8 °C 14,6 °C 1,6 km/h (1 Bft)
25.10.2019 15:15 14,6 °C 73 % 1021,0 hPa 0,0 mm 1,8 km/h (1 Bft) NO 52 ° 0 min 0,000 mm 1,4 UV-I 272 W/m² 9,8 °C 14,6 °C 3,2 km/h (1 Bft)
25.10.2019 15:16 14,6 °C 72 % 1021,0 hPa 0,0 mm 0,0 km/h (0 Bft) NO 52 ° 0 min 0,000 mm 1,5 UV-I 258 W/m² 9,6 °C 14,6 °C 0,0 km/h (0 Bft)
25.10.2019 15:17 14,6 °C 74 % 1021,0 hPa 0,0 mm 0,0 km/h (0 Bft) NW 312 ° 0 min 0,000 mm 1,4 UV-I 213 W/m² 10,0 °C 14,6 °C 0,0 km/h (0 Bft)
25.10.2019 15:18 14,7 °C 73 % 1021,0 hPa 0,0 mm 0,0 km/h (0 Bft) NW 312 ° 0 min 0,000 mm 1,3 UV-I 218 W/m² 9,9 °C 14,7 °C 0,0 km/h (0 Bft)
25.10.2019 15:19 14,7 °C 72 % 1021,0 hPa 0,0 mm 0,0 km/h (0 Bft) NW 312 ° 0 min 0,000 mm 1,3 UV-I 211 W/m² 9,7 °C 14,7 °C 0,0 km/h (0 Bft)
25.10.2019 15:20 14,7 °C 74 % 1021,0 hPa 0,0 mm 0,0 km/h (0 Bft) NW 312 ° 0 min 0,000 mm 1,3 UV-I 209 W/m² 10,1 °C 14,7 °C 0,0 km/h (0 Bft)
25.10.2019 15:21 14,8 °C 74 % 1021,0 hPa 0,0 mm 0,0 km/h (0 Bft) NW 312 ° 0 min 0,000 mm 1,3 UV-I 211 W/m² 10,2 °C 14,8 °C 0,0 km/h (0 Bft)
25.10.2019 15:22 14,8 °C 73 % 1021,0 hPa 0,0 mm 0,0 km/h (0 Bft) NW 312 ° 0 min 0,000 mm 1,3 UV-I 221 W/m² 10,0 °C 14,8 °C 0,0 km/h (0 Bft)
25.10.2019 15:23 14,8 °C 73 % 1021,0 hPa 0,0 mm 0,0 km/h (0 Bft) NW 313 ° 0 min 0,000 mm 1,4 UV-I 360 W/m² 10,0 °C 14,8 °C 0,0 km/h (0 Bft)
25.10.2019 15:24 14,7 °C 72 % 1021,0 hPa 0,0 mm 0,0 km/h (0 Bft) NW 313 ° 0 min 0,000 mm 1,5 UV-I 350 W/m² 9,7 °C 14,7 °C 0,0 km/h (0 Bft)
25.10.2019 15:25 14,7 °C 72 % 1020,9 hPa 0,0 mm 0,0 km/h (0 Bft) NW 313 ° 0 min 0,000 mm 1,4 UV-I 315 W/m² 9,7 °C 14,7 °C 0,0 km/h (0 Bft)
25.10.2019 15:26 14,7 °C 72 % 1021,0 hPa 0,0 mm 0,0 km/h (0 Bft) NW 313 ° 0 min 0,000 mm 1,5 UV-I 359 W/m² 9,7 °C 14,7 °C 0,0 km/h (0 Bft)
25.10.2019 15:27 14,8 °C 74 % 1021,0 hPa 0,0 mm 0,0 km/h (0 Bft) NW 313 ° 0 min 0,000 mm 1,5 UV-I 359 W/m² 10,2 °C 14,8 °C 0,0 km/h (0 Bft)
25.10.2019 15:28 14,7 °C 72 % 1020,9 hPa 0,0 mm 0,0 km/h (0 Bft) O-NO 67 ° 0 min 0,000 mm 1,5 UV-I 362 W/m² 9,7 °C 14,7 °C 0,0 km/h (0 Bft)
25.10.2019 15:29 14,7 °C 71 % 1020,9 hPa 0,0 mm 2,1 km/h (1 Bft) O-NO 67 ° 0 min 0,000 mm 1,5 UV-I 357 W/m² 9,5 °C 14,7 °C 6,4 km/h (2 Bft)
25.10.2019 15:30 14,7 °C 71 % 1020,9 hPa 0,0 mm 4,8 km/h (1 Bft) O-NO 67 ° 0 min 0,000 mm 1,5 UV-I 355 W/m² 9,5 °C 14,7 °C 6,4 km/h (2 Bft)
25.10.2019 15:31 14,7 °C 72 % 1020,9 hPa 0,0 mm 4,1 km/h (1 Bft) O-NO 67 ° 0 min 0,000 mm 1,5 UV-I 353 W/m² 9,7 °C 14,7 °C 4,8 km/h (1 Bft)
25.10.2019 15:32 14,8 °C 72 % 1020,9 hPa 0,0 mm 4,4 km/h (1 Bft) O-NO 68 ° 0 min 0,000 mm 1,5 UV-I 346 W/m² 9,8 °C 14,8 °C 6,4 km/h (2 Bft)
25.10.2019 15:33 14,7 °C 71 % 1020,9 hPa 0,0 mm 3,7 km/h (1 Bft) O-NO 68 ° 0 min 0,000 mm 1,5 UV-I 343 W/m² 9,5 °C 14,7 °C 4,8 km/h (1 Bft)
25.10.2019 15:34 14,7 °C 71 % 1020,9 hPa 0,0 mm 4,2 km/h (1 Bft) O-NO 68 ° 0 min 0,000 mm 1,5 UV-I 338 W/m² 9,5 °C 14,7 °C 6,4 km/h (2 Bft)
25.10.2019 15:35 14,7 °C 72 % 1020,8 hPa 0,0 mm 4,7 km/h (1 Bft) O-NO 68 ° 0 min 0,000 mm 1,5 UV-I 318 W/m² 9,7 °C 14,7 °C 6,4 km/h (2 Bft)
25.10.2019 15:36 14,7 °C 71 % 1020,9 hPa 0,0 mm 3,0 km/h (1 Bft) O-NO 68 ° 0 min 0,000 mm 1,4 UV-I 311 W/m² 9,5 °C 14,7 °C 4,8 km/h (1 Bft)
25.10.2019 15:37 14,7 °C 70 % 1020,8 hPa 0,0 mm 0,1 km/h (0 Bft) O-NO 68 ° 0 min 0,000 mm 1,4 UV-I 306 W/m² 9,3 °C 14,7 °C 1,6 km/h (1 Bft)
25.10.2019 15:38 14,6 °C 73 % 1020,8 hPa 0,0 mm 0,0 km/h (0 Bft) O-NO 68 ° 0 min 0,000 mm 1,4 UV-I 301 W/m² 9,8 °C 14,6 °C 0,0 km/h (0 Bft)
25.10.2019 15:39 14,6 °C 72 % 1020,8 hPa 0,0 mm 0,0 km/h (0 Bft) O-NO 68 ° 0 min 0,000 mm 1,4 UV-I 299 W/m² 9,6 °C 14,6 °C 0,0 km/h (0 Bft)
25.10.2019 15:40 14,6 °C 73 % 1020,8 hPa 0,0 mm 0,0 km/h (0 Bft) O-NO 68 ° 0 min 0,000 mm 1,4 UV-I 295 W/m² 9,8 °C 14,6 °C 0,0 km/h (0 Bft)
25.10.2019 15:41 14,7 °C 72 % 1020,8 hPa 0,0 mm 0,0 km/h (0 Bft) O-NO 68 ° 0 min 0,000 mm 1,3 UV-I 285 W/m² 9,7 °C 14,7 °C 0,0 km/h (0 Bft)
25.10.2019 15:42 14,6 °C 72 % 1020,8 hPa 0,0 mm 0,0 km/h (0 Bft) O-NO 68 ° 0 min 0,000 mm 1,3 UV-I 288 W/m² 9,6 °C 14,6 °C 0,0 km/h (0 Bft)
25.10.2019 15:43 14,5 °C 72 % 1020,8 hPa 0,0 mm 0,0 km/h (0 Bft) O-NO 68 ° 0 min 0,000 mm 1,3 UV-I 287 W/m² 9,5 °C 14,5 °C 0,0 km/h (0 Bft)
25.10.2019 15:44 14,4 °C 73 % 1020,8 hPa 0,0 mm 0,0 km/h (0 Bft) O-NO 68 ° 0 min 0,000 mm 1,3 UV-I 287 W/m² 9,6 °C 14,4 °C 0,0 km/h (0 Bft)
25.10.2019 15:45 14,4 °C 73 % 1020,8 hPa 0,0 mm 0,0 km/h (0 Bft) O-NO 68 ° 0 min 0,000 mm 1,3 UV-I 281 W/m² 9,6 °C 14,4 °C 0,0 km/h (0 Bft)
25.10.2019 15:46 14,3 °C 74 % 1020,8 hPa 0,0 mm 0,0 km/h (0 Bft) O-NO 68 ° 0 min 0,000 mm 1,3 UV-I 276 W/m² 9,7 °C 14,3 °C 0,0 km/h (0 Bft)
25.10.2019 15:47 14,3 °C 73 % 1020,8 hPa 0,0 mm 0,0 km/h (0 Bft) O-NO 69 ° 0 min 0,000 mm 1,3 UV-I 272 W/m² 9,5 °C 14,3 °C 0,0 km/h (0 Bft)
25.10.2019 15:48 14,2 °C 73 % 1020,7 hPa 0,0 mm 0,0 km/h (0 Bft) O-NO 69 ° 0 min 0,000 mm 1,3 UV-I 271 W/m² 9,4 °C 14,2 °C 0,0 km/h (0 Bft)
25.10.2019 15:49 14,3 °C 73 % 1020,7 hPa 0,0 mm 0,0 km/h (0 Bft) O-NO 69 ° 0 min 0,000 mm 1,3 UV-I 271 W/m² 9,5 °C 14,3 °C 0,0 km/h (0 Bft)
25.10.2019 15:50 14,3 °C 74 % 1020,8 hPa 0,0 mm 0,0 km/h (0 Bft) O-NO 69 ° 0 min 0,000 mm 1,3 UV-I 272 W/m² 9,7 °C 14,3 °C 0,0 km/h (0 Bft)
25.10.2019 15:51 14,3 °C 74 % 1020,7 hPa 0,0 mm 0,0 km/h (0 Bft) O-NO 69 ° 0 min 0,000 mm 1,2 UV-I 267 W/m² 9,7 °C 14,3 °C 0,0 km/h (0 Bft)
25.10.2019 15:52 14,3 °C 74 % 1020,7 hPa 0,0 mm 0,0 km/h (0 Bft) O-NO 69 ° 0 min 0,000 mm 1,1 UV-I 248 W/m² 9,7 °C 14,3 °C 0,0 km/h (0 Bft)
25.10.2019 15:53 14,3 °C 74 % 1020,6 hPa 0,0 mm 2,8 km/h (1 Bft) N-NO 14 ° 0 min 0,000 mm 1,1 UV-I 70 W/m² 9,7 °C 14,3 °C 8,0 km/h (2 Bft)
25.10.2019 15:54 14,3 °C 74 % 1020,6 hPa 0,0 mm 5,6 km/h (1 Bft) O-SO 115 ° 0 min 0,000 mm 1,2 UV-I 70 W/m² 9,7 °C 14,3 °C 6,4 km/h (2 Bft)
25.10.2019 15:55 14,3 °C 75 % 1020,6 hPa 0,0 mm 3,5 km/h (1 Bft) O-NO 57 ° 0 min 0,000 mm 1,2 UV-I 248 W/m² 9,9 °C 14,3 °C 4,8 km/h (1 Bft)
25.10.2019 15:56 14,3 °C 75 % 1020,7 hPa 0,0 mm 2,1 km/h (1 Bft) O-NO 66 ° 0 min 0,000 mm 1,1 UV-I 248 W/m² 9,9 °C 14,3 °C 6,4 km/h (2 Bft)
25.10.2019 15:57 14,3 °C 75 % 1020,6 hPa 0,0 mm 4,2 km/h (1 Bft) O-SO 116 ° 0 min 0,000 mm 1,1 UV-I 248 W/m² 9,9 °C 14,3 °C 6,4 km/h (2 Bft)
25.10.2019 15:58 14,3 °C 74 % 1020,6 hPa 0,0 mm 3,2 km/h (1 Bft) O-SO 115 ° 0 min 0,000 mm 1,1 UV-I 241 W/m² 9,7 °C 14,3 °C 3,2 km/h (1 Bft)
25.10.2019 15:59 14,3 °C 74 % 1020,6 hPa 0,0 mm 2,6 km/h (1 Bft) O-SO 115 ° 0 min 0,000 mm 1,1 UV-I 192 W/m² 9,7 °C 14,3 °C 4,8 km/h (1 Bft)
25.10.2019 16:00 14,3 °C 74 % 1020,6 hPa 0,0 mm 1,8 km/h (1 Bft) O-SO 115 ° 0 min 0,000 mm 1,0 UV-I 174 W/m² 9,7 °C 14,3 °C 3,2 km/h (1 Bft)
25.10.2019 16:01 14,3 °C 74 % 1020,6 hPa 0,0 mm 3,4 km/h (1 Bft) NO 53 ° 0 min 0,152 mm 1,0 UV-I 149 W/m² 9,7 °C 14,3 °C 6,4 km/h (2 Bft)
25.10.2019 16:02 14,3 °C 75 % 1020,6 hPa 0,0 mm 6,4 km/h (2 Bft) O-NO 65 ° 0 min 0,000 mm 1,0 UV-I 142 W/m² 9,9 °C 14,3 °C 9,7 km/h (2 Bft)
25.10.2019 16:03 14,3 °C 74 % 1020,6 hPa 0,0 mm 3,3 km/h (1 Bft) O-NO 60 ° 0 min 0,000 mm 1,0 UV-I 144 W/m² 9,7 °C 14,3 °C 4,8 km/h (1 Bft)
25.10.2019 16:04 14,3 °C 75 % 1020,6 hPa 0,0 mm 2,6 km/h (1 Bft) S-SO 157 ° 0 min 0,000 mm 1,0 UV-I 167 W/m² 9,9 °C 14,3 °C 4,8 km/h (1 Bft)
25.10.2019 16:05 14,3 °C 75 % 1020,6 hPa 0,0 mm 4,2 km/h (1 Bft) SO 139 ° 0 min 0,000 mm 1,0 UV-I 178 W/m² 9,9 °C 14,3 °C 6,4 km/h (2 Bft)
25.10.2019 16:06 14,2 °C 76 % 1020,6 hPa 0,0 mm 4,3 km/h (1 Bft) O 87 ° 0 min 0,000 mm 0,9 UV-I 165 W/m² 10,0 °C 14,2 °C 6,4 km/h (2 Bft)
25.10.2019 16:07 14,2 °C 76 % 1020,6 hPa 0,0 mm 1,5 km/h (1 Bft) O 87 ° 0 min 0,000 mm 0,9 UV-I 148 W/m² 10,0 °C 14,2 °C 3,2 km/h (1 Bft)
25.10.2019 16:08 14,2 °C 75 % 1020,6 hPa 0,0 mm 0,0 km/h (0 Bft) O 87 ° 0 min 0,000 mm 0,9 UV-I 148 W/m² 9,8 °C 14,2 °C 0,0 km/h (0 Bft)
25.10.2019 16:09 14,2 °C 75 % 1020,6 hPa 0,0 mm 6,1 km/h (2 Bft) O 89 ° 0 min 0,000 mm 0,9 UV-I 185 W/m² 9,8 °C 14,2 °C 9,7 km/h (2 Bft)
25.10.2019 16:10 14,3 °C 74 % 1020,5 hPa 0,0 mm 4,3 km/h (1 Bft) O 83 ° 0 min 0,000 mm 0,9 UV-I 199 W/m² 9,7 °C 14,3 °C 6,4 km/h (2 Bft)
25.10.2019 16:11 14,2 °C 75 % 1020,5 hPa 0,0 mm 2,3 km/h (1 Bft) O 92 ° 0 min 0,000 mm 0,9 UV-I 209 W/m² 9,8 °C 14,2 °C 6,4 km/h (2 Bft)
25.10.2019 16:12 14,2 °C 75 % 1020,6 hPa 0,0 mm 0,9 km/h (0 Bft) O 92 ° 0 min 0,000 mm 0,9 UV-I 213 W/m² 9,8 °C 14,2 °C 3,2 km/h (1 Bft)
25.10.2019 16:13 14,1 °C 76 % 1020,6 hPa 0,0 mm 0,0 km/h (0 Bft) O 92 ° 0 min 0,000 mm 0,9 UV-I 197 W/m² 9,9 °C 14,1 °C 0,0 km/h (0 Bft)
25.10.2019 16:14 14,1 °C 77 % 1020,5 hPa 0,0 mm 0,0 km/h (0 Bft) O 92 ° 0 min 0,000 mm 0,9 UV-I 174 W/m² 10,1 °C 14,1 °C 0,0 km/h (0 Bft)
25.10.2019 16:15 14,0 °C 77 % 1020,6 hPa 0,0 mm 0,2 km/h (0 Bft) O 91 ° 0 min 0,000 mm 0,9 UV-I 153 W/m² 10,0 °C 14,0 °C 1,6 km/h (1 Bft)
25.10.2019 16:16 13,9 °C 77 % 1020,6 hPa 0,0 mm 3,1 km/h (1 Bft) O 96 ° 0 min 0,000 mm 0,9 UV-I 156 W/m² 9,9 °C 13,9 °C 4,8 km/h (1 Bft)
25.10.2019 16:17 13,9 °C 77 % 1020,5 hPa 0,0 mm 1,4 km/h (1 Bft) O 94 ° 0 min 0,000 mm 0,8 UV-I 137 W/m² 9,9 °C 13,9 °C 3,2 km/h (1 Bft)
25.10.2019 16:18 13,9 °C 77 % 1020,6 hPa 0,0 mm 0,1 km/h (0 Bft) O 94 ° 0 min 0,000 mm 0,8 UV-I 120 W/m² 9,9 °C 13,9 °C 1,6 km/h (1 Bft)
25.10.2019 16:19 13,9 °C 77 % 1020,5 hPa 0,0 mm 0,0 km/h (0 Bft) O 94 ° 0 min 0,000 mm 0,8 UV-I 93 W/m² 9,9 °C 13,9 °C 0,0 km/h (0 Bft)
25.10.2019 16:20 13,9 °C 76 % 1020,5 hPa 0,0 mm 0,0 km/h (0 Bft) O 94 ° 0 min 0,000 mm 0,8 UV-I 77 W/m² 9,7 °C 13,9 °C 0,0 km/h (0 Bft)
25.10.2019 16:21 13,9 °C 78 % 1020,5 hPa 0,0 mm 0,0 km/h (0 Bft) O 91 ° 0 min 0,000 mm 0,8 UV-I 70 W/m² 10,1 °C 13,9 °C 0,0 km/h (0 Bft)
25.10.2019 16:22 13,8 °C 78 % 1020,5 hPa 0,0 mm 0,0 km/h (0 Bft) O 91 ° 0 min 0,000 mm 0,8 UV-I 65 W/m² 10,0 °C 13,8 °C 0,0 km/h (0 Bft)
25.10.2019 16:23 13,8 °C 78 % 1020,5 hPa 0,0 mm 0,0 km/h (0 Bft) O 91 ° 0 min 0,000 mm 0,0 UV-I 53 W/m² 10,0 °C 13,8 °C 0,0 km/h (0 Bft)
25.10.2019 16:24 13,8 °C 77 % 1020,5 hPa 0,0 mm 0,0 km/h (0 Bft) O 91 ° 0 min 0,000 mm 0,0 UV-I 47 W/m² 9,8 °C 13,8 °C 0,0 km/h (0 Bft)
25.10.2019 16:25 13,8 °C 77 % 1020,5 hPa 0,0 mm 0,0 km/h (0 Bft) O 91 ° 0 min 0,000 mm 0,0 UV-I 46 W/m² 9,8 °C 13,8 °C 0,0 km/h (0 Bft)
25.10.2019 16:26 13,8 °C 78 % 1020,5 hPa 0,0 mm 0,0 km/h (0 Bft) O 91 ° 0 min 0,000 mm 0,0 UV-I 46 W/m² 10,0 °C 13,8 °C 0,0 km/h (0 Bft)
25.10.2019 16:27 13,8 °C 78 % 1020,5 hPa 0,0 mm 0,0 km/h (0 Bft) O 90 ° 0 min 0,000 mm 0,0 UV-I 46 W/m² 10,0 °C 13,8 °C 0,0 km/h (0 Bft)
25.10.2019 16:28 13,7 °C 78 % 1020,5 hPa 0,0 mm 2,9 km/h (1 Bft) NO 55 ° 0 min 0,000 mm 0,0 UV-I 44 W/m² 9,9 °C 13,7 °C 4,8 km/h (1 Bft)
25.10.2019 16:29 13,7 °C 78 % 1020,5 hPa 0,0 mm 1,5 km/h (1 Bft) NO 56 ° 0 min 0,000 mm 0,0 UV-I 44 W/m² 9,9 °C 13,7 °C 4,8 km/h (1 Bft)
25.10.2019 16:30 13,7 °C 78 % 1020,5 hPa 0,0 mm 3,7 km/h (1 Bft) O-NO 57 ° 0 min 0,000 mm 0,0 UV-I 42 W/m² 9,9 °C 13,7 °C 4,8 km/h (1 Bft)
25.10.2019 16:31 13,6 °C 78 % 1020,6 hPa 0,0 mm 1,5 km/h (1 Bft) O-NO 57 ° 0 min 0,000 mm 0,0 UV-I 44 W/m² 9,8 °C 13,6 °C 4,8 km/h (1 Bft)
25.10.2019 16:32 13,6 °C 78 % 1020,5 hPa 0,0 mm 1,3 km/h (1 Bft) O 97 ° 0 min 0,000 mm 0,0 UV-I 47 W/m² 9,8 °C 13,6 °C 4,8 km/h (1 Bft)
25.10.2019 16:33 13,7 °C 78 % 1020,6 hPa 0,0 mm 3,2 km/h (1 Bft) O 97 ° 0 min 0,000 mm 0,0 UV-I 46 W/m² 9,9 °C 13,7 °C 4,8 km/h (1 Bft)
25.10.2019 16:34 13,6 °C 78 % 1020,6 hPa 0,0 mm 2,5 km/h (1 Bft) O 97 ° 0 min 0,000 mm 0,0 UV-I 40 W/m² 9,8 °C 13,6 °C 4,8 km/h (1 Bft)
25.10.2019 16:35 13,6 °C 78 % 1020,6 hPa 0,0 mm 0,5 km/h (0 Bft) O 97 ° 0 min 0,000 mm 0,0 UV-I 39 W/m² 9,8 °C 13,6 °C 1,6 km/h (1 Bft)
25.10.2019 16:36 13,7 °C 78 % 1020,6 hPa 0,0 mm 1,9 km/h (1 Bft) O-SO 111 ° 0 min 0,000 mm 0,0 UV-I 39 W/m² 9,9 °C 13,7 °C 4,8 km/h (1 Bft)
25.10.2019 16:37 13,6 °C 77 % 1020,6 hPa 0,0 mm 0,8 km/h (0 Bft) O-SO 111 ° 0 min 0,000 mm 0,0 UV-I 39 W/m² 9,6 °C 13,6 °C 3,2 km/h (1 Bft)
25.10.2019 16:38 13,6 °C 77 % 1020,5 hPa 0,0 mm 0,6 km/h (0 Bft) O-SO 111 ° 0 min 0,000 mm 0,0 UV-I 37 W/m² 9,6 °C 13,6 °C 3,2 km/h (1 Bft)
25.10.2019 16:39 13,7 °C 77 % 1020,5 hPa 0,0 mm 2,4 km/h (1 Bft) NO 40 ° 0 min 0,000 mm 0,0 UV-I 37 W/m² 9,7 °C 13,7 °C 6,4 km/h (2 Bft)
25.10.2019 16:40 13,6 °C 77 % 1020,5 hPa 0,0 mm 0,0 km/h (0 Bft) NO 40 ° 0 min 0,000 mm 0,0 UV-I 37 W/m² 9,6 °C 13,6 °C 0,0 km/h (0 Bft)
25.10.2019 16:41 13,6 °C 77 % 1020,5 hPa 0,0 mm 0,0 km/h (0 Bft) NO 40 ° 0 min 0,000 mm 0,0 UV-I 35 W/m² 9,6 °C 13,6 °C 0,0 km/h (0 Bft)
25.10.2019 16:42 13,6 °C 78 % 1020,5 hPa 0,0 mm 1,6 km/h (1 Bft) O-SO 109 ° 0 min 0,000 mm 0,0 UV-I 35 W/m² 9,8 °C 13,6 °C 4,8 km/h (1 Bft)
25.10.2019 16:43 13,5 °C 78 % 1020,5 hPa 0,0 mm 5,2 km/h (1 Bft) O-SO 109 ° 0 min 0,000 mm 0,0 UV-I 35 W/m² 9,7 °C 13,5 °C 8,0 km/h (2 Bft)
25.10.2019 16:44 13,4 °C 79 % 1020,5 hPa 0,0 mm 2,4 km/h (1 Bft) O 90 ° 0 min 0,000 mm 0,0 UV-I 35 W/m² 9,8 °C 13,4 °C 4,8 km/h (1 Bft)
25.10.2019 16:45 13,4 °C 78 % 1020,6 hPa 0,0 mm 3,7 km/h (1 Bft) O-NO 65 ° 0 min 0,000 mm 0,0 UV-I 35 W/m² 9,6 °C 13,4 °C 6,4 km/h (2 Bft)
25.10.2019 16:46 13,4 °C 78 % 1020,5 hPa 0,0 mm 2,3 km/h (1 Bft) O-NO 65 ° 0 min 0,000 mm 0,0 UV-I 35 W/m² 9,6 °C 13,4 °C 4,8 km/h (1 Bft)
25.10.2019 16:47 13,4 °C 78 % 1020,6 hPa 0,0 mm 3,2 km/h (1 Bft) O-SO 104 ° 0 min 0,000 mm 0,0 UV-I 33 W/m² 9,6 °C 13,4 °C 4,8 km/h (1 Bft)
25.10.2019 16:48 13,4 °C 79 % 1020,5 hPa 0,0 mm 1,3 km/h (1 Bft) O-SO 103 ° 0 min 0,000 mm 0,0 UV-I 33 W/m² 9,8 °C 13,4 °C 1,6 km/h (1 Bft)
25.10.2019 16:49 13,3 °C 79 % 1020,5 hPa 0,0 mm 0,3 km/h (0 Bft) O 90 ° 0 min 0,000 mm 0,0 UV-I 33 W/m² 9,7 °C 13,3 °C 1,6 km/h (1 Bft)
25.10.2019 16:50 13,3 °C 79 % 1020,5 hPa 0,0 mm 0,5 km/h (0 Bft) O 90 ° 0 min 0,000 mm 0,0 UV-I 33 W/m² 9,7 °C 13,3 °C 3,2 km/h (1 Bft)
25.10.2019 16:51 13,2 °C 79 % 1020,5 hPa 0,0 mm 0,8 km/h (0 Bft) O 90 ° 0 min 0,000 mm 0,0 UV-I 33 W/m² 9,6 °C 13,2 °C 3,2 km/h (1 Bft)
25.10.2019 16:52 13,2 °C 79 % 1020,5 hPa 0,0 mm 0,2 km/h (0 Bft) O 90 ° 0 min 0,000 mm 0,0 UV-I 33 W/m² 9,6 °C 13,2 °C 3,2 km/h (1 Bft)
25.10.2019 16:53 13,2 °C 79 % 1020,5 hPa 0,0 mm 0,0 km/h (0 Bft) O 90 ° 0 min 0,000 mm 0,0 UV-I 32 W/m² 9,6 °C 13,2 °C 0,0 km/h (0 Bft)
25.10.2019 16:54 13,2 °C 79 % 1020,5 hPa 0,0 mm 0,0 km/h (0 Bft) O 90 ° 0 min 0,000 mm 0,0 UV-I 32 W/m² 9,6 °C 13,2 °C 0,0 km/h (0 Bft)
25.10.2019 16:55 13,2 °C 79 % 1020,5 hPa 0,0 mm 0,0 km/h (0 Bft) O 90 ° 0 min 0,000 mm 0,0 UV-I 32 W/m² 9,6 °C 13,2 °C 0,0 km/h (0 Bft)
25.10.2019 16:56 13,2 °C 79 % 1020,5 hPa 0,0 mm 0,0 km/h (0 Bft) O 90 ° 0 min 0,000 mm 0,0 UV-I 32 W/m² 9,6 °C 13,2 °C 0,0 km/h (0 Bft)
25.10.2019 16:57 13,2 °C 80 % 1020,5 hPa 0,0 mm 0,0 km/h (0 Bft) O 90 ° 0 min 0,000 mm 0,0 UV-I 32 W/m² 9,8 °C 13,2 °C 0,0 km/h (0 Bft)
25.10.2019 16:58 13,2 °C 80 % 1020,5 hPa 0,0 mm 0,0 km/h (0 Bft) O 90 ° 0 min 0,000 mm 0,0 UV-I 30 W/m² 9,8 °C 13,2 °C 0,0 km/h (0 Bft)
25.10.2019 16:59 13,1 °C 79 % 1020,5 hPa 0,0 mm 0,0 km/h (0 Bft) O 90 ° 0 min 0,000 mm 0,0 UV-I 30 W/m² 9,5 °C 13,1 °C 0,0 km/h (0 Bft)
25.10.2019 17:00 13,1 °C 79 % 1020,5 hPa 0,0 mm 0,6 km/h (0 Bft) O 90 ° 0 min 0,000 mm 0,0 UV-I 30 W/m² 9,5 °C 13,1 °C 3,2 km/h (1 Bft)
25.10.2019 17:01 13,1 °C 79 % 1020,5 hPa 0,0 mm 0,0 km/h (0 Bft) O 90 ° 0 min 0,051 mm 0,0 UV-I 30 W/m² 9,5 °C 13,1 °C 0,0 km/h (0 Bft)
25.10.2019 17:02 13,1 °C 79 % 1020,5 hPa 0,0 mm 1,0 km/h (0 Bft) O 90 ° 0 min 0,000 mm 0,0 UV-I 30 W/m² 9,5 °C 13,1 °C 3,2 km/h (1 Bft)
25.10.2019 17:03 13,1 °C 79 % 1020,5 hPa 0,0 mm 0,1 km/h (0 Bft) O 90 ° 0 min 0,000 mm 0,0 UV-I 30 W/m² 9,5 °C 13,1 °C 1,6 km/h (1 Bft)
25.10.2019 17:04 13,0 °C 79 % 1020,5 hPa 0,0 mm 0,0 km/h (0 Bft) O 90 ° 0 min 0,000 mm 0,0 UV-I 30 W/m² 9,4 °C 13,0 °C 0,0 km/h (0 Bft)
25.10.2019 17:05 13,0 °C 79 % 1020,5 hPa 0,0 mm 0,0 km/h (0 Bft) O 90 ° 0 min 0,000 mm 0,0 UV-I 28 W/m² 9,4 °C 13,0 °C 0,0 km/h (0 Bft)
25.10.2019 17:06 12,9 °C 79 % 1020,5 hPa 0,0 mm 0,0 km/h (0 Bft) O 90 ° 0 min 0,000 mm 0,0 UV-I 28 W/m² 9,3 °C 12,9 °C 0,0 km/h (0 Bft)
25.10.2019 17:07 12,9 °C 79 % 1020,5 hPa 0,0 mm 0,0 km/h (0 Bft) O 90 ° 0 min 0,000 mm 0,0 UV-I 28 W/m² 9,3 °C 12,9 °C 0,0 km/h (0 Bft)
25.10.2019 17:08 12,9 °C 79 % 1020,5 hPa 0,0 mm 0,6 km/h (0 Bft) O 90 ° 0 min 0,000 mm 0,0 UV-I 28 W/m² 9,3 °C 12,9 °C 3,2 km/h (1 Bft)
25.10.2019 17:09 12,9 °C 79 % 1020,5 hPa 0,0 mm 0,7 km/h (0 Bft) O 90 ° 0 min 0,000 mm 0,0 UV-I 28 W/m² 9,3 °C 12,9 °C 1,6 km/h (1 Bft)
25.10.2019 17:10 12,9 °C 79 % 1020,5 hPa 0,0 mm 1,5 km/h (1 Bft) O 90 ° 0 min 0,000 mm 0,0 UV-I 28 W/m² 9,3 °C 12,9 °C 3,2 km/h (1 Bft)
25.10.2019 17:11 12,9 °C 79 % 1020,5 hPa 0,0 mm 0,0 km/h (0 Bft) O 90 ° 0 min 0,000 mm 0,0 UV-I 28 W/m² 9,3 °C 12,9 °C 0,0 km/h (0 Bft)
25.10.2019 17:12 12,9 °C 79 % 1020,5 hPa 0,0 mm 0,0 km/h (0 Bft) O 90 ° 0 min 0,000 mm 0,0 UV-I 26 W/m² 9,3 °C 12,9 °C 0,0 km/h (0 Bft)
25.10.2019 17:13 12,8 °C 79 % 1020,5 hPa 0,0 mm 0,0 km/h (0 Bft) O 90 ° 0 min 0,000 mm 0,0 UV-I 26 W/m² 9,2 °C 12,8 °C 0,0 km/h (0 Bft)
25.10.2019 17:14 12,8 °C 80 % 1020,6 hPa 0,0 mm 0,0 km/h (0 Bft) O 90 ° 0 min 0,000 mm 0,0 UV-I 26 W/m² 9,4 °C 12,8 °C 0,0 km/h (0 Bft)
25.10.2019 17:15 12,8 °C 80 % 1020,6 hPa 0,0 mm 0,0 km/h (0 Bft) O 90 ° 0 min 0,000 mm 0,0 UV-I 26 W/m² 9,4 °C 12,8 °C 0,0 km/h (0 Bft)
25.10.2019 17:16 12,8 °C 80 % 1020,6 hPa 0,0 mm 0,0 km/h (0 Bft) O 90 ° 0 min 0,000 mm 0,0 UV-I 26 W/m² 9,4 °C 12,8 °C 0,0 km/h (0 Bft)
25.10.2019 17:17 12,8 °C 80 % 1020,6 hPa 0,0 mm 0,0 km/h (0 Bft) O 90 ° 0 min 0,000 mm 0,0 UV-I 26 W/m² 9,4 °C 12,8 °C 0,0 km/h (0 Bft)
25.10.2019 17:18 12,8 °C 80 % 1020,6 hPa 0,0 mm 0,0 km/h (0 Bft) O 90 ° 0 min 0,000 mm 0,0 UV-I 26 W/m² 9,4 °C 12,8 °C 0,0 km/h (0 Bft)
25.10.2019 17:19 12,8 °C 80 % 1020,6 hPa 0,0 mm 0,0 km/h (0 Bft) O 90 ° 0 min 0,000 mm 0,0 UV-I 26 W/m² 9,4 °C 12,8 °C 0,0 km/h (0 Bft)
25.10.2019 17:20 12,8 °C 80 % 1020,6 hPa 0,0 mm 0,0 km/h (0 Bft) O 90 ° 0 min 0,000 mm 0,0 UV-I 25 W/m² 9,4 °C 12,8 °C 0,0 km/h (0 Bft)
25.10.2019 17:21 12,8 °C 81 % 1020,6 hPa 0,0 mm 0,0 km/h (0 Bft) O 90 ° 0 min 0,000 mm 0,0 UV-I 25 W/m² 9,6 °C 12,8 °C 0,0 km/h (0 Bft)
25.10.2019 17:22 12,7 °C 81 % 1020,6 hPa 0,0 mm 0,0 km/h (0 Bft) O 90 ° 0 min 0,000 mm 0,0 UV-I 25 W/m² 9,5 °C 12,7 °C 0,0 km/h (0 Bft)
25.10.2019 17:23 12,7 °C 80 % 1020,5 hPa 0,0 mm 0,0 km/h (0 Bft) O 90 ° 0 min 0,000 mm 0,0 UV-I 25 W/m² 9,3 °C 12,7 °C 0,0 km/h (0 Bft)
25.10.2019 17:24 12,7 °C 81 % 1020,6 hPa 0,0 mm 0,0 km/h (0 Bft) O 90 ° 0 min 0,000 mm 0,0 UV-I 25 W/m² 9,5 °C 12,7 °C 0,0 km/h (0 Bft)
25.10.2019 17:25 12,7 °C 81 % 1020,6 hPa 0,0 mm 0,0 km/h (0 Bft) O 90 ° 0 min 0,000 mm 0,0 UV-I 25 W/m² 9,5 °C 12,7 °C 0,0 km/h (0 Bft)
25.10.2019 17:26 12,7 °C 81 % 1020,6 hPa 0,0 mm 0,0 km/h (0 Bft) O 90 ° 0 min 0,000 mm 0,0 UV-I 23 W/m² 9,5 °C 12,7 °C 0,0 km/h (0 Bft)
25.10.2019 17:27 12,6 °C 81 % 1020,6 hPa 0,0 mm 0,0 km/h (0 Bft) O 90 ° 0 min 0,000 mm 0,0 UV-I 23 W/m² 9,4 °C 12,6 °C 0,0 km/h (0 Bft)
25.10.2019 17:28 12,6 °C 81 % 1020,7 hPa 0,0 mm 0,0 km/h (0 Bft) O 90 ° 0 min 0,000 mm 0,0 UV-I 23 W/m² 9,4 °C 12,6 °C 0,0 km/h (0 Bft)
25.10.2019 17:29 12,6 °C 81 % 1020,6 hPa 0,0 mm 0,0 km/h (0 Bft) O 90 ° 0 min 0,000 mm 0,0 UV-I 23 W/m² 9,4 °C 12,6 °C 0,0 km/h (0 Bft)
25.10.2019 17:30 12,6 °C 81 % 1020,7 hPa 0,0 mm 0,0 km/h (0 Bft) O 90 ° 0 min 0,000 mm 0,0 UV-I 21 W/m² 9,4 °C 12,6 °C 0,0 km/h (0 Bft)
25.10.2019 17:31 12,6 °C 81 % 1020,7 hPa 0,0 mm 0,0 km/h (0 Bft) O 90 ° 0 min 0,000 mm 0,0 UV-I 21 W/m² 9,4 °C 12,6 °C 0,0 km/h (0 Bft)
25.10.2019 17:32 12,6 °C 81 % 1020,7 hPa 0,0 mm 0,0 km/h (0 Bft) O 90 ° 0 min 0,000 mm 0,0 UV-I 21 W/m² 9,4 °C 12,6 °C 0,0 km/h (0 Bft)
25.10.2019 17:33 12,6 °C 81 % 1020,7 hPa 0,0 mm 0,0 km/h (0 Bft) O 90 ° 0 min 0,000 mm 0,0 UV-I 21 W/m² 9,4 °C 12,6 °C 0,0 km/h (0 Bft)
25.10.2019 17:34 12,6 °C 81 % 1020,8 hPa 0,0 mm 0,0 km/h (0 Bft) O 90 ° 0 min 0,000 mm 0,0 UV-I 19 W/m² 9,4 °C 12,6 °C 0,0 km/h (0 Bft)
25.10.2019 17:35 12,6 °C 81 % 1020,7 hPa 0,0 mm 0,0 km/h (0 Bft) O 90 ° 0 min 0,000 mm 0,0 UV-I 19 W/m² 9,4 °C 12,6 °C 0,0 km/h (0 Bft)
25.10.2019 17:36 12,6 °C 81 % 1020,7 hPa 0,0 mm 0,0 km/h (0 Bft) O 90 ° 0 min 0,000 mm 0,0 UV-I 19 W/m² 9,4 °C 12,6 °C 0,0 km/h (0 Bft)
25.10.2019 17:37 12,6 °C 81 % 1020,6 hPa 0,0 mm 0,0 km/h (0 Bft) O 90 ° 0 min 0,000 mm 0,0 UV-I 19 W/m² 9,4 °C 12,6 °C 0,0 km/h (0 Bft)
25.10.2019 17:38 12,6 °C 81 % 1020,7 hPa 0,0 mm 0,0 km/h (0 Bft) O 90 ° 0 min 0,000 mm 0,0 UV-I 18 W/m² 9,4 °C 12,6 °C 0,0 km/h (0 Bft)
25.10.2019 17:39 12,6 °C 81 % 1020,8 hPa 0,0 mm 0,0 km/h (0 Bft) O 90 ° 0 min 0,000 mm 0,0 UV-I 18 W/m² 9,4 °C 12,6 °C 0,0 km/h (0 Bft)
25.10.2019 17:40 12,6 °C 82 % 1020,7 hPa 0,0 mm 0,0 km/h (0 Bft) O 90 ° 0 min 0,000 mm 0,0 UV-I 18 W/m² 9,6 °C 12,6 °C 0,0 km/h (0 Bft)
25.10.2019 17:41 12,6 °C 82 % 1020,8 hPa 0,0 mm 0,0 km/h (0 Bft) O 90 ° 0 min 0,000 mm 0,0 UV-I 18 W/m² 9,6 °C 12,6 °C 0,0 km/h (0 Bft)
25.10.2019 17:42 12,5 °C 82 % 1020,8 hPa 0,0 mm 0,0 km/h (0 Bft) O 90 ° 0 min 0,000 mm 0,0 UV-I 16 W/m² 9,5 °C 12,5 °C 0,0 km/h (0 Bft)
25.10.2019 17:43 12,5 °C 82 % 1020,8 hPa 0,0 mm 0,0 km/h (0 Bft) O 90 ° 0 min 0,000 mm 0,0 UV-I 16 W/m² 9,5 °C 12,5 °C 0,0 km/h (0 Bft)
25.10.2019 17:44 12,5 °C 82 % 1020,8 hPa 0,0 mm 0,0 km/h (0 Bft) O 90 ° 0 min 0,000 mm 0,0 UV-I 14 W/m² 9,5 °C 12,5 °C 0,0 km/h (0 Bft)
25.10.2019 17:45 12,5 °C 82 % 1020,8 hPa 0,0 mm 0,0 km/h (0 Bft) O 90 ° 0 min 0,000 mm 0,0 UV-I 14 W/m² 9,5 °C 12,5 °C 0,0 km/h (0 Bft)
25.10.2019 17:46 12,5 °C 82 % 1020,8 hPa 0,0 mm 0,0 km/h (0 Bft) O 90 ° 0 min 0,000 mm 0,0 UV-I 14 W/m² 9,5 °C 12,5 °C 0,0 km/h (0 Bft)
25.10.2019 17:47 12,6 °C 82 % 1020,8 hPa 0,0 mm 0,0 km/h (0 Bft) O 90 ° 0 min 0,000 mm 0,0 UV-I 14 W/m² 9,6 °C 12,6 °C 0,0 km/h (0 Bft)
25.10.2019 17:48 12,6 °C 82 % 1020,8 hPa 0,0 mm 0,0 km/h (0 Bft) O 90 ° 0 min 0,000 mm 0,0 UV-I 14 W/m² 9,6 °C 12,6 °C 0,0 km/h (0 Bft)
25.10.2019 17:49 12,5 °C 82 % 1020,9 hPa 0,0 mm 0,0 km/h (0 Bft) O 90 ° 0 min 0,000 mm 0,0 UV-I 14 W/m² 9,5 °C 12,5 °C 0,0 km/h (0 Bft)
25.10.2019 17:50 12,5 °C 82 % 1020,9 hPa 0,0 mm 0,0 km/h (0 Bft) O 90 ° 0 min 0,000 mm 0,0 UV-I 12 W/m² 9,5 °C 12,5 °C 0,0 km/h (0 Bft)
25.10.2019 17:51 12,5 °C 82 % 1020,9 hPa 0,0 mm 0,0 km/h (0 Bft) O 90 ° 0 min 0,000 mm 0,0 UV-I 12 W/m² 9,5 °C 12,5 °C 0,0 km/h (0 Bft)
25.10.2019 17:52 12,5 °C 82 % 1020,9 hPa 0,0 mm 0,0 km/h (0 Bft) O 90 ° 0 min 0,000 mm 0,0 UV-I 12 W/m² 9,5 °C 12,5 °C 0,0 km/h (0 Bft)
25.10.2019 17:53 12,5 °C 82 % 1020,9 hPa 0,0 mm 0,0 km/h (0 Bft) O 90 ° 0 min 0,000 mm 0,0 UV-I 12 W/m² 9,5 °C 12,5 °C 0,0 km/h (0 Bft)
25.10.2019 17:54 12,4 °C 81 % 1020,9 hPa 0,0 mm 0,0 km/h (0 Bft) O 90 ° 0 min 0,000 mm 0,0 UV-I 12 W/m² 9,2 °C 12,4 °C 0,0 km/h (0 Bft)
25.10.2019 17:55 12,4 °C 82 % 1021,0 hPa 0,0 mm 0,0 km/h (0 Bft) O 90 ° 0 min 0,000 mm 0,0 UV-I 11 W/m² 9,4 °C 12,4 °C 0,0 km/h (0 Bft)
25.10.2019 17:56 12,4 °C 82 % 1021,0 hPa 0,0 mm 0,0 km/h (0 Bft) O 90 ° 0 min 0,000 mm 0,0 UV-I 11 W/m² 9,4 °C 12,4 °C 0,0 km/h (0 Bft)
25.10.2019 17:57 12,4 °C 82 % 1021,0 hPa 0,0 mm 0,0 km/h (0 Bft) O 90 ° 0 min 0,000 mm 0,0 UV-I 11 W/m² 9,4 °C 12,4 °C 0,0 km/h (0 Bft)
25.10.2019 17:58 12,4 °C 82 % 1021,0 hPa 0,0 mm 0,0 km/h (0 Bft) O 90 ° 0 min 0,000 mm 0,0 UV-I 11 W/m² 9,4 °C 12,4 °C 0,0 km/h (0 Bft)
25.10.2019 17:59 12,3 °C 82 % 1021,0 hPa 0,0 mm 0,0 km/h (0 Bft) O 90 ° 0 min 0,000 mm 0,0 UV-I 9 W/m² 9,3 °C 12,3 °C 0,0 km/h (0 Bft)
25.10.2019 18:00 12,3 °C 82 % 1021,0 hPa 0,0 mm 0,0 km/h (0 Bft) O 90 ° 0 min 0,000 mm 0,0 UV-I 9 W/m² 9,3 °C 12,3 °C 0,0 km/h (0 Bft)
25.10.2019 18:01 12,3 °C 82 % 1021,0 hPa 0,0 mm 0,0 km/h (0 Bft) O 90 ° 0 min 0,026 mm 0,0 UV-I 9 W/m² 9,3 °C 12,3 °C 0,0 km/h (0 Bft)
25.10.2019 18:02 12,3 °C 82 % 1021,0 hPa 0,0 mm 0,0 km/h (0 Bft) O 90 ° 0 min 0,000 mm 0,0 UV-I 7 W/m² 9,3 °C 12,3 °C 0,0 km/h (0 Bft)
25.10.2019 18:03 12,3 °C 82 % 1021,1 hPa 0,0 mm 0,0 km/h (0 Bft) O 90 ° 0 min 0,000 mm 0,0 UV-I 7 W/m² 9,3 °C 12,3 °C 0,0 km/h (0 Bft)
25.10.2019 18:04 12,2 °C 82 % 1021,1 hPa 0,0 mm 0,0 km/h (0 Bft) O 90 ° 0 min 0,000 mm 0,0 UV-I 7 W/m² 9,2 °C 12,2 °C 0,0 km/h (0 Bft)
25.10.2019 18:05 12,2 °C 82 % 1021,1 hPa 0,0 mm 0,0 km/h (0 Bft) O 90 ° 0 min 0,000 mm 0,0 UV-I 7 W/m² 9,2 °C 12,2 °C 0,0 km/h (0 Bft)
25.10.2019 18:06 12,2 °C 82 % 1021,1 hPa 0,0 mm 0,0 km/h (0 Bft) O 90 ° 0 min 0,000 mm 0,0 UV-I 7 W/m² 9,2 °C 12,2 °C 0,0 km/h (0 Bft)
25.10.2019 18:07 12,2 °C 82 % 1021,1 hPa 0,0 mm 0,0 km/h (0 Bft) O 90 ° 0 min 0,000 mm 0,0 UV-I 5 W/m² 9,2 °C 12,2 °C 0,0 km/h (0 Bft)
25.10.2019 18:08 12,2 °C 82 % 1021,1 hPa 0,0 mm 0,0 km/h (0 Bft) O 90 ° 0 min 0,000 mm 0,0 UV-I 5 W/m² 9,2 °C 12,2 °C 0,0 km/h (0 Bft)
25.10.2019 18:09 12,1 °C 82 % 1021,2 hPa 0,0 mm 0,0 km/h (0 Bft) O 90 ° 0 min 0,000 mm 0,0 UV-I 5 W/m² 9,1 °C 12,1 °C 0,0 km/h (0 Bft)
25.10.2019 18:10 12,1 °C 82 % 1021,2 hPa 0,0 mm 0,0 km/h (0 Bft) O 90 ° 0 min 0,000 mm 0,0 UV-I 5 W/m² 9,1 °C 12,1 °C 0,0 km/h (0 Bft)
25.10.2019 18:11 12,1 °C 83 % 1021,2 hPa 0,0 mm 0,0 km/h (0 Bft) O 90 ° 0 min 0,000 mm 0,0 UV-I 5 W/m² 9,3 °C 12,1 °C 0,0 km/h (0 Bft)
25.10.2019 18:12 12,1 °C 83 % 1021,2 hPa 0,0 mm 0,0 km/h (0 Bft) O 90 ° 0 min 0,000 mm 0,0 UV-I 0 W/m² 9,3 °C 12,1 °C 0,0 km/h (0 Bft)
25.10.2019 18:13 11,9 °C 83 % 1021,2 hPa 0,0 mm 0,0 km/h (0 Bft) O 90 ° 0 min 0,000 mm 0,0 UV-I 0 W/m² 9,1 °C 11,9 °C 0,0 km/h (0 Bft)
25.10.2019 18:14 11,9 °C 83 % 1021,2 hPa 0,0 mm 0,0 km/h (0 Bft) O 90 ° 0 min 0,000 mm 0,0 UV-I 0 W/m² 9,1 °C 11,9 °C 0,0 km/h (0 Bft)
25.10.2019 18:15 11,9 °C 83 % 1021,2 hPa 0,0 mm 0,0 km/h (0 Bft) O 90 ° 0 min 0,000 mm 0,0 UV-I 0 W/m² 9,1 °C 11,9 °C 0,0 km/h (0 Bft)
25.10.2019 18:16 11,9 °C 83 % 1021,2 hPa 0,0 mm 0,0 km/h (0 Bft) O 90 ° 0 min 0,000 mm 0,0 UV-I 0 W/m² 9,1 °C 11,9 °C 0,0 km/h (0 Bft)
25.10.2019 18:17 11,8 °C 83 % 1021,2 hPa 0,0 mm 0,0 km/h (0 Bft) O 90 ° 0 min 0,000 mm 0,0 UV-I 0 W/m² 9,0 °C 11,8 °C 0,0 km/h (0 Bft)
25.10.2019 18:18 11,8 °C 83 % 1021,2 hPa 0,0 mm 0,0 km/h (0 Bft) O 90 ° 0 min 0,000 mm 0,0 UV-I 0 W/m² 9,0 °C 11,8 °C 0,0 km/h (0 Bft)
25.10.2019 18:19 11,7 °C 83 % 1021,2 hPa 0,0 mm 0,0 km/h (0 Bft) O 90 ° 0 min 0,000 mm 0,0 UV-I 0 W/m² 8,9 °C 11,7 °C 0,0 km/h (0 Bft)
25.10.2019 18:20 11,7 °C 83 % 1021,2 hPa 0,0 mm 0,0 km/h (0 Bft) O 90 ° 0 min 0,000 mm 0,0 UV-I 0 W/m² 8,9 °C 11,7 °C 0,0 km/h (0 Bft)
25.10.2019 18:21 11,7 °C 83 % 1021,3 hPa 0,0 mm 0,0 km/h (0 Bft) O 90 ° 0 min 0,000 mm 0,0 UV-I 0 W/m² 8,9 °C 11,7 °C 0,0 km/h (0 Bft)
25.10.2019 18:22 11,6 °C 83 % 1021,2 hPa 0,0 mm 0,0 km/h (0 Bft) O 90 ° 0 min 0,000 mm 0,0 UV-I 0 W/m² 8,8 °C 11,6 °C 0,0 km/h (0 Bft)
25.10.2019 18:23 11,6 °C 83 % 1021,3 hPa 0,0 mm 0,0 km/h (0 Bft) O 90 ° 0 min 0,000 mm 0,0 UV-I 0 W/m² 8,8 °C 11,6 °C 0,0 km/h (0 Bft)
25.10.2019 18:24 11,6 °C 83 % 1021,3 hPa 0,0 mm 0,0 km/h (0 Bft) O 90 ° 0 min 0,000 mm 0,0 UV-I 0 W/m² 8,8 °C 11,6 °C 0,0 km/h (0 Bft)
25.10.2019 18:25 11,6 °C 83 % 1021,3 hPa 0,0 mm 0,0 km/h (0 Bft) O 90 ° 0 min 0,000 mm 0,0 UV-I 0 W/m² 8,8 °C 11,6 °C 0,0 km/h (0 Bft)
25.10.2019 18:26 11,4 °C 83 % 1021,3 hPa 0,0 mm 0,0 km/h (0 Bft) O 90 ° 0 min 0,000 mm 0,0 UV-I 0 W/m² 8,6 °C 11,4 °C 0,0 km/h (0 Bft)
25.10.2019 18:27 11,4 °C 83 % 1021,3 hPa 0,0 mm 0,0 km/h (0 Bft) O 90 ° 0 min 0,000 mm 0,0 UV-I 0 W/m² 8,6 °C 11,4 °C 0,0 km/h (0 Bft)
25.10.2019 18:28 11,4 °C 83 % 1021,3 hPa 0,0 mm 0,0 km/h (0 Bft) O 90 ° 0 min 0,000 mm 0,0 UV-I 0 W/m² 8,6 °C 11,4 °C 0,0 km/h (0 Bft)
25.10.2019 18:29 11,3 °C 84 % 1021,3 hPa 0,0 mm 0,0 km/h (0 Bft) O 90 ° 0 min 0,000 mm 0,0 UV-I 0 W/m² 8,7 °C 11,3 °C 0,0 km/h (0 Bft)
25.10.2019 18:30 11,3 °C 84 % 1021,3 hPa 0,0 mm 0,0 km/h (0 Bft) O 90 ° 0 min 0,000 mm 0,0 UV-I 0 W/m² 8,7 °C 11,3 °C 0,0 km/h (0 Bft)
25.10.2019 18:31 11,2 °C 84 % 1021,3 hPa 0,0 mm 0,0 km/h (0 Bft) O 90 ° 0 min 0,000 mm 0,0 UV-I 0 W/m² 8,6 °C 11,2 °C 0,0 km/h (0 Bft)
25.10.2019 18:32 11,2 °C 84 % 1021,3 hPa 0,0 mm 0,0 km/h (0 Bft) O 90 ° 0 min 0,000 mm 0,0 UV-I 0 W/m² 8,6 °C 11,2 °C 0,0 km/h (0 Bft)
25.10.2019 18:33 11,1 °C 85 % 1021,3 hPa 0,0 mm 0,0 km/h (0 Bft) O 90 ° 0 min 0,000 mm 0,0 UV-I 0 W/m² 8,7 °C 11,1 °C 0,0 km/h (0 Bft)
25.10.2019 18:34 11,1 °C 85 % 1021,4 hPa 0,0 mm 0,0 km/h (0 Bft) O 90 ° 0 min 0,000 mm 0,0 UV-I 0 W/m² 8,7 °C 11,1 °C 0,0 km/h (0 Bft)
25.10.2019 18:35 11,0 °C 85 % 1021,5 hPa 0,0 mm 0,0 km/h (0 Bft) O 90 ° 0 min 0,000 mm 0,0 UV-I 0 W/m² 8,6 °C 11,0 °C 0,0 km/h (0 Bft)
25.10.2019 18:36 11,0 °C 85 % 1021,5 hPa 0,0 mm 0,0 km/h (0 Bft) O 90 ° 0 min 0,000 mm 0,0 UV-I 0 W/m² 8,6 °C 11,0 °C 0,0 km/h (0 Bft)
25.10.2019 18:37 10,9 °C 85 % 1021,5 hPa 0,0 mm 0,0 km/h (0 Bft) O 90 ° 0 min 0,000 mm 0,0 UV-I 0 W/m² 8,5 °C 10,9 °C 0,0 km/h (0 Bft)
25.10.2019 18:38 10,9 °C 85 % 1021,5 hPa 0,0 mm 0,0 km/h (0 Bft) O 90 ° 0 min 0,000 mm 0,0 UV-I 0 W/m² 8,5 °C 10,9 °C 0,0 km/h (0 Bft)
25.10.2019 18:39 10,8 °C 85 % 1021,5 hPa 0,0 mm 0,0 km/h (0 Bft) O 90 ° 0 min 0,000 mm 0,0 UV-I 0 W/m² 8,4 °C 10,8 °C 0,0 km/h (0 Bft)
25.10.2019 18:40 10,8 °C 85 % 1021,5 hPa 0,0 mm 0,0 km/h (0 Bft) O 90 ° 0 min 0,000 mm 0,0 UV-I 0 W/m² 8,4 °C 10,8 °C 0,0 km/h (0 Bft)
25.10.2019 18:41 10,8 °C 85 % 1021,5 hPa 0,0 mm 0,0 km/h (0 Bft) O 90 ° 0 min 0,000 mm 0,0 UV-I 0 W/m² 8,4 °C 10,8 °C 0,0 km/h (0 Bft)
25.10.2019 18:42 10,7 °C 85 % 1021,5 hPa 0,0 mm 0,0 km/h (0 Bft) O 90 ° 0 min 0,000 mm 0,0 UV-I 0 W/m² 8,3 °C 10,7 °C 0,0 km/h (0 Bft)
25.10.2019 18:43 10,7 °C 85 % 1021,6 hPa 0,0 mm 0,0 km/h (0 Bft) O 90 ° 0 min 0,000 mm 0,0 UV-I 0 W/m² 8,3 °C 10,7 °C 0,0 km/h (0 Bft)
25.10.2019 18:44 10,7 °C 85 % 1021,6 hPa 0,0 mm 0,0 km/h (0 Bft) O 90 ° 0 min 0,000 mm 0,0 UV-I 0 W/m² 8,3 °C 10,7 °C 0,0 km/h (0 Bft)
25.10.2019 18:45 10,7 °C 85 % 1021,6 hPa 0,0 mm 0,0 km/h (0 Bft) O 90 ° 0 min 0,000 mm 0,0 UV-I 0 W/m² 8,3 °C 10,7 °C 0,0 km/h (0 Bft)
25.10.2019 18:46 10,6 °C 85 % 1021,7 hPa 0,0 mm 0,0 km/h (0 Bft) O 90 ° 0 min 0,000 mm 0,0 UV-I 0 W/m² 8,2 °C 10,6 °C 0,0 km/h (0 Bft)
25.10.2019 18:47 10,6 °C 86 % 1021,6 hPa 0,0 mm 0,0 km/h (0 Bft) O 90 ° 0 min 0,000 mm 0,0 UV-I 0 W/m² 8,4 °C 10,6 °C 0,0 km/h (0 Bft)
25.10.2019 18:48 10,6 °C 85 % 1021,7 hPa 0,0 mm 0,0 km/h (0 Bft) O 90 ° 0 min 0,000 mm 0,0 UV-I 0 W/m² 8,2 °C 10,6 °C 0,0 km/h (0 Bft)
25.10.2019 18:49 10,6 °C 85 % 1021,7 hPa 0,0 mm 0,0 km/h (0 Bft) O 90 ° 0 min 0,000 mm 0,0 UV-I 0 W/m² 8,2 °C 10,6 °C 0,0 km/h (0 Bft)
25.10.2019 18:50 10,5 °C 86 % 1021,7 hPa 0,0 mm 0,0 km/h (0 Bft) O 90 ° 0 min 0,000 mm 0,0 UV-I 0 W/m² 8,3 °C 10,5 °C 0,0 km/h (0 Bft)
25.10.2019 18:51 10,4 °C 86 % 1021,6 hPa 0,0 mm 0,0 km/h (0 Bft) O 90 ° 0 min 0,000 mm 0,0 UV-I 0 W/m² 8,2 °C 10,4 °C 0,0 km/h (0 Bft)
25.10.2019 18:52 10,4 °C 86 % 1021,7 hPa 0,0 mm 0,0 km/h (0 Bft) O 90 ° 0 min 0,000 mm 0,0 UV-I 0 W/m² 8,2 °C 10,4 °C 0,0 km/h (0 Bft)
25.10.2019 18:53 10,4 °C 86 % 1021,7 hPa 0,0 mm 0,0 km/h (0 Bft) O 90 ° 0 min 0,000 mm 0,0 UV-I 0 W/m² 8,2 °C 10,4 °C 0,0 km/h (0 Bft)
25.10.2019 18:54 10,3 °C 86 % 1021,7 hPa 0,0 mm 0,0 km/h (0 Bft) O 90 ° 0 min 0,000 mm 0,0 UV-I 0 W/m² 8,1 °C 10,3 °C 0,0 km/h (0 Bft)
25.10.2019 18:55 10,3 °C 86 % 1021,7 hPa 0,0 mm 0,0 km/h (0 Bft) O 90 ° 0 min 0,000 mm 0,0 UV-I 0 W/m² 8,1 °C 10,3 °C 0,0 km/h (0 Bft)
25.10.2019 18:56 10,3 °C 86 % 1021,7 hPa 0,0 mm 0,0 km/h (0 Bft) O 90 ° 0 min 0,000 mm 0,0 UV-I 0 W/m² 8,1 °C 10,3 °C 0,0 km/h (0 Bft)
25.10.2019 18:57 10,3 °C 86 % 1021,7 hPa 0,0 mm 0,0 km/h (0 Bft) O 90 ° 0 min 0,000 mm 0,0 UV-I 0 W/m² 8,1 °C 10,3 °C 0,0 km/h (0 Bft)
25.10.2019 18:58 10,2 °C 87 % 1021,7 hPa 0,0 mm 0,0 km/h (0 Bft) O 90 ° 0 min 0,000 mm 0,0 UV-I 0 W/m² 8,1 °C 10,2 °C 0,0 km/h (0 Bft)
25.10.2019 18:59 10,2 °C 87 % 1021,7 hPa 0,0 mm 0,0 km/h (0 Bft) O 90 ° 0 min 0,000 mm 0,0 UV-I 0 W/m² 8,1 °C 10,2 °C 0,0 km/h (0 Bft)
25.10.2019 19:00 10,2 °C 87 % 1021,7 hPa 0,0 mm 0,0 km/h (0 Bft) O 90 ° 0 min 0,000 mm 0,0 UV-I 0 W/m² 8,1 °C 10,2 °C 0,0 km/h (0 Bft)
25.10.2019 19:01 10,2 °C 87 % 1021,8 hPa 0,0 mm 0,0 km/h (0 Bft) O 90 ° 0 min 0,000 mm 0,0 UV-I 0 W/m² 8,1 °C 10,2 °C 0,0 km/h (0 Bft)
25.10.2019 19:02 10,2 °C 87 % 1021,8 hPa 0,0 mm 0,0 km/h (0 Bft) O 90 ° 0 min 0,000 mm 0,0 UV-I 0 W/m² 8,1 °C 10,2 °C 0,0 km/h (0 Bft)
25.10.2019 19:03 10,2 °C 87 % 1021,8 hPa 0,0 mm 0,0 km/h (0 Bft) O 90 ° 0 min 0,000 mm 0,0 UV-I 0 W/m² 8,1 °C 10,2 °C 0,0 km/h (0 Bft)
25.10.2019 19:04 10,1 °C 87 % 1021,8 hPa 0,0 mm 0,0 km/h (0 Bft) O 90 ° 0 min 0,000 mm 0,0 UV-I 0 W/m² 8,0 °C 10,1 °C 0,0 km/h (0 Bft)
25.10.2019 19:05 10,1 °C 87 % 1021,8 hPa 0,0 mm 0,0 km/h (0 Bft) O 90 ° 0 min 0,000 mm 0,0 UV-I 0 W/m² 8,0 °C 10,1 °C 0,0 km/h (0 Bft)
25.10.2019 19:06 10,1 °C 87 % 1021,8 hPa 0,0 mm 0,0 km/h (0 Bft) O 90 ° 0 min 0,000 mm 0,0 UV-I 0 W/m² 8,0 °C 10,1 °C 0,0 km/h (0 Bft)
25.10.2019 19:07 10,1 °C 87 % 1021,8 hPa 0,0 mm 0,0 km/h (0 Bft) O 90 ° 0 min 0,000 mm 0,0 UV-I 0 W/m² 8,0 °C 10,1 °C 0,0 km/h (0 Bft)
25.10.2019 19:08 9,9 °C 87 % 1021,8 hPa 0,0 mm 0,0 km/h (0 Bft) O 90 ° 0 min 0,000 mm 0,0 UV-I 0 W/m² 7,8 °C 9,9 °C 0,0 km/h (0 Bft)
25.10.2019 19:09 10,0 °C 86 % 1021,8 hPa 0,0 mm 0,0 km/h (0 Bft) O 90 ° 0 min 0,000 mm 0,0 UV-I 0 W/m² 7,8 °C 10,0 °C 0,0 km/h (0 Bft)
25.10.2019 19:10 9,9 °C 87 % 1021,9 hPa 0,0 mm 0,0 km/h (0 Bft) O 90 ° 0 min 0,000 mm 0,0 UV-I 0 W/m² 7,8 °C 9,9 °C 0,0 km/h (0 Bft)
25.10.2019 19:11 9,9 °C 87 % 1021,8 hPa 0,0 mm 0,0 km/h (0 Bft) O 90 ° 0 min 0,000 mm 0,0 UV-I 0 W/m² 7,8 °C 9,9 °C 0,0 km/h (0 Bft)
25.10.2019 19:12 9,9 °C 87 % 1021,9 hPa 0,0 mm 0,0 km/h (0 Bft) O 90 ° 0 min 0,000 mm 0,0 UV-I 0 W/m² 7,8 °C 9,9 °C 0,0 km/h (0 Bft)
25.10.2019 19:13 9,8 °C 86 % 1021,8 hPa 0,0 mm 0,0 km/h (0 Bft) O 90 ° 0 min 0,000 mm 0,0 UV-I 0 W/m² 7,6 °C 9,8 °C 0,0 km/h (0 Bft)
25.10.2019 19:14 9,8 °C 87 % 1021,9 hPa 0,0 mm 0,0 km/h (0 Bft) O 90 ° 0 min 0,000 mm 0,0 UV-I 0 W/m² 7,7 °C 9,8 °C 0,0 km/h (0 Bft)
25.10.2019 19:15 9,8 °C 87 % 1021,9 hPa 0,0 mm 0,0 km/h (0 Bft) O 90 ° 0 min 0,000 mm 0,0 UV-I 0 W/m² 7,7 °C 9,8 °C 0,0 km/h (0 Bft)
25.10.2019 19:16 9,8 °C 87 % 1021,8 hPa 0,0 mm 0,0 km/h (0 Bft) O 90 ° 0 min 0,000 mm 0,0 UV-I 0 W/m² 7,7 °C 9,8 °C 0,0 km/h (0 Bft)
25.10.2019 19:17 9,8 °C 87 % 1021,8 hPa 0,0 mm 0,0 km/h (0 Bft) O 90 ° 0 min 0,000 mm 0,0 UV-I 0 W/m² 7,7 °C 9,8 °C 0,0 km/h (0 Bft)
25.10.2019 19:18 9,7 °C 87 % 1021,9 hPa 0,0 mm 0,0 km/h (0 Bft) O 90 ° 0 min 0,000 mm 0,0 UV-I 0 W/m² 7,6 °C 9,7 °C 0,0 km/h (0 Bft)
25.10.2019 19:19 9,7 °C 87 % 1021,9 hPa 0,0 mm 0,0 km/h (0 Bft) O 90 ° 0 min 0,000 mm 0,0 UV-I 0 W/m² 7,6 °C 9,7 °C 0,0 km/h (0 Bft)
25.10.2019 19:20 9,7 °C 87 % 1021,8 hPa 0,0 mm 0,0 km/h (0 Bft) O 90 ° 0 min 0,000 mm 0,0 UV-I 0 W/m² 7,6 °C 9,7 °C 0,0 km/h (0 Bft)
25.10.2019 19:21 9,7 °C 87 % 1021,8 hPa 0,0 mm 0,0 km/h (0 Bft) O 90 ° 0 min 0,000 mm 0,0 UV-I 0 W/m² 7,6 °C 9,7 °C 0,0 km/h (0 Bft)
25.10.2019 19:22 9,6 °C 87 % 1021,9 hPa 0,0 mm 0,0 km/h (0 Bft) O 90 ° 0 min 0,000 mm 0,0 UV-I 0 W/m² 7,5 °C 9,6 °C 0,0 km/h (0 Bft)
25.10.2019 19:23 9,6 °C 87 % 1021,8 hPa 0,0 mm 0,0 km/h (0 Bft) O 90 ° 0 min 0,000 mm 0,0 UV-I 0 W/m² 7,5 °C 9,6 °C 0,0 km/h (0 Bft)
25.10.2019 19:24 9,6 °C 87 % 1021,8 hPa 0,0 mm 0,0 km/h (0 Bft) O 90 ° 0 min 0,000 mm 0,0 UV-I 0 W/m² 7,5 °C 9,6 °C 0,0 km/h (0 Bft)
25.10.2019 19:25 9,6 °C 88 % 1021,8 hPa 0,0 mm 0,0 km/h (0 Bft) O 90 ° 0 min 0,000 mm 0,0 UV-I 0 W/m² 7,7 °C 9,6 °C 0,0 km/h (0 Bft)
25.10.2019 19:26 9,5 °C 88 % 1021,8 hPa 0,0 mm 0,0 km/h (0 Bft) O 90 ° 0 min 0,000 mm 0,0 UV-I 0 W/m² 7,6 °C 9,5 °C 0,0 km/h (0 Bft)
25.10.2019 19:27 9,4 °C 88 % 1021,8 hPa 0,0 mm 0,0 km/h (0 Bft) O 90 ° 0 min 0,000 mm 0,0 UV-I 0 W/m² 7,5 °C 9,4 °C 0,0 km/h (0 Bft)
25.10.2019 19:28 9,4 °C 88 % 1021,8 hPa 0,0 mm 0,0 km/h (0 Bft) O 90 ° 0 min 0,000 mm 0,0 UV-I 0 W/m² 7,5 °C 9,4 °C 0,0 km/h (0 Bft)
25.10.2019 19:29 9,4 °C 88 % 1021,8 hPa 0,0 mm 0,0 km/h (0 Bft) O 90 ° 0 min 0,000 mm 0,0 UV-I 0 W/m² 7,5 °C 9,4 °C 0,0 km/h (0 Bft)
25.10.2019 19:30 9,4 °C 88 % 1021,8 hPa 0,0 mm 0,0 km/h (0 Bft) O 90 ° 0 min 0,000 mm 0,0 UV-I 0 W/m² 7,5 °C 9,4 °C 0,0 km/h (0 Bft)
25.10.2019 19:31 9,4 °C 88 % 1021,8 hPa 0,0 mm 0,0 km/h (0 Bft) O 90 ° 0 min 0,000 mm 0,0 UV-I 0 W/m² 7,5 °C 9,4 °C 0,0 km/h (0 Bft)
25.10.2019 19:32 9,3 °C 88 % 1021,8 hPa 0,0 mm 0,0 km/h (0 Bft) O 90 ° 0 min 0,000 mm 0,0 UV-I 0 W/m² 7,4 °C 9,3 °C 0,0 km/h (0 Bft)
25.10.2019 19:33 9,3 °C 88 % 1021,8 hPa 0,0 mm 0,0 km/h (0 Bft) O 90 ° 0 min 0,000 mm 0,0 UV-I 0 W/m² 7,4 °C 9,3 °C 0,0 km/h (0 Bft)
25.10.2019 19:34 9,3 °C 88 % 1021,8 hPa 0,0 mm 0,0 km/h (0 Bft) O 90 ° 0 min 0,000 mm 0,0 UV-I 0 W/m² 7,4 °C 9,3 °C 0,0 km/h (0 Bft)
25.10.2019 19:35 9,3 °C 88 % 1021,8 hPa 0,0 mm 0,0 km/h (0 Bft) O 90 ° 0 min 0,000 mm 0,0 UV-I 0 W/m² 7,4 °C 9,3 °C 0,0 km/h (0 Bft)
25.10.2019 19:36 9,3 °C 88 % 1021,8 hPa 0,0 mm 0,0 km/h (0 Bft) O 90 ° 0 min 0,000 mm 0,0 UV-I 0 W/m² 7,4 °C 9,3 °C 0,0 km/h (0 Bft)
25.10.2019 19:37 9,2 °C 88 % 1021,8 hPa 0,0 mm 0,0 km/h (0 Bft) O 90 ° 0 min 0,000 mm 0,0 UV-I 0 W/m² 7,3 °C 9,2 °C 0,0 km/h (0 Bft)
25.10.2019 19:38 9,2 °C 88 % 1021,7 hPa 0,0 mm 0,0 km/h (0 Bft) O 90 ° 0 min 0,000 mm 0,0 UV-I 0 W/m² 7,3 °C 9,2 °C 0,0 km/h (0 Bft)
25.10.2019 19:39 9,2 °C 88 % 1021,7 hPa 0,0 mm 0,0 km/h (0 Bft) O 90 ° 0 min 0,000 mm 0,0 UV-I 0 W/m² 7,3 °C 9,2 °C 0,0 km/h (0 Bft)
25.10.2019 19:40 9,2 °C 88 % 1021,8 hPa 0,0 mm 0,0 km/h (0 Bft) O 90 ° 0 min 0,000 mm 0,0 UV-I 0 W/m² 7,3 °C 9,2 °C 0,0 km/h (0 Bft)
25.10.2019 19:41 9,2 °C 88 % 1021,7 hPa 0,0 mm 0,0 km/h (0 Bft) O 90 ° 0 min 0,000 mm 0,0 UV-I 0 W/m² 7,3 °C 9,2 °C 0,0 km/h (0 Bft)
25.10.2019 19:42 9,2 °C 88 % 1021,7 hPa 0,0 mm 0,0 km/h (0 Bft) O 90 ° 0 min 0,000 mm 0,0 UV-I 0 W/m² 7,3 °C 9,2 °C 0,0 km/h (0 Bft)
25.10.2019 19:43 9,1 °C 88 % 1021,8 hPa 0,0 mm 0,0 km/h (0 Bft) O 90 ° 0 min 0,000 mm 0,0 UV-I 0 W/m² 7,2 °C 9,1 °C 0,0 km/h (0 Bft)
25.10.2019 19:44 9,1 °C 88 % 1021,7 hPa 0,0 mm 0,0 km/h (0 Bft) O 90 ° 0 min 0,000 mm 0,0 UV-I 0 W/m² 7,2 °C 9,1 °C 0,0 km/h (0 Bft)
25.10.2019 19:45 9,1 °C 88 % 1021,7 hPa 0,0 mm 0,0 km/h (0 Bft) O 90 ° 0 min 0,000 mm 0,0 UV-I 0 W/m² 7,2 °C 9,1 °C 0,0 km/h (0 Bft)
25.10.2019 19:46 9,1 °C 88 % 1021,7 hPa 0,0 mm 0,0 km/h (0 Bft) O 90 ° 0 min 0,000 mm 0,0 UV-I 0 W/m² 7,2 °C 9,1 °C 0,0 km/h (0 Bft)
25.10.2019 19:47 9,1 °C 88 % 1021,7 hPa 0,0 mm 0,0 km/h (0 Bft) O 90 ° 0 min 0,000 mm 0,0 UV-I 0 W/m² 7,2 °C 9,1 °C 0,0 km/h (0 Bft)
25.10.2019 19:48 9,0 °C 88 % 1021,8 hPa 0,0 mm 0,0 km/h (0 Bft) O 90 ° 0 min 0,000 mm 0,0 UV-I 0 W/m² 7,1 °C 9,0 °C 0,0 km/h (0 Bft)
25.10.2019 19:49 9,0 °C 88 % 1021,8 hPa 0,0 mm 0,0 km/h (0 Bft) O 90 ° 0 min 0,000 mm 0,0 UV-I 0 W/m² 7,1 °C 9,0 °C 0,0 km/h (0 Bft)
25.10.2019 19:50 9,0 °C 88 % 1021,8 hPa 0,0 mm 0,0 km/h (0 Bft) O 90 ° 0 min 0,000 mm 0,0 UV-I 0 W/m² 7,1 °C 9,0 °C 0,0 km/h (0 Bft)
25.10.2019 19:51 9,0 °C 88 % 1021,8 hPa 0,0 mm 0,0 km/h (0 Bft) O 90 ° 0 min 0,000 mm 0,0 UV-I 0 W/m² 7,1 °C 9,0 °C 0,0 km/h (0 Bft)
25.10.2019 19:52 8,9 °C 88 % 1021,7 hPa 0,0 mm 0,0 km/h (0 Bft) O 90 ° 0 min 0,000 mm 0,0 UV-I 0 W/m² 7,0 °C 8,9 °C 0,0 km/h (0 Bft)
25.10.2019 19:53 8,9 °C 88 % 1021,8 hPa 0,0 mm 0,0 km/h (0 Bft) O 90 ° 0 min 0,000 mm 0,0 UV-I 0 W/m² 7,0 °C 8,9 °C 0,0 km/h (0 Bft)
25.10.2019 19:54 8,9 °C 88 % 1021,8 hPa 0,0 mm 0,0 km/h (0 Bft) O 90 ° 0 min 0,000 mm 0,0 UV-I 0 W/m² 7,0 °C 8,9 °C 0,0 km/h (0 Bft)
25.10.2019 19:55 8,9 °C 88 % 1021,8 hPa 0,0 mm 0,0 km/h (0 Bft) O 90 ° 0 min 0,000 mm 0,0 UV-I 0 W/m² 7,0 °C 8,9 °C 0,0 km/h (0 Bft)
25.10.2019 19:56 8,9 °C 88 % 1021,8 hPa 0,0 mm 0,0 km/h (0 Bft) O 90 ° 0 min 0,000 mm 0,0 UV-I 0 W/m² 7,0 °C 8,9 °C 0,0 km/h (0 Bft)
25.10.2019 19:57 8,9 °C 88 % 1021,7 hPa 0,0 mm 0,0 km/h (0 Bft) O 90 ° 0 min 0,000 mm 0,0 UV-I 0 W/m² 7,0 °C 8,9 °C 0,0 km/h (0 Bft)
25.10.2019 19:58 8,8 °C 88 % 1021,8 hPa 0,0 mm 0,0 km/h (0 Bft) O 90 ° 0 min 0,000 mm 0,0 UV-I 0 W/m² 6,9 °C 8,8 °C 0,0 km/h (0 Bft)
25.10.2019 19:59 8,8 °C 88 % 1021,8 hPa 0,0 mm 0,0 km/h (0 Bft) O 90 ° 0 min 0,000 mm 0,0 UV-I 0 W/m² 6,9 °C 8,8 °C 0,0 km/h (0 Bft)
25.10.2019 20:00 8,8 °C 88 % 1021,8 hPa 0,0 mm 0,0 km/h (0 Bft) O 90 ° 0 min 0,000 mm 0,0 UV-I 0 W/m² 6,9 °C 8,8 °C 0,0 km/h (0 Bft)
25.10.2019 20:01 8,8 °C 88 % 1021,7 hPa 0,0 mm 0,0 km/h (0 Bft) O 90 ° 0 min 0,000 mm 0,0 UV-I 0 W/m² 6,9 °C 8,8 °C 0,0 km/h (0 Bft)
25.10.2019 20:02 8,8 °C 88 % 1021,7 hPa 0,0 mm 0,0 km/h (0 Bft) O 90 ° 0 min 0,000 mm 0,0 UV-I 0 W/m² 6,9 °C 8,8 °C 0,0 km/h (0 Bft)
25.10.2019 20:03 8,7 °C 88 % 1021,7 hPa 0,0 mm 0,0 km/h (0 Bft) O 90 ° 0 min 0,000 mm 0,0 UV-I 0 W/m² 6,8 °C 8,7 °C 0,0 km/h (0 Bft)
25.10.2019 20:04 8,7 °C 88 % 1021,7 hPa 0,0 mm 0,0 km/h (0 Bft) O 90 ° 0 min 0,000 mm 0,0 UV-I 0 W/m² 6,8 °C 8,7 °C 0,0 km/h (0 Bft)
25.10.2019 20:05 8,7 °C 88 % 1021,7 hPa 0,0 mm 0,0 km/h (0 Bft) O 90 ° 0 min 0,000 mm 0,0 UV-I 0 W/m² 6,8 °C 8,7 °C 0,0 km/h (0 Bft)
25.10.2019 20:06 8,7 °C 88 % 1021,7 hPa 0,0 mm 0,0 km/h (0 Bft) O 90 ° 0 min 0,000 mm 0,0 UV-I 0 W/m² 6,8 °C 8,7 °C 0,0 km/h (0 Bft)
25.10.2019 20:07 8,7 °C 88 % 1021,7 hPa 0,0 mm 0,0 km/h (0 Bft) O 90 ° 0 min 0,000 mm 0,0 UV-I 0 W/m² 6,8 °C 8,7 °C 0,0 km/h (0 Bft)
25.10.2019 20:08 8,6 °C 88 % 1021,7 hPa 0,0 mm 0,0 km/h (0 Bft) O 90 ° 0 min 0,000 mm 0,0 UV-I 0 W/m² 6,7 °C 8,6 °C 0,0 km/h (0 Bft)
25.10.2019 20:09 8,6 °C 89 % 1021,7 hPa 0,0 mm 0,0 km/h (0 Bft) O 90 ° 0 min 0,000 mm 0,0 UV-I 0 W/m² 6,9 °C 8,6 °C 0,0 km/h (0 Bft)
25.10.2019 20:10 8,6 °C 89 % 1021,7 hPa 0,0 mm 0,0 km/h (0 Bft) O 90 ° 0 min 0,000 mm 0,0 UV-I 0 W/m² 6,9 °C 8,6 °C 0,0 km/h (0 Bft)
25.10.2019 20:11 8,6 °C 89 % 1021,8 hPa 0,0 mm 0,0 km/h (0 Bft) O 90 ° 0 min 0,000 mm 0,0 UV-I 0 W/m² 6,9 °C 8,6 °C 0,0 km/h (0 Bft)
25.10.2019 20:12 8,6 °C 89 % 1021,7 hPa 0,0 mm 0,0 km/h (0 Bft) O 90 ° 0 min 0,000 mm 0,0 UV-I 0 W/m² 6,9 °C 8,6 °C 0,0 km/h (0 Bft)
25.10.2019 20:13 8,6 °C 89 % 1021,7 hPa 0,0 mm 0,0 km/h (0 Bft) O 90 ° 0 min 0,000 mm 0,0 UV-I 0 W/m² 6,9 °C 8,6 °C 0,0 km/h (0 Bft)
25.10.2019 20:14 8,6 °C 89 % 1021,7 hPa 0,0 mm 0,0 km/h (0 Bft) O 90 ° 0 min 0,000 mm 0,0 UV-I 0 W/m² 6,9 °C 8,6 °C 0,0 km/h (0 Bft)
25.10.2019 20:15 8,6 °C 90 % 1021,8 hPa 0,0 mm 0,0 km/h (0 Bft) O 90 ° 0 min 0,000 mm 0,0 UV-I 0 W/m² 7,1 °C 8,6 °C 0,0 km/h (0 Bft)
25.10.2019 20:16 8,5 °C 89 % 1021,8 hPa 0,0 mm 0,0 km/h (0 Bft) O 90 ° 0 min 0,000 mm 0,0 UV-I 0 W/m² 6,8 °C 8,5 °C 0,0 km/h (0 Bft)
25.10.2019 20:17 8,5 °C 89 % 1021,8 hPa 0,0 mm 0,0 km/h (0 Bft) O 90 ° 0 min 0,000 mm 0,0 UV-I 0 W/m² 6,8 °C 8,5 °C 0,0 km/h (0 Bft)
25.10.2019 20:18 8,4 °C 89 % 1021,8 hPa 0,0 mm 0,0 km/h (0 Bft) O 90 ° 0 min 0,000 mm 0,0 UV-I 0 W/m² 6,7 °C 8,4 °C 0,0 km/h (0 Bft)
25.10.2019 20:19 8,4 °C 89 % 1021,8 hPa 0,0 mm 0,0 km/h (0 Bft) O 90 ° 0 min 0,000 mm 0,0 UV-I 0 W/m² 6,7 °C 8,4 °C 0,0 km/h (0 Bft)
25.10.2019 20:20 8,4 °C 89 % 1021,8 hPa 0,0 mm 0,0 km/h (0 Bft) O 90 ° 0 min 0,000 mm 0,0 UV-I 0 W/m² 6,7 °C 8,4 °C 0,0 km/h (0 Bft)
25.10.2019 20:21 8,4 °C 89 % 1021,8 hPa 0,0 mm 0,0 km/h (0 Bft) O 90 ° 0 min 0,000 mm 0,0 UV-I 0 W/m² 6,7 °C 8,4 °C 0,0 km/h (0 Bft)
25.10.2019 20:22 8,4 °C 89 % 1021,8 hPa 0,0 mm 0,0 km/h (0 Bft) O 90 ° 0 min 0,000 mm 0,0 UV-I 0 W/m² 6,7 °C 8,4 °C 0,0 km/h (0 Bft)
25.10.2019 20:23 8,4 °C 89 % 1021,8 hPa 0,0 mm 0,0 km/h (0 Bft) O 90 ° 0 min 0,000 mm 0,0 UV-I 0 W/m² 6,7 °C 8,4 °C 0,0 km/h (0 Bft)
25.10.2019 20:24 8,3 °C 89 % 1021,8 hPa 0,0 mm 0,0 km/h (0 Bft) O 90 ° 0 min 0,000 mm 0,0 UV-I 0 W/m² 6,6 °C 8,3 °C 0,0 km/h (0 Bft)
25.10.2019 20:25 8,3 °C 90 % 1021,8 hPa 0,0 mm 0,0 km/h (0 Bft) O 90 ° 0 min 0,000 mm 0,0 UV-I 0 W/m² 6,8 °C 8,3 °C 0,0 km/h (0 Bft)
25.10.2019 20:26 8,3 °C 90 % 1021,8 hPa 0,0 mm 0,0 km/h (0 Bft) O 90 ° 0 min 0,000 mm 0,0 UV-I 0 W/m² 6,8 °C 8,3 °C 0,0 km/h (0 Bft)
25.10.2019 20:27 8,3 °C 90 % 1021,8 hPa 0,0 mm 0,0 km/h (0 Bft) O 90 ° 0 min 0,000 mm 0,0 UV-I 0 W/m² 6,8 °C 8,3 °C 0,0 km/h (0 Bft)
25.10.2019 20:28 8,3 °C 90 % 1021,8 hPa 0,0 mm 0,0 km/h (0 Bft) O 90 ° 0 min 0,000 mm 0,0 UV-I 0 W/m² 6,8 °C 8,3 °C 0,0 km/h (0 Bft)
25.10.2019 20:29 8,2 °C 90 % 1021,8 hPa 0,0 mm 0,0 km/h (0 Bft) O 90 ° 0 min 0,000 mm 0,0 UV-I 0 W/m² 6,7 °C 8,2 °C 0,0 km/h (0 Bft)
25.10.2019 20:30 8,2 °C 90 % 1021,8 hPa 0,0 mm 0,0 km/h (0 Bft) O 90 ° 0 min 0,000 mm 0,0 UV-I 0 W/m² 6,7 °C 8,2 °C 0,0 km/h (0 Bft)
25.10.2019 20:31 8,2 °C 90 % 1021,9 hPa 0,0 mm 0,0 km/h (0 Bft) O 90 ° 0 min 0,000 mm 0,0 UV-I 0 W/m² 6,7 °C 8,2 °C 0,0 km/h (0 Bft)
25.10.2019 20:32 8,2 °C 90 % 1021,9 hPa 0,0 mm 0,0 km/h (0 Bft) O 90 ° 0 min 0,000 mm 0,0 UV-I 0 W/m² 6,7 °C 8,2 °C 0,0 km/h (0 Bft)
25.10.2019 20:33 8,1 °C 89 % 1021,8 hPa 0,0 mm 0,0 km/h (0 Bft) O 90 ° 0 min 0,000 mm 0,0 UV-I 0 W/m² 6,4 °C 8,1 °C 0,0 km/h (0 Bft)
25.10.2019 20:34 8,2 °C 89 % 1021,9 hPa 0,0 mm 0,0 km/h (0 Bft) O 90 ° 0 min 0,000 mm 0,0 UV-I 0 W/m² 6,5 °C 8,2 °C 0,0 km/h (0 Bft)
25.10.2019 20:35 8,1 °C 89 % 1021,8 hPa 0,0 mm 0,0 km/h (0 Bft) O 90 ° 0 min 0,000 mm 0,0 UV-I 0 W/m² 6,4 °C 8,1 °C 0,0 km/h (0 Bft)
25.10.2019 20:36 8,1 °C 89 % 1021,9 hPa 0,0 mm 0,0 km/h (0 Bft) O 90 ° 0 min 0,000 mm 0,0 UV-I 0 W/m² 6,4 °C 8,1 °C 0,0 km/h (0 Bft)
25.10.2019 20:37 8,1 °C 90 % 1021,8 hPa 0,0 mm 0,0 km/h (0 Bft) O 90 ° 0 min 0,000 mm 0,0 UV-I 0 W/m² 6,6 °C 8,1 °C 0,0 km/h (0 Bft)
25.10.2019 20:38 8,1 °C 90 % 1021,9 hPa 0,0 mm 0,0 km/h (0 Bft) O 90 ° 0 min 0,000 mm 0,0 UV-I 0 W/m² 6,6 °C 8,1 °C 0,0 km/h (0 Bft)
25.10.2019 20:39 8,0 °C 90 % 1021,8 hPa 0,0 mm 0,0 km/h (0 Bft) O 90 ° 0 min 0,000 mm 0,0 UV-I 0 W/m² 6,5 °C 8,0 °C 0,0 km/h (0 Bft)
25.10.2019 20:40 8,0 °C 90 % 1021,8 hPa 0,0 mm 0,0 km/h (0 Bft) O 90 ° 0 min 0,000 mm 0,0 UV-I 0 W/m² 6,5 °C 8,0 °C 0,0 km/h (0 Bft)
25.10.2019 20:41 8,0 °C 90 % 1021,8 hPa 0,0 mm 0,0 km/h (0 Bft) O 90 ° 0 min 0,000 mm 0,0 UV-I 0 W/m² 6,5 °C 8,0 °C 0,0 km/h (0 Bft)
25.10.2019 20:42 7,9 °C 90 % 1021,9 hPa 0,0 mm 0,0 km/h (0 Bft) O 90 ° 0 min 0,000 mm 0,0 UV-I 0 W/m² 6,4 °C 7,9 °C 0,0 km/h (0 Bft)
25.10.2019 20:43 7,9 °C 90 % 1021,8 hPa 0,0 mm 0,0 km/h (0 Bft) O 90 ° 0 min 0,000 mm 0,0 UV-I 0 W/m² 6,4 °C 7,9 °C 0,0 km/h (0 Bft)
25.10.2019 20:44 7,9 °C 90 % 1021,9 hPa 0,0 mm 0,0 km/h (0 Bft) O 90 ° 0 min 0,000 mm 0,0 UV-I 0 W/m² 6,4 °C 7,9 °C 0,0 km/h (0 Bft)
25.10.2019 20:45 7,9 °C 90 % 1021,9 hPa 0,0 mm 0,0 km/h (0 Bft) O 90 ° 0 min 0,000 mm 0,0 UV-I 0 W/m² 6,4 °C 7,9 °C 0,0 km/h (0 Bft)
25.10.2019 20:46 7,9 °C 90 % 1021,9 hPa 0,0 mm 0,0 km/h (0 Bft) O 90 ° 0 min 0,000 mm 0,0 UV-I 0 W/m² 6,4 °C 7,9 °C 0,0 km/h (0 Bft)
25.10.2019 20:47 7,9 °C 90 % 1021,9 hPa 0,0 mm 0,0 km/h (0 Bft) O 90 ° 0 min 0,000 mm 0,0 UV-I 0 W/m² 6,4 °C 7,9 °C 0,0 km/h (0 Bft)
25.10.2019 20:48 7,8 °C 90 % 1021,9 hPa 0,0 mm 0,0 km/h (0 Bft) O 90 ° 0 min 0,000 mm 0,0 UV-I 0 W/m² 6,3 °C 7,8 °C 0,0 km/h (0 Bft)
25.10.2019 20:49 7,8 °C 90 % 1021,9 hPa 0,0 mm 0,0 km/h (0 Bft) O 90 ° 0 min 0,000 mm 0,0 UV-I 0 W/m² 6,3 °C 7,8 °C 0,0 km/h (0 Bft)
25.10.2019 20:50 7,8 °C 90 % 1021,9 hPa 0,0 mm 0,0 km/h (0 Bft) O 90 ° 0 min 0,000 mm 0,0 UV-I 0 W/m² 6,3 °C 7,8 °C 0,0 km/h (0 Bft)
25.10.2019 20:51 7,8 °C 90 % 1021,9 hPa 0,0 mm 0,0 km/h (0 Bft) O 90 ° 0 min 0,000 mm 0,0 UV-I 0 W/m² 6,3 °C 7,8 °C 0,0 km/h (0 Bft)
25.10.2019 20:52 7,8 °C 90 % 1021,9 hPa 0,0 mm 0,0 km/h (0 Bft) O 90 ° 0 min 0,000 mm 0,0 UV-I 0 W/m² 6,3 °C 7,8 °C 0,0 km/h (0 Bft)
25.10.2019 20:53 7,8 °C 90 % 1021,9 hPa 0,0 mm 0,0 km/h (0 Bft) O 90 ° 0 min 0,000 mm 0,0 UV-I 0 W/m² 6,3 °C 7,8 °C 0,0 km/h (0 Bft)
25.10.2019 20:54 7,8 °C 90 % 1021,9 hPa 0,0 mm 0,0 km/h (0 Bft) O 90 ° 0 min 0,000 mm 0,0 UV-I 0 W/m² 6,3 °C 7,8 °C 0,0 km/h (0 Bft)
25.10.2019 20:55 7,8 °C 90 % 1021,9 hPa 0,0 mm 0,0 km/h (0 Bft) O 90 ° 0 min 0,000 mm 0,0 UV-I 0 W/m² 6,3 °C 7,8 °C 0,0 km/h (0 Bft)
25.10.2019 20:56 7,7 °C 90 % 1021,8 hPa 0,0 mm 0,0 km/h (0 Bft) O 90 ° 0 min 0,000 mm 0,0 UV-I 0 W/m² 6,2 °C 7,7 °C 0,0 km/h (0 Bft)
25.10.2019 20:57 7,7 °C 90 % 1021,8 hPa 0,0 mm 0,0 km/h (0 Bft) O 90 ° 0 min 0,000 mm 0,0 UV-I 0 W/m² 6,2 °C 7,7 °C 0,0 km/h (0 Bft)
25.10.2019 20:58 7,7 °C 90 % 1021,8 hPa 0,0 mm 0,0 km/h (0 Bft) O 90 ° 0 min 0,000 mm 0,0 UV-I 0 W/m² 6,2 °C 7,7 °C 0,0 km/h (0 Bft)
25.10.2019 20:59 7,7 °C 90 % 1021,8 hPa 0,0 mm 0,0 km/h (0 Bft) O 90 ° 0 min 0,000 mm 0,0 UV-I 0 W/m² 6,2 °C 7,7 °C 0,0 km/h (0 Bft)
25.10.2019 21:00 7,7 °C 90 % 1021,8 hPa 0,0 mm 0,0 km/h (0 Bft) O 90 ° 0 min 0,000 mm 0,0 UV-I 0 W/m² 6,2 °C 7,7 °C 0,0 km/h (0 Bft)
25.10.2019 21:01 7,7 °C 90 % 1021,8 hPa 0,0 mm 0,0 km/h (0 Bft) O 90 ° 0 min 0,000 mm 0,0 UV-I 0 W/m² 6,2 °C 7,7 °C 0,0 km/h (0 Bft)
25.10.2019 21:02 7,6 °C 90 % 1021,8 hPa 0,0 mm 0,0 km/h (0 Bft) O 90 ° 0 min 0,000 mm 0,0 UV-I 0 W/m² 6,1 °C 7,6 °C 0,0 km/h (0 Bft)
25.10.2019 21:03 7,6 °C 90 % 1021,8 hPa 0,0 mm 0,0 km/h (0 Bft) O 90 ° 0 min 0,000 mm 0,0 UV-I 0 W/m² 6,1 °C 7,6 °C 0,0 km/h (0 Bft)
25.10.2019 21:04 7,6 °C 90 % 1021,8 hPa 0,0 mm 0,0 km/h (0 Bft) O 90 ° 0 min 0,000 mm 0,0 UV-I 0 W/m² 6,1 °C 7,6 °C 0,0 km/h (0 Bft)
25.10.2019 21:05 7,6 °C 90 % 1021,8 hPa 0,0 mm 0,0 km/h (0 Bft) O 90 ° 0 min 0,000 mm 0,0 UV-I 0 W/m² 6,1 °C 7,6 °C 0,0 km/h (0 Bft)
25.10.2019 21:06 7,6 °C 90 % 1021,8 hPa 0,0 mm 0,0 km/h (0 Bft) O 90 ° 0 min 0,000 mm 0,0 UV-I 0 W/m² 6,1 °C 7,6 °C 0,0 km/h (0 Bft)
25.10.2019 21:07 7,6 °C 90 % 1021,8 hPa 0,0 mm 0,0 km/h (0 Bft) O 90 ° 0 min 0,000 mm 0,0 UV-I 0 W/m² 6,1 °C 7,6 °C 0,0 km/h (0 Bft)
25.10.2019 21:08 7,6 °C 90 % 1021,9 hPa 0,0 mm 0,0 km/h (0 Bft) O 90 ° 0 min 0,000 mm 0,0 UV-I 0 W/m² 6,1 °C 7,6 °C 0,0 km/h (0 Bft)
25.10.2019 21:09 7,6 °C 90 % 1021,8 hPa 0,0 mm 0,0 km/h (0 Bft) O 90 ° 0 min 0,000 mm 0,0 UV-I 0 W/m² 6,1 °C 7,6 °C 0,0 km/h (0 Bft)
25.10.2019 21:10 7,5 °C 91 % 1021,8 hPa 0,0 mm 0,0 km/h (0 Bft) O 90 ° 0 min 0,000 mm 0,0 UV-I 0 W/m² 6,1 °C 7,5 °C 0,0 km/h (0 Bft)
25.10.2019 21:11 7,6 °C 91 % 1021,8 hPa 0,0 mm 0,0 km/h (0 Bft) O 90 ° 0 min 0,000 mm 0,0 UV-I 0 W/m² 6,2 °C 7,6 °C 0,0 km/h (0 Bft)
25.10.2019 21:12 7,5 °C 91 % 1021,8 hPa 0,0 mm 0,0 km/h (0 Bft) O 90 ° 0 min 0,000 mm 0,0 UV-I 0 W/m² 6,1 °C 7,5 °C 0,0 km/h (0 Bft)
25.10.2019 21:13 7,5 °C 91 % 1021,8 hPa 0,0 mm 0,0 km/h (0 Bft) O 90 ° 0 min 0,000 mm 0,0 UV-I 0 W/m² 6,1 °C 7,5 °C 0,0 km/h (0 Bft)
25.10.2019 21:14 7,5 °C 91 % 1021,8 hPa 0,0 mm 0,0 km/h (0 Bft) O 90 ° 0 min 0,000 mm 0,0 UV-I 0 W/m² 6,1 °C 7,5 °C 0,0 km/h (0 Bft)
25.10.2019 21:15 7,4 °C 91 % 1021,8 hPa 0,0 mm 0,0 km/h (0 Bft) O 90 ° 0 min 0,000 mm 0,0 UV-I 0 W/m² 6,0 °C 7,4 °C 0,0 km/h (0 Bft)
25.10.2019 21:16 7,4 °C 91 % 1021,8 hPa 0,0 mm 0,0 km/h (0 Bft) O 90 ° 0 min 0,000 mm 0,0 UV-I 0 W/m² 6,0 °C 7,4 °C 0,0 km/h (0 Bft)
25.10.2019 21:17 7,4 °C 91 % 1021,8 hPa 0,0 mm 0,0 km/h (0 Bft) O 90 ° 0 min 0,000 mm 0,0 UV-I 0 W/m² 6,0 °C 7,4 °C 0,0 km/h (0 Bft)
25.10.2019 21:18 7,4 °C 91 % 1021,8 hPa 0,0 mm 0,0 km/h (0 Bft) O 90 ° 0 min 0,000 mm 0,0 UV-I 0 W/m² 6,0 °C 7,4 °C 0,0 km/h (0 Bft)
25.10.2019 21:19 7,4 °C 91 % 1021,8 hPa 0,0 mm 0,0 km/h (0 Bft) O 90 ° 0 min 0,000 mm 0,0 UV-I 0 W/m² 6,0 °C 7,4 °C 0,0 km/h (0 Bft)
25.10.2019 21:20 7,4 °C 91 % 1021,8 hPa 0,0 mm 0,0 km/h (0 Bft) O 90 ° 0 min 0,000 mm 0,0 UV-I 0 W/m² 6,0 °C 7,4 °C 0,0 km/h (0 Bft)
25.10.2019 21:21 7,4 °C 91 % 1021,7 hPa 0,0 mm 0,0 km/h (0 Bft) O 90 ° 0 min 0,000 mm 0,0 UV-I 0 W/m² 6,0 °C 7,4 °C 0,0 km/h (0 Bft)
25.10.2019 21:22 7,4 °C 91 % 1021,7 hPa 0,0 mm 0,0 km/h (0 Bft) O 90 ° 0 min 0,000 mm 0,0 UV-I 0 W/m² 6,0 °C 7,4 °C 0,0 km/h (0 Bft)
25.10.2019 21:23 7,4 °C 91 % 1021,7 hPa 0,0 mm 0,0 km/h (0 Bft) O 90 ° 0 min 0,000 mm 0,0 UV-I 0 W/m² 6,0 °C 7,4 °C 0,0 km/h (0 Bft)
25.10.2019 21:24 7,4 °C 91 % 1021,7 hPa 0,0 mm 0,0 km/h (0 Bft) O 90 ° 0 min 0,000 mm 0,0 UV-I 0 W/m² 6,0 °C 7,4 °C 0,0 km/h (0 Bft)
25.10.2019 21:25 7,4 °C 91 % 1021,7 hPa 0,0 mm 0,0 km/h (0 Bft) O 90 ° 0 min 0,000 mm 0,0 UV-I 0 W/m² 6,0 °C 7,4 °C 0,0 km/h (0 Bft)
25.10.2019 21:26 7,4 °C 91 % 1021,7 hPa 0,0 mm 0,0 km/h (0 Bft) O 90 ° 0 min 0,000 mm 0,0 UV-I 0 W/m² 6,0 °C 7,4 °C 0,0 km/h (0 Bft)
25.10.2019 21:27 7,4 °C 91 % 1021,7 hPa 0,0 mm 0,0 km/h (0 Bft) O 90 ° 0 min 0,000 mm 0,0 UV-I 0 W/m² 6,0 °C 7,4 °C 0,0 km/h (0 Bft)
25.10.2019 21:28 7,4 °C 91 % 1021,7 hPa 0,0 mm 0,0 km/h (0 Bft) O 90 ° 0 min 0,000 mm 0,0 UV-I 0 W/m² 6,0 °C 7,4 °C 0,0 km/h (0 Bft)
25.10.2019 21:29 7,3 °C 91 % 1021,7 hPa 0,0 mm 0,0 km/h (0 Bft) O 90 ° 0 min 0,000 mm 0,0 UV-I 0 W/m² 5,9 °C 7,3 °C 0,0 km/h (0 Bft)
25.10.2019 21:30 7,3 °C 91 % 1021,7 hPa 0,0 mm 0,0 km/h (0 Bft) O 90 ° 0 min 0,000 mm 0,0 UV-I 0 W/m² 5,9 °C 7,3 °C 0,0 km/h (0 Bft)
25.10.2019 21:31 7,3 °C 91 % 1021,7 hPa 0,0 mm 0,0 km/h (0 Bft) O 90 ° 0 min 0,000 mm 0,0 UV-I 0 W/m² 5,9 °C 7,3 °C 0,0 km/h (0 Bft)
25.10.2019 21:32 7,3 °C 91 % 1021,7 hPa 0,0 mm 0,0 km/h (0 Bft) O 90 ° 0 min 0,000 mm 0,0 UV-I 0 W/m² 5,9 °C 7,3 °C 0,0 km/h (0 Bft)
25.10.2019 21:33 7,3 °C 91 % 1021,6 hPa 0,0 mm 0,0 km/h (0 Bft) O 90 ° 0 min 0,000 mm 0,0 UV-I 0 W/m² 5,9 °C 7,3 °C 0,0 km/h (0 Bft)
25.10.2019 21:34 7,3 °C 91 % 1021,6 hPa 0,0 mm 0,0 km/h (0 Bft) O 90 ° 0 min 0,000 mm 0,0 UV-I 0 W/m² 5,9 °C 7,3 °C 0,0 km/h (0 Bft)
25.10.2019 21:35 7,3 °C 91 % 1021,6 hPa 0,0 mm 0,0 km/h (0 Bft) O 90 ° 0 min 0,000 mm 0,0 UV-I 0 W/m² 5,9 °C 7,3 °C 0,0 km/h (0 Bft)
25.10.2019 21:36 7,3 °C 91 % 1021,5 hPa 0,0 mm 0,0 km/h (0 Bft) O 90 ° 0 min 0,000 mm 0,0 UV-I 0 W/m² 5,9 °C 7,3 °C 0,0 km/h (0 Bft)
25.10.2019 21:37 7,3 °C 91 % 1021,5 hPa 0,0 mm 0,0 km/h (0 Bft) O 90 ° 0 min 0,000 mm 0,0 UV-I 0 W/m² 5,9 °C 7,3 °C 0,0 km/h (0 Bft)
25.10.2019 21:38 7,2 °C 91 % 1021,5 hPa 0,0 mm 0,0 km/h (0 Bft) O 90 ° 0 min 0,000 mm 0,0 UV-I 0 W/m² 5,8 °C 7,2 °C 0,0 km/h (0 Bft)
25.10.2019 21:39 7,2 °C 91 % 1021,5 hPa 0,0 mm 0,0 km/h (0 Bft) O 90 ° 0 min 0,000 mm 0,0 UV-I 0 W/m² 5,8 °C 7,2 °C 0,0 km/h (0 Bft)
25.10.2019 21:40 7,2 °C 91 % 1021,5 hPa 0,0 mm 0,0 km/h (0 Bft) O 90 ° 0 min 0,000 mm 0,0 UV-I 0 W/m² 5,8 °C 7,2 °C 0,0 km/h (0 Bft)
25.10.2019 21:41 7,2 °C 91 % 1021,5 hPa 0,0 mm 0,0 km/h (0 Bft) O 90 ° 0 min 0,000 mm 0,0 UV-I 0 W/m² 5,8 °C 7,2 °C 0,0 km/h (0 Bft)
25.10.2019 21:42 7,2 °C 92 % 1021,5 hPa 0,0 mm 0,0 km/h (0 Bft) O 90 ° 0 min 0,000 mm 0,0 UV-I 0 W/m² 6,0 °C 7,2 °C 0,0 km/h (0 Bft)
25.10.2019 21:43 7,2 °C 91 % 1021,5 hPa 0,0 mm 0,0 km/h (0 Bft) O 90 ° 0 min 0,000 mm 0,0 UV-I 0 W/m² 5,8 °C 7,2 °C 0,0 km/h (0 Bft)
25.10.2019 21:44 7,2 °C 92 % 1021,5 hPa 0,0 mm 0,0 km/h (0 Bft) O 90 ° 0 min 0,000 mm 0,0 UV-I 0 W/m² 6,0 °C 7,2 °C 0,0 km/h (0 Bft)
25.10.2019 21:45 7,2 °C 91 % 1021,5 hPa 0,0 mm 0,0 km/h (0 Bft) O 90 ° 0 min 0,000 mm 0,0 UV-I 0 W/m² 5,8 °C 7,2 °C 0,0 km/h (0 Bft)
25.10.2019 21:46 7,2 °C 91 % 1021,5 hPa 0,0 mm 0,0 km/h (0 Bft) O 90 ° 0 min 0,000 mm 0,0 UV-I 0 W/m² 5,8 °C 7,2 °C 0,0 km/h (0 Bft)
25.10.2019 21:47 7,1 °C 92 % 1021,5 hPa 0,0 mm 0,0 km/h (0 Bft) O 90 ° 0 min 0,000 mm 0,0 UV-I 0 W/m² 5,9 °C 7,1 °C 0,0 km/h (0 Bft)
25.10.2019 21:48 7,1 °C 92 % 1021,5 hPa 0,0 mm 0,0 km/h (0 Bft) O 90 ° 0 min 0,000 mm 0,0 UV-I 0 W/m² 5,9 °C 7,1 °C 0,0 km/h (0 Bft)
25.10.2019 21:49 7,1 °C 92 % 1021,5 hPa 0,0 mm 0,0 km/h (0 Bft) O 90 ° 0 min 0,000 mm 0,0 UV-I 0 W/m² 5,9 °C 7,1 °C 0,0 km/h (0 Bft)
25.10.2019 21:50 7,1 °C 92 % 1021,5 hPa 0,0 mm 0,0 km/h (0 Bft) O 90 ° 0 min 0,000 mm 0,0 UV-I 0 W/m² 5,9 °C 7,1 °C 0,0 km/h (0 Bft)
25.10.2019 21:51 7,1 °C 92 % 1021,6 hPa 0,0 mm 0,0 km/h (0 Bft) O 90 ° 0 min 0,000 mm 0,0 UV-I 0 W/m² 5,9 °C 7,1 °C 0,0 km/h (0 Bft)
25.10.2019 21:52 7,1 °C 92 % 1021,6 hPa 0,0 mm 0,0 km/h (0 Bft) O 90 ° 0 min 0,000 mm 0,0 UV-I 0 W/m² 5,9 °C 7,1 °C 0,0 km/h (0 Bft)
25.10.2019 21:53 7,1 °C 92 % 1021,5 hPa 0,0 mm 0,0 km/h (0 Bft) O 90 ° 0 min 0,000 mm 0,0 UV-I 0 W/m² 5,9 °C 7,1 °C 0,0 km/h (0 Bft)
25.10.2019 21:54 7,1 °C 92 % 1021,5 hPa 0,0 mm 0,0 km/h (0 Bft) O 90 ° 0 min 0,000 mm 0,0 UV-I 0 W/m² 5,9 °C 7,1 °C 0,0 km/h (0 Bft)
25.10.2019 21:55 7,1 °C 92 % 1021,6 hPa 0,0 mm 0,0 km/h (0 Bft) O 90 ° 0 min 0,000 mm 0,0 UV-I 0 W/m² 5,9 °C 7,1 °C 0,0 km/h (0 Bft)
25.10.2019 21:56 7,1 °C 92 % 1021,6 hPa 0,0 mm 0,0 km/h (0 Bft) O 90 ° 0 min 0,000 mm 0,0 UV-I 0 W/m² 5,9 °C 7,1 °C 0,0 km/h (0 Bft)
25.10.2019 21:57 7,1 °C 92 % 1021,6 hPa 0,0 mm 0,0 km/h (0 Bft) O 90 ° 0 min 0,000 mm 0,0 UV-I 0 W/m² 5,9 °C 7,1 °C 0,0 km/h (0 Bft)
25.10.2019 21:58 7,1 °C 92 % 1021,6 hPa 0,0 mm 0,0 km/h (0 Bft) O 90 ° 0 min 0,000 mm 0,0 UV-I 0 W/m² 5,9 °C 7,1 °C 0,0 km/h (0 Bft)
25.10.2019 21:59 7,0 °C 92 % 1021,6 hPa 0,0 mm 0,0 km/h (0 Bft) O 90 ° 0 min 0,000 mm 0,0 UV-I 0 W/m² 5,8 °C 7,0 °C 0,0 km/h (0 Bft)
25.10.2019 22:00 7,0 °C 92 % 1021,6 hPa 0,0 mm 0,0 km/h (0 Bft) O 90 ° 0 min 0,000 mm 0,0 UV-I 0 W/m² 5,8 °C 7,0 °C 0,0 km/h (0 Bft)
25.10.2019 22:01 7,0 °C 92 % 1021,6 hPa 0,0 mm 0,0 km/h (0 Bft) O 90 ° 0 min 0,000 mm 0,0 UV-I 0 W/m² 5,8 °C 7,0 °C 0,0 km/h (0 Bft)
25.10.2019 22:02 7,0 °C 92 % 1021,6 hPa 0,0 mm 0,0 km/h (0 Bft) O 90 ° 0 min 0,000 mm 0,0 UV-I 0 W/m² 5,8 °C 7,0 °C 0,0 km/h (0 Bft)
25.10.2019 22:03 7,1 °C 92 % 1021,6 hPa 0,0 mm 0,0 km/h (0 Bft) O 90 ° 0 min 0,000 mm 0,0 UV-I 0 W/m² 5,9 °C 7,1 °C 0,0 km/h (0 Bft)
25.10.2019 22:04 7,1 °C 92 % 1021,7 hPa 0,0 mm 0,0 km/h (0 Bft) O 90 ° 0 min 0,000 mm 0,0 UV-I 0 W/m² 5,9 °C 7,1 °C 0,0 km/h (0 Bft)
25.10.2019 22:05 7,1 °C 92 % 1021,7 hPa 0,0 mm 0,0 km/h (0 Bft) O 90 ° 0 min 0,000 mm 0,0 UV-I 0 W/m² 5,9 °C 7,1 °C 0,0 km/h (0 Bft)
25.10.2019 22:06 7,1 °C 92 % 1021,7 hPa 0,0 mm 0,0 km/h (0 Bft) O 90 ° 0 min 0,000 mm 0,0 UV-I 0 W/m² 5,9 °C 7,1 °C 0,0 km/h (0 Bft)
25.10.2019 22:07 7,1 °C 92 % 1021,7 hPa 0,0 mm 0,0 km/h (0 Bft) O 90 ° 0 min 0,000 mm 0,0 UV-I 0 W/m² 5,9 °C 7,1 °C 0,0 km/h (0 Bft)
25.10.2019 22:08 7,1 °C 92 % 1021,7 hPa 0,0 mm 0,0 km/h (0 Bft) O 90 ° 0 min 0,000 mm 0,0 UV-I 0 W/m² 5,9 °C 7,1 °C 0,0 km/h (0 Bft)
25.10.2019 22:09 7,1 °C 92 % 1021,7 hPa 0,0 mm 0,0 km/h (0 Bft) O 90 ° 0 min 0,000 mm 0,0 UV-I 0 W/m² 5,9 °C 7,1 °C 0,0 km/h (0 Bft)
25.10.2019 22:10 7,1 °C 92 % 1021,7 hPa 0,0 mm 0,0 km/h (0 Bft) O 90 ° 0 min 0,000 mm 0,0 UV-I 0 W/m² 5,9 °C 7,1 °C 0,0 km/h (0 Bft)
25.10.2019 22:11 7,1 °C 92 % 1021,7 hPa 0,0 mm 0,0 km/h (0 Bft) O 90 ° 0 min 0,000 mm 0,0 UV-I 0 W/m² 5,9 °C 7,1 °C 0,0 km/h (0 Bft)
25.10.2019 22:12 7,1 °C 92 % 1021,7 hPa 0,0 mm 0,0 km/h (0 Bft) O 90 ° 0 min 0,000 mm 0,0 UV-I 0 W/m² 5,9 °C 7,1 °C 0,0 km/h (0 Bft)
25.10.2019 22:13 7,1 °C 92 % 1021,7 hPa 0,0 mm 0,0 km/h (0 Bft) O 90 ° 0 min 0,000 mm 0,0 UV-I 0 W/m² 5,9 °C 7,1 °C 0,0 km/h (0 Bft)
25.10.2019 22:14 7,0 °C 92 % 1021,7 hPa 0,0 mm 0,0 km/h (0 Bft) O 90 ° 0 min 0,000 mm 0,0 UV-I 0 W/m² 5,8 °C 7,0 °C 0,0 km/h (0 Bft)
25.10.2019 22:15 7,1 °C 92 % 1021,7 hPa 0,0 mm 0,0 km/h (0 Bft) O 90 ° 0 min 0,000 mm 0,0 UV-I 0 W/m² 5,9 °C 7,1 °C 0,0 km/h (0 Bft)
25.10.2019 22:16 7,0 °C 92 % 1021,7 hPa 0,0 mm 0,0 km/h (0 Bft) O 90 ° 0 min 0,000 mm 0,0 UV-I 0 W/m² 5,8 °C 7,0 °C 0,0 km/h (0 Bft)
25.10.2019 22:17 7,0 °C 92 % 1021,7 hPa 0,0 mm 0,0 km/h (0 Bft) O 90 ° 0 min 0,000 mm 0,0 UV-I 0 W/m² 5,8 °C 7,0 °C 0,0 km/h (0 Bft)
25.10.2019 22:18 7,0 °C 92 % 1021,8 hPa 0,0 mm 0,0 km/h (0 Bft) O 90 ° 0 min 0,000 mm 0,0 UV-I 0 W/m² 5,8 °C 7,0 °C 0,0 km/h (0 Bft)
25.10.2019 22:19 6,9 °C 92 % 1021,8 hPa 0,0 mm 0,0 km/h (0 Bft) O 90 ° 0 min 0,000 mm 0,0 UV-I 0 W/m² 5,7 °C 6,9 °C 0,0 km/h (0 Bft)
25.10.2019 22:20 6,9 °C 92 % 1021,7 hPa 0,0 mm 0,0 km/h (0 Bft) O 90 ° 0 min 0,000 mm 0,0 UV-I 0 W/m² 5,7 °C 6,9 °C 0,0 km/h (0 Bft)
25.10.2019 22:21 6,9 °C 92 % 1021,8 hPa 0,0 mm 0,0 km/h (0 Bft) O 90 ° 0 min 0,000 mm 0,0 UV-I 0 W/m² 5,7 °C 6,9 °C 0,0 km/h (0 Bft)
25.10.2019 22:22 6,9 °C 92 % 1021,7 hPa 0,0 mm 0,0 km/h (0 Bft) O 90 ° 0 min 0,000 mm 0,0 UV-I 0 W/m² 5,7 °C 6,9 °C 0,0 km/h (0 Bft)
25.10.2019 22:23 6,8 °C 92 % 1021,7 hPa 0,0 mm 0,0 km/h (0 Bft) O 90 ° 0 min 0,000 mm 0,0 UV-I 0 W/m² 5,6 °C 6,8 °C 0,0 km/h (0 Bft)
25.10.2019 22:24 6,8 °C 92 % 1021,8 hPa 0,0 mm 0,0 km/h (0 Bft) O 90 ° 0 min 0,000 mm 0,0 UV-I 0 W/m² 5,6 °C 6,8 °C 0,0 km/h (0 Bft)
25.10.2019 22:25 6,8 °C 92 % 1021,7 hPa 0,0 mm 0,0 km/h (0 Bft) O 90 ° 0 min 0,000 mm 0,0 UV-I 0 W/m² 5,6 °C 6,8 °C 0,0 km/h (0 Bft)
25.10.2019 22:26 6,8 °C 92 % 1021,7 hPa 0,0 mm 0,0 km/h (0 Bft) O 90 ° 0 min 0,000 mm 0,0 UV-I 0 W/m² 5,6 °C 6,8 °C 0,0 km/h (0 Bft)
25.10.2019 22:27 6,8 °C 92 % 1021,6 hPa 0,0 mm 0,0 km/h (0 Bft) O 90 ° 0 min 0,000 mm 0,0 UV-I 0 W/m² 5,6 °C 6,8 °C 0,0 km/h (0 Bft)
25.10.2019 22:28 6,8 °C 92 % 1021,6 hPa 0,0 mm 0,0 km/h (0 Bft) O 90 ° 0 min 0,000 mm 0,0 UV-I 0 W/m² 5,6 °C 6,8 °C 0,0 km/h (0 Bft)
25.10.2019 22:29 6,8 °C 92 % 1021,6 hPa 0,0 mm 0,0 km/h (0 Bft) O 90 ° 0 min 0,000 mm 0,0 UV-I 0 W/m² 5,6 °C 6,8 °C 0,0 km/h (0 Bft)
25.10.2019 22:30 6,7 °C 92 % 1021,6 hPa 0,0 mm 0,0 km/h (0 Bft) O 90 ° 0 min 0,000 mm 0,0 UV-I 0 W/m² 5,5 °C 6,7 °C 0,0 km/h (0 Bft)
25.10.2019 22:31 6,7 °C 92 % 1021,6 hPa 0,0 mm 0,0 km/h (0 Bft) O 90 ° 0 min 0,000 mm 0,0 UV-I 0 W/m² 5,5 °C 6,7 °C 0,0 km/h (0 Bft)
25.10.2019 22:32 6,7 °C 92 % 1021,6 hPa 0,0 mm 0,0 km/h (0 Bft) O 90 ° 0 min 0,000 mm 0,0 UV-I 0 W/m² 5,5 °C 6,7 °C 0,0 km/h (0 Bft)
25.10.2019 22:33 6,7 °C 92 % 1021,6 hPa 0,0 mm 0,0 km/h (0 Bft) O 90 ° 0 min 0,000 mm 0,0 UV-I 0 W/m² 5,5 °C 6,7 °C 0,0 km/h (0 Bft)
25.10.2019 22:34 6,8 °C 93 % 1021,6 hPa 0,0 mm 0,0 km/h (0 Bft) O 90 ° 0 min 0,000 mm 0,0 UV-I 0 W/m² 5,7 °C 6,8 °C 0,0 km/h (0 Bft)
25.10.2019 22:35 6,8 °C 93 % 1021,6 hPa 0,0 mm 0,0 km/h (0 Bft) O 90 ° 0 min 0,000 mm 0,0 UV-I 0 W/m² 5,7 °C 6,8 °C 0,0 km/h (0 Bft)
25.10.2019 22:36 6,8 °C 93 % 1021,6 hPa 0,0 mm 0,0 km/h (0 Bft) O 90 ° 0 min 0,000 mm 0,0 UV-I 0 W/m² 5,7 °C 6,8 °C 0,0 km/h (0 Bft)
25.10.2019 22:37 6,8 °C 93 % 1021,6 hPa 0,0 mm 0,0 km/h (0 Bft) O 90 ° 0 min 0,000 mm 0,0 UV-I 0 W/m² 5,7 °C 6,8 °C 0,0 km/h (0 Bft)
25.10.2019 22:38 6,9 °C 93 % 1021,6 hPa 0,0 mm 0,0 km/h (0 Bft) O 90 ° 0 min 0,000 mm 0,0 UV-I 0 W/m² 5,8 °C 6,9 °C 0,0 km/h (0 Bft)
25.10.2019 22:39 6,9 °C 93 % 1021,6 hPa 0,0 mm 0,0 km/h (0 Bft) O 90 ° 0 min 0,000 mm 0,0 UV-I 0 W/m² 5,8 °C 6,9 °C 0,0 km/h (0 Bft)
25.10.2019 22:40 6,9 °C 93 % 1021,6 hPa 0,0 mm 0,0 km/h (0 Bft) O 90 ° 0 min 0,000 mm 0,0 UV-I 0 W/m² 5,8 °C 6,9 °C 0,0 km/h (0 Bft)
25.10.2019 22:41 6,9 °C 93 % 1021,6 hPa 0,0 mm 0,0 km/h (0 Bft) O 90 ° 0 min 0,000 mm 0,0 UV-I 0 W/m² 5,8 °C 6,9 °C 0,0 km/h (0 Bft)
25.10.2019 22:42 7,0 °C 93 % 1021,6 hPa 0,0 mm 0,0 km/h (0 Bft) O 90 ° 0 min 0,000 mm 0,0 UV-I 0 W/m² 5,9 °C 7,0 °C 0,0 km/h (0 Bft)
25.10.2019 22:43 7,0 °C 93 % 1021,6 hPa 0,0 mm 0,0 km/h (0 Bft) O 90 ° 0 min 0,000 mm 0,0 UV-I 0 W/m² 5,9 °C 7,0 °C 0,0 km/h (0 Bft)
25.10.2019 22:44 7,1 °C 93 % 1021,6 hPa 0,0 mm 0,0 km/h (0 Bft) O 90 ° 0 min 0,000 mm 0,0 UV-I 0 W/m² 6,0 °C 7,1 °C 0,0 km/h (0 Bft)
25.10.2019 22:45 7,0 °C 93 % 1021,6 hPa 0,0 mm 0,0 km/h (0 Bft) O 90 ° 0 min 0,000 mm 0,0 UV-I 0 W/m² 5,9 °C 7,0 °C 0,0 km/h (0 Bft)
25.10.2019 22:46 7,1 °C 93 % 1021,6 hPa 0,0 mm 0,0 km/h (0 Bft) O 90 ° 0 min 0,000 mm 0,0 UV-I 0 W/m² 6,0 °C 7,1 °C 0,0 km/h (0 Bft)
25.10.2019 22:47 7,1 °C 93 % 1021,6 hPa 0,0 mm 0,0 km/h (0 Bft) O 90 ° 0 min 0,000 mm 0,0 UV-I 0 W/m² 6,0 °C 7,1 °C 0,0 km/h (0 Bft)
25.10.2019 22:48 7,1 °C 93 % 1021,6 hPa 0,0 mm 0,0 km/h (0 Bft) O 90 ° 0 min 0,000 mm 0,0 UV-I 0 W/m² 6,0 °C 7,1 °C 0,0 km/h (0 Bft)
25.10.2019 22:49 7,1 °C 93 % 1021,5 hPa 0,0 mm 0,0 km/h (0 Bft) O 90 ° 0 min 0,000 mm 0,0 UV-I 0 W/m² 6,0 °C 7,1 °C 0,0 km/h (0 Bft)
25.10.2019 22:50 7,1 °C 93 % 1021,5 hPa 0,0 mm 0,0 km/h (0 Bft) O 90 ° 0 min 0,000 mm 0,0 UV-I 0 W/m² 6,0 °C 7,1 °C 0,0 km/h (0 Bft)
25.10.2019 22:51 7,1 °C 93 % 1021,6 hPa 0,0 mm 0,0 km/h (0 Bft) O 90 ° 0 min 0,000 mm 0,0 UV-I 0 W/m² 6,0 °C 7,1 °C 0,0 km/h (0 Bft)
25.10.2019 22:52 7,2 °C 93 % 1021,5 hPa 0,0 mm 0,0 km/h (0 Bft) O 90 ° 0 min 0,000 mm 0,0 UV-I 0 W/m² 6,1 °C 7,2 °C 0,0 km/h (0 Bft)
25.10.2019 22:53 7,2 °C 93 % 1021,6 hPa 0,0 mm 0,0 km/h (0 Bft) O 90 ° 0 min 0,000 mm 0,0 UV-I 0 W/m² 6,1 °C 7,2 °C 0,0 km/h (0 Bft)
25.10.2019 22:54 7,2 °C 93 % 1021,5 hPa 0,0 mm 0,0 km/h (0 Bft) O 90 ° 0 min 0,000 mm 0,0 UV-I 0 W/m² 6,1 °C 7,2 °C 0,0 km/h (0 Bft)
25.10.2019 22:55 7,2 °C 93 % 1021,6 hPa 0,0 mm 0,0 km/h (0 Bft) O 90 ° 0 min 0,000 mm 0,0 UV-I 0 W/m² 6,1 °C 7,2 °C 0,0 km/h (0 Bft)
25.10.2019 22:56 7,1 °C 93 % 1021,6 hPa 0,0 mm 0,0 km/h (0 Bft) O 90 ° 0 min 0,000 mm 0,0 UV-I 0 W/m² 6,0 °C 7,1 °C 0,0 km/h (0 Bft)
25.10.2019 22:57 7,2 °C 93 % 1021,6 hPa 0,0 mm 0,0 km/h (0 Bft) O 90 ° 0 min 0,000 mm 0,0 UV-I 0 W/m² 6,1 °C 7,2 °C 0,0 km/h (0 Bft)
25.10.2019 22:58 7,2 °C 93 % 1021,6 hPa 0,0 mm 0,0 km/h (0 Bft) O 90 ° 0 min 0,000 mm 0,0 UV-I 0 W/m² 6,1 °C 7,2 °C 0,0 km/h (0 Bft)
25.10.2019 22:59 7,1 °C 93 % 1021,6 hPa 0,0 mm 0,0 km/h (0 Bft) O 90 ° 0 min 0,000 mm 0,0 UV-I 0 W/m² 6,0 °C 7,1 °C 0,0 km/h (0 Bft)
25.10.2019 23:00 7,1 °C 93 % 1021,6 hPa 0,0 mm 0,0 km/h (0 Bft) O 90 ° 0 min 0,000 mm 0,0 UV-I 0 W/m² 6,0 °C 7,1 °C 0,0 km/h (0 Bft)
25.10.2019 23:01 7,1 °C 93 % 1021,6 hPa 0,0 mm 0,0 km/h (0 Bft) O 90 ° 0 min 0,000 mm 0,0 UV-I 0 W/m² 6,0 °C 7,1 °C 0,0 km/h (0 Bft)
25.10.2019 23:02 7,1 °C 93 % 1021,6 hPa 0,0 mm 0,0 km/h (0 Bft) O 90 ° 0 min 0,000 mm 0,0 UV-I 0 W/m² 6,0 °C 7,1 °C 0,0 km/h (0 Bft)
25.10.2019 23:03 7,1 °C 93 % 1021,6 hPa 0,0 mm 0,0 km/h (0 Bft) O 90 ° 0 min 0,000 mm 0,0 UV-I 0 W/m² 6,0 °C 7,1 °C 0,0 km/h (0 Bft)
25.10.2019 23:04 7,1 °C 93 % 1021,6 hPa 0,0 mm 0,0 km/h (0 Bft) O 90 ° 0 min 0,000 mm 0,0 UV-I 0 W/m² 6,0 °C 7,1 °C 0,0 km/h (0 Bft)
25.10.2019 23:05 7,1 °C 93 % 1021,6 hPa 0,0 mm 0,0 km/h (0 Bft) O 90 ° 0 min 0,000 mm 0,0 UV-I 0 W/m² 6,0 °C 7,1 °C 0,0 km/h (0 Bft)
25.10.2019 23:06 7,1 °C 93 % 1021,6 hPa 0,0 mm 0,0 km/h (0 Bft) O 90 ° 0 min 0,000 mm 0,0 UV-I 0 W/m² 6,0 °C 7,1 °C 0,0 km/h (0 Bft)
25.10.2019 23:07 7,1 °C 93 % 1021,6 hPa 0,0 mm 0,0 km/h (0 Bft) O 90 ° 0 min 0,000 mm 0,0 UV-I 0 W/m² 6,0 °C 7,1 °C 0,0 km/h (0 Bft)
25.10.2019 23:08 7,0 °C 93 % 1021,6 hPa 0,0 mm 0,0 km/h (0 Bft) O 90 ° 0 min 0,000 mm 0,0 UV-I 0 W/m² 5,9 °C 7,0 °C 0,0 km/h (0 Bft)
25.10.2019 23:09 7,0 °C 93 % 1021,6 hPa 0,0 mm 0,0 km/h (0 Bft) O 90 ° 0 min 0,000 mm 0,0 UV-I 0 W/m² 5,9 °C 7,0 °C 0,0 km/h (0 Bft)
25.10.2019 23:10 6,9 °C 93 % 1021,6 hPa 0,0 mm 0,0 km/h (0 Bft) O 90 ° 0 min 0,000 mm 0,0 UV-I 0 W/m² 5,8 °C 6,9 °C 0,0 km/h (0 Bft)
25.10.2019 23:11 6,9 °C 93 % 1021,6 hPa 0,0 mm 0,0 km/h (0 Bft) O 90 ° 0 min 0,000 mm 0,0 UV-I 0 W/m² 5,8 °C 6,9 °C 0,0 km/h (0 Bft)
25.10.2019 23:12 6,9 °C 93 % 1021,6 hPa 0,0 mm 0,0 km/h (0 Bft) O 90 ° 0 min 0,000 mm 0,0 UV-I 0 W/m² 5,8 °C 6,9 °C 0,0 km/h (0 Bft)
25.10.2019 23:13 6,9 °C 93 % 1021,6 hPa 0,0 mm 0,0 km/h (0 Bft) O 90 ° 0 min 0,000 mm 0,0 UV-I 0 W/m² 5,8 °C 6,9 °C 0,0 km/h (0 Bft)
25.10.2019 23:14 6,9 °C 93 % 1021,6 hPa 0,0 mm 0,0 km/h (0 Bft) O 90 ° 0 min 0,000 mm 0,0 UV-I 0 W/m² 5,8 °C 6,9 °C 0,0 km/h (0 Bft)
25.10.2019 23:15 6,9 °C 93 % 1021,7 hPa 0,0 mm 0,0 km/h (0 Bft) O 90 ° 0 min 0,000 mm 0,0 UV-I 0 W/m² 5,8 °C 6,9 °C 0,0 km/h (0 Bft)
25.10.2019 23:16 6,9 °C 93 % 1021,6 hPa 0,0 mm 0,0 km/h (0 Bft) O 90 ° 0 min 0,000 mm 0,0 UV-I 0 W/m² 5,8 °C 6,9 °C 0,0 km/h (0 Bft)
25.10.2019 23:17 6,9 °C 93 % 1021,6 hPa 0,0 mm 0,0 km/h (0 Bft) O 90 ° 0 min 0,000 mm 0,0 UV-I 0 W/m² 5,8 °C 6,9 °C 0,0 km/h (0 Bft)
25.10.2019 23:18 6,9 °C 93 % 1021,6 hPa 0,0 mm 0,0 km/h (0 Bft) O 90 ° 0 min 0,000 mm 0,0 UV-I 0 W/m² 5,8 °C 6,9 °C 0,0 km/h (0 Bft)
25.10.2019 23:19 6,8 °C 93 % 1021,6 hPa 0,0 mm 0,0 km/h (0 Bft) O 90 ° 0 min 0,000 mm 0,0 UV-I 0 W/m² 5,7 °C 6,8 °C 0,0 km/h (0 Bft)
25.10.2019 23:20 6,8 °C 93 % 1021,6 hPa 0,0 mm 0,0 km/h (0 Bft) O 90 ° 0 min 0,000 mm 0,0 UV-I 0 W/m² 5,7 °C 6,8 °C 0,0 km/h (0 Bft)
25.10.2019 23:21 6,8 °C 93 % 1021,6 hPa 0,0 mm 0,0 km/h (0 Bft) O 90 ° 0 min 0,000 mm 0,0 UV-I 0 W/m² 5,7 °C 6,8 °C 0,0 km/h (0 Bft)
25.10.2019 23:22 6,8 °C 93 % 1021,6 hPa 0,0 mm 0,0 km/h (0 Bft) O 90 ° 0 min 0,000 mm 0,0 UV-I 0 W/m² 5,7 °C 6,8 °C 0,0 km/h (0 Bft)
25.10.2019 23:23 6,8 °C 93 % 1021,6 hPa 0,0 mm 0,0 km/h (0 Bft) O 90 ° 0 min 0,000 mm 0,0 UV-I 0 W/m² 5,7 °C 6,8 °C 0,0 km/h (0 Bft)
25.10.2019 23:24 6,8 °C 93 % 1021,6 hPa 0,0 mm 0,0 km/h (0 Bft) O 90 ° 0 min 0,000 mm 0,0 UV-I 0 W/m² 5,7 °C 6,8 °C 0,0 km/h (0 Bft)
25.10.2019 23:25 6,8 °C 93 % 1021,6 hPa 0,0 mm 0,0 km/h (0 Bft) O 90 ° 0 min 0,000 mm 0,0 UV-I 0 W/m² 5,7 °C 6,8 °C 0,0 km/h (0 Bft)
25.10.2019 23:26 6,8 °C 93 % 1021,6 hPa 0,0 mm 0,0 km/h (0 Bft) O 90 ° 0 min 0,000 mm 0,0 UV-I 0 W/m² 5,7 °C 6,8 °C 0,0 km/h (0 Bft)
25.10.2019 23:27 6,7 °C 93 % 1021,6 hPa 0,0 mm 0,0 km/h (0 Bft) O 90 ° 0 min 0,000 mm 0,0 UV-I 0 W/m² 5,6 °C 6,7 °C 0,0 km/h (0 Bft)
25.10.2019 23:28 6,7 °C 93 % 1021,5 hPa 0,0 mm 0,0 km/h (0 Bft) O 90 ° 0 min 0,000 mm 0,0 UV-I 0 W/m² 5,6 °C 6,7 °C 0,0 km/h (0 Bft)
25.10.2019 23:29 6,7 °C 93 % 1021,5 hPa 0,0 mm 0,0 km/h (0 Bft) O 90 ° 0 min 0,000 mm 0,0 UV-I 0 W/m² 5,6 °C 6,7 °C 0,0 km/h (0 Bft)
25.10.2019 23:30 6,7 °C 93 % 1021,5 hPa 0,0 mm 0,0 km/h (0 Bft) O 90 ° 0 min 0,000 mm 0,0 UV-I 0 W/m² 5,6 °C 6,7 °C 0,0 km/h (0 Bft)
25.10.2019 23:31 6,7 °C 93 % 1021,5 hPa 0,0 mm 0,0 km/h (0 Bft) O 90 ° 0 min 0,000 mm 0,0 UV-I 0 W/m² 5,6 °C 6,7 °C 0,0 km/h (0 Bft)
25.10.2019 23:32 6,7 °C 93 % 1021,5 hPa 0,0 mm 0,0 km/h (0 Bft) O 90 ° 0 min 0,000 mm 0,0 UV-I 0 W/m² 5,6 °C 6,7 °C 0,0 km/h (0 Bft)
25.10.2019 23:33 6,7 °C 93 % 1021,5 hPa 0,0 mm 0,0 km/h (0 Bft) O 90 ° 0 min 0,000 mm 0,0 UV-I 0 W/m² 5,6 °C 6,7 °C 0,0 km/h (0 Bft)
25.10.2019 23:34 6,7 °C 93 % 1021,5 hPa 0,0 mm 0,0 km/h (0 Bft) O 90 ° 0 min 0,000 mm 0,0 UV-I 0 W/m² 5,6 °C 6,7 °C 0,0 km/h (0 Bft)
25.10.2019 23:35 6,7 °C 93 % 1021,5 hPa 0,0 mm 0,0 km/h (0 Bft) O 90 ° 0 min 0,000 mm 0,0 UV-I 0 W/m² 5,6 °C 6,7 °C 0,0 km/h (0 Bft)
25.10.2019 23:36 6,6 °C 93 % 1021,5 hPa 0,0 mm 0,0 km/h (0 Bft) O 90 ° 0 min 0,000 mm 0,0 UV-I 0 W/m² 5,6 °C 6,6 °C 0,0 km/h (0 Bft)
25.10.2019 23:37 6,6 °C 93 % 1021,5 hPa 0,0 mm 0,0 km/h (0 Bft) O 90 ° 0 min 0,000 mm 0,0 UV-I 0 W/m² 5,6 °C 6,6 °C 0,0 km/h (0 Bft)
25.10.2019 23:38 6,6 °C 93 % 1021,4 hPa 0,0 mm 0,0 km/h (0 Bft) O 90 ° 0 min 0,000 mm 0,0 UV-I 0 W/m² 5,6 °C 6,6 °C 0,0 km/h (0 Bft)
25.10.2019 23:39 6,6 °C 93 % 1021,5 hPa 0,0 mm 0,0 km/h (0 Bft) O 90 ° 0 min 0,000 mm 0,0 UV-I 0 W/m² 5,6 °C 6,6 °C 0,0 km/h (0 Bft)
25.10.2019 23:40 6,6 °C 93 % 1021,4 hPa 0,0 mm 0,0 km/h (0 Bft) O 90 ° 0 min 0,000 mm 0,0 UV-I 0 W/m² 5,6 °C 6,6 °C 0,0 km/h (0 Bft)
25.10.2019 23:41 6,6 °C 93 % 1021,4 hPa 0,0 mm 0,0 km/h (0 Bft) O 90 ° 0 min 0,000 mm 0,0 UV-I 0 W/m² 5,6 °C 6,6 °C 0,0 km/h (0 Bft)
25.10.2019 23:42 6,5 °C 93 % 1021,4 hPa 0,0 mm 0,0 km/h (0 Bft) O 90 ° 0 min 0,000 mm 0,0 UV-I 0 W/m² 5,5 °C 6,5 °C 0,0 km/h (0 Bft)
25.10.2019 23:43 6,5 °C 93 % 1021,4 hPa 0,0 mm 0,0 km/h (0 Bft) O 90 ° 0 min 0,000 mm 0,0 UV-I 0 W/m² 5,5 °C 6,5 °C 0,0 km/h (0 Bft)
25.10.2019 23:44 6,5 °C 93 % 1021,4 hPa 0,0 mm 0,0 km/h (0 Bft) O 90 ° 0 min 0,000 mm 0,0 UV-I 0 W/m² 5,5 °C 6,5 °C 0,0 km/h (0 Bft)
25.10.2019 23:45 6,5 °C 93 % 1021,5 hPa 0,0 mm 0,0 km/h (0 Bft) O 90 ° 0 min 0,000 mm 0,0 UV-I 0 W/m² 5,5 °C 6,5 °C 0,0 km/h (0 Bft)
25.10.2019 23:46 6,5 °C 93 % 1021,4 hPa 0,0 mm 0,0 km/h (0 Bft) O 90 ° 0 min 0,000 mm 0,0 UV-I 0 W/m² 5,5 °C 6,5 °C 0,0 km/h (0 Bft)
25.10.2019 23:47 6,4 °C 93 % 1021,4 hPa 0,0 mm 0,0 km/h (0 Bft) O 90 ° 0 min 0,000 mm 0,0 UV-I 0 W/m² 5,4 °C 6,4 °C 0,0 km/h (0 Bft)
25.10.2019 23:48 6,4 °C 93 % 1021,4 hPa 0,0 mm 0,0 km/h (0 Bft) O 90 ° 0 min 0,000 mm 0,0 UV-I 0 W/m² 5,4 °C 6,4 °C 0,0 km/h (0 Bft)
25.10.2019 23:49 6,4 °C 93 % 1021,4 hPa 0,0 mm 0,0 km/h (0 Bft) O 90 ° 0 min 0,000 mm 0,0 UV-I 0 W/m² 5,4 °C 6,4 °C 0,0 km/h (0 Bft)
25.10.2019 23:50 6,4 °C 93 % 1021,4 hPa 0,0 mm 0,0 km/h (0 Bft) O 90 ° 0 min 0,000 mm 0,0 UV-I 0 W/m² 5,4 °C 6,4 °C 0,0 km/h (0 Bft)
25.10.2019 23:51 6,4 °C 93 % 1021,4 hPa 0,0 mm 0,0 km/h (0 Bft) O 90 ° 0 min 0,000 mm 0,0 UV-I 0 W/m² 5,4 °C 6,4 °C 0,0 km/h (0 Bft)
25.10.2019 23:52 6,4 °C 93 % 1021,4 hPa 0,0 mm 0,0 km/h (0 Bft) O 90 ° 0 min 0,000 mm 0,0 UV-I 0 W/m² 5,4 °C 6,4 °C 0,0 km/h (0 Bft)
25.10.2019 23:53 6,3 °C 93 % 1021,4 hPa 0,0 mm 0,0 km/h (0 Bft) O 90 ° 0 min 0,000 mm 0,0 UV-I 0 W/m² 5,3 °C 6,3 °C 0,0 km/h (0 Bft)
25.10.2019 23:54 6,3 °C 93 % 1021,4 hPa 0,0 mm 0,0 km/h (0 Bft) O 90 ° 0 min 0,000 mm 0,0 UV-I 0 W/m² 5,3 °C 6,3 °C 0,0 km/h (0 Bft)
25.10.2019 23:55 6,3 °C 93 % 1021,4 hPa 0,0 mm 0,0 km/h (0 Bft) O 90 ° 0 min 0,000 mm 0,0 UV-I 0 W/m² 5,3 °C 6,3 °C 0,0 km/h (0 Bft)
25.10.2019 23:56 6,3 °C 93 % 1021,3 hPa 0,0 mm 0,0 km/h (0 Bft) O 90 ° 0 min 0,000 mm 0,0 UV-I 0 W/m² 5,3 °C 6,3 °C 0,0 km/h (0 Bft)
25.10.2019 23:57 6,3 °C 93 % 1021,3 hPa 0,0 mm 0,0 km/h (0 Bft) O 90 ° 0 min 0,000 mm 0,0 UV-I 0 W/m² 5,3 °C 6,3 °C 0,0 km/h (0 Bft)
25.10.2019 23:58 6,3 °C 93 % 1021,4 hPa 0,0 mm 0,0 km/h (0 Bft) O 90 ° 0 min 0,000 mm 0,0 UV-I 0 W/m² 5,3 °C 6,3 °C 0,0 km/h (0 Bft)
25.10.2019 23:59 6,3 °C 93 % 1021,3 hPa 0,0 mm 0,0 km/h (0 Bft) O 90 ° 0 min 0,000 mm 0,0 UV-I 0 W/m² 5,3 °C 6,3 °C 0,0 km/h (0 Bft)
_ Min-Zeit 23:59 15:37 00:07 - 23:59 - - - - - - 23:59 23:59 23:59
Minimum _ 6,3 °C 70 % 1015,0 hPa - 0,0 km/h (0 Bft) - - - - - - 5,3 °C 6,3 °C 0,0 km/h (0 Bft)
_ Max-Zeit 15:32 23:59 12:23 07:42 03:35 - - 23:59 16:01 13:41 13:42 12:48 15:32 03:53
Maximum _ 14,8 °C 93 % 1022,0 hPa 0,2 mm 12,2 km/h
W-SW (2 Bft)
- - 0 min 0,152 mm 2,4 UV-I 420 W/m² 10,6 °C 14,8 °C 17,7 km/h
W (3 Bft)
Durchschnitt _ 11,3 °C 86 % 1019,9 hPa #0,2 mm 1,1 km/h (1 Bft) S-SW - #0 min. #0,610 mm 1,2 UV-I 43 W/m² 9,0 °C 11,3 °C 2,0 km/h (1 Bft)